GFSSE_con_mlcape_000.txt.gz
CAPE
83 200 347 688 571 486 702 536 312 400 466 561 556 676 864 857 1018 1179 1215 1456 1516 1657 1758 1673 1606 1837 1897 1889 1787 1591 1599 1538 1288 1200 1079 1209 1094 1182 1001 962 909 944 1128
98 207 466 907 546 443 513 456 357 467 773 888 951 1343 904 886 916 1121 1163 1359 1600 1616 1415 1400 1628 1798 1723 1430 1559 1632 1396 1571 1452 1537 1653 1504 1269 993 1206 874 976 647 842
108 270 310 988 788 624 580 515 563 610 1363 1396 1500 1440 1043 994 1056 1016 1402 1730 1681 1581 1749 1870 1815 1960 2033 1821 1569 1259 1262 1296 1376 1365 1391 709 974 1220 1043 865 903 1053 1123
204 295 541 759 1028 825 928 922 705 874 1280 1150 1324 1516 1419 1472 1361 1641 1939 1721 1631 1710 1715 1747 1802 1735 1766 1762 1643 1483 1275 1052 1285 1319 861 764 1154 1348 1074 648 1064 887 897
304 402 675 1037 1257 1309 1517 1507 1470 1292 1302 1415 1754 1898 1934 2102 2186 1930 1735 1643 1674 1599 1445 1528 1608 1678 1436 1723 1617 1321 1367 1056 877 784 790 712 891 1387 1297 786 905 534 838
426 627 1026 1313 1412 1582 1648 1595 1677 1827 1541 1620 1981 1962 1993 2012 1737 1728 1582 1681 1699 1475 1490 1503 1471 1550 1544 1627 1743 1480 1432 1088 825 708 666 952 877 1509 1281 409 1059 240 344
641 1141 1257 1426 1664 1633 1643 1650 1865 1926 1540 1483 1811 2054 1949 1870 1879 1788 1763 1809 1659 1607 1606 1635 1698 1670 1687 1758 1886 1731 1697 1555 969 762 661 718 950 1068 1299 908 1004 707 724
1000 1170 1424 1791 1802 1947 1979 1775 1679 1572 1542 1457 1507 1599 1532 1663 1736 1687 1616 1533 1495 1443 1622 1581 1660 1755 1907 2071 2132 1333 1384 1290 1291 907 885 784 972 1140 1649 1288 836 1117 852
1120 1365 1630 1913 2088 2087 1901 1689 1694 1406 1524 1309 1090 1403 1316 1439 1881 1795 1569 1562 1624 1586 1686 1799 1754 1806 1947 2061 1681 1186 1336 1430 1494 1028 1006 730 964 1227 1240 1309 906 784 967
1210 1384 1561 1890 1927 1882 2014 1474 1613 1440 1173 1166 1408 1333 1367 1529 1635 1550 1365 1336 1834 1951 2123 1934 1144 1228 1161 1122 1008 1048 977 967 1100 1108 1034 734 786 1116 1377 948 1276 938 708
1011 1172 1596 1600 1730 1685 1776 1667 1382 1494 1410 1501 1475 1495 1326 1244 1291 1470 1395 1255 1133 1353 1303 1475 1174 1113 1314 1002 927 945 910 1084 1028 1110 1042 958 906 852 1581 987 1274 1004 816
634 1004 1325 1485 1629 1743 1730 1929 1598 1545 1478 1385 1341 1260 1094 1053 1085 718 745 1098 935 699 1176 1310 1054 1212 976 929 814 721 620 664 840 895 912 813 772 636 1398 1036 1176 758 1046
771 1212 1275 1362 1673 1575 1650 1595 1518 1366 1144 1069 1140 1196 1196 808 692 922 600 470 173 844 1022 887 857 835 772 731 640 596 626 674 645 688 564 472 794 854 850 1341 590 823 999
923 1149 1450 1560 1570 1499 1340 1192 1271 997 1115 926 970 1067 1002 747 671 611 538 671 876 904 827 605 636 667 619 430 416 473 483 573 650 681 640 668 1102 869 1300 754 1149 719 566
733 834 1130 1451 1607 1548 1330 1447 1316 1186 1192 1210 979 843 869 787 586 537 597 789 705 665 670 651 603 543 323 186 173 237 319 289 391 529 499 442 906 1081 1180 1225 983 1285 859
821 574 843 1021 1273 1576 1323 1306 1115 891 1106 1026 851 876 861 824 842 697 709 671 583 553 464 587 535 333 70 77 40 43 69 104 107 182 325 386 386 992 1024 1009 1122 1100 1423
1058 965 1079 1273 1594 1311 1357 1044 949 1052 963 1088 1037 948 1120 1124 955 898 687 583 490 312 313 277 296 122 129 64 22 0 0 15 108 79 194 412 480 584 760 1039 974 884 909
1174 1148 1200 1499 1562 1323 1374 1317 1196 1198 1257 1203 1175 1123 1146 1111 1098 929 650 392 378 297 276 308 203 160 124 54 25 50 12 21 73 132 146 165 258 587 802 846 1044 916 783
1106 1050 1075 1472 1554 1455 1162 1381 1462 1426 1280 1178 1085 967 935 895 830 754 544 450 382 336 348 246 173 170 78 52 77 104 16 36 68 100 75 99 114 202 309 485 663 856 710
1018 1139 1195 1363 1553 1425 1259 1273 1334 1284 1114 1018 1004 824 776 806 766 623 545 447 454 348 252 152 167 128 115 115 115 30 16 32 7 0 54 154 150 314 406 452 616 774 834
786 1028 1225 1406 1589 1544 1412 1299 1397 1177 1178 1154 1072 928 836 686 748 710 535 427 242 213 146 173 145 123 84 66 28 1 1 0 0 0 3 0 0 0 190 619 841 961 908
508 897 1084 1429 1553 1558 1509 1334 1345 1263 1259 1211 1117 1053 877 825 754 582 311 175 173 138 57 13 35 53 79 144 38 0 0 3 2 0 0 0 0 0 0 0 26 62 159
398 706 840 1084 1444 1536 1412 1287 1354 1315 1444 1336 1329 1090 1181 899 605 467 301 53 16 0 0 0 0 19 87 117 95 19 0 0 0 0 0 0 0 0 0 0 0 0 18
334 483 608 813 1114 1344 1341 1418 1457 1394 1227 1078 932 1138 1283 802 551 233 0 0 0 0 0 0 21 70 80 16 27 56 3 16 0 0 0 0 0 0 0 0 0 0 0
254 377 456 624 764 1076 1270 1351 1503 1438 1287 690 332 435 872 381 187 0 0 0 0 0 0 0 0 0 0 5 1 0 0 0 0 0 0 0 0 0 0 0 0 0 0
175 287 392 487 568 911 1040 1241 1434 1443 1143 812 250 77 415 307 0 0 0 0 0 0 0 0 0 0 0 12 30 0 0 0 0 0 0 0 0 0 0 0 0 0 0

GFSSE_con_mlcape_003.txt.gz
CAPE
53 218 313 342 416 368 431 373 470 447 435 669 668 1062 999 1112 1069 1222 1465 1626 1634 1696 1677 1866 2059 1908 1916 1925 1820 1690 1491 1678 1626 1386 1503 1330 1437 1128 1199 845 1032 591 1202
148 264 393 407 390 572 383 265 485 458 666 590 726 934 879 960 1328 1443 1635 1758 1943 1920 1741 2067 2007 1821 1605 1495 1564 1718 1140 1419 1441 1461 1620 1442 1232 1151 1103 1050 670 519 889
183 304 441 513 460 523 349 311 619 686 760 924 1085 953 941 999 1352 1574 1852 1976 1988 1998 2013 1928 1936 1947 1827 1834 1620 1499 1294 1170 1237 1129 1293 736 874 526 1062 1139 1133 1110 854
170 316 324 539 539 435 417 468 744 1472 1393 1494 1726 1282 1336 1468 1621 1928 2010 1809 1886 2047 1950 1739 1814 1711 1628 1665 1684 1206 1070 1042 941 873 880 843 731 1175 1107 1180 1023 1163 1040
294 413 691 525 605 574 425 711 1136 1639 1642 1690 1758 1488 1611 1865 2095 2265 1948 1880 1981 1837 1815 1758 1698 1565 1539 1639 1785 1419 1192 882 829 891 1249 1250 993 1319 1336 890 725 965 797
436 544 847 1048 1162 864 1046 1012 1428 1606 1439 1654 1660 1890 2020 2257 2001 1803 1718 1883 1897 1875 1878 1800 1723 1754 1742 1827 1850 1874 1343 1110 1076 1072 1062 1383 1165 1568 1414 699 801 652 1052
608 743 1217 1344 1274 1399 1421 1606 1728 1605 1686 1980 2042 2025 2089 1969 1947 1973 2137 2170 2001 1893 1812 1796 1734 1799 1836 1970 1724 1521 1459 1106 1080 1209 1290 1374 1463 1208 985 803 634 447 711
613 1041 1154 1359 1574 1431 1677 1763 1845 1921 1789 1550 1602 1921 1947 1919 2099 2080 1993 1810 1800 1778 1781 1806 1940 1995 2104 2097 2003 1376 1420 1485 1215 1284 1321 1354 1095 1011 1444 1332 1151 1002 1076
1010 1069 1547 1568 1836 1896 1926 1874 1899 1643 1150 937 1471 1640 1516 1698 1545 2037 1848 1656 1802 1895 1892 1948 1590 1467 1548 1588 1236 1072 1192 1290 1439 1056 1232 1303 1006 1245 1818 1509 1081 1149 922
1063 1204 1497 1655 1686 1803 1603 1771 1531 1414 1286 1443 1500 1439 1370 1583 1920 1820 1390 1415 1662 1735 1553 1878 1467 1233 1235 1444 1323 1247 1462 1311 1558 1785 1359 1161 812 1204 1643 1707 1188 1054 960
1264 1412 1549 1639 1883 1903 1630 1641 1822 1638 1617 1438 1556 1405 1058 1578 1640 1695 1534 1195 1591 1407 1357 1418 1434 1213 1033 1163 934 933 835 1232 1499 1676 1622 1194 988 917 1607 1307 1266 1422 688
892 1264 1613 1699 1631 1596 1553 1431 1578 1342 1060 1147 1462 1516 1564 1692 1667 1420 1145 1158 1448 1142 1293 1008 1104 1217 1219 1211 1150 1076 1072 1249 1229 1372 1314 992 971 860 1219 1501 1183 1022 1164
842 997 1347 1617 1672 1616 2058 1775 1713 1646 1608 1431 1646 1596 1863 1418 1134 1244 1382 1052 575 1126 1427 1224 1257 1217 1316 1034 799 824 930 1020 1200 1242 1206 722 727 1038 1027 1550 1215 1226 1010
755 1035 1194 1504 1793 1892 1900 1575 1931 1415 1600 1198 1357 1803 1661 1291 1133 1300 1240 1400 1358 1425 1440 1300 1133 1145 897 660 603 592 670 694 655 982 1205 958 823 1148 1236 1075 1405 908 934
798 1171 1482 1641 1743 1827 1611 1304 1238 1600 1132 1129 1441 1378 1233 1143 1256 1339 1139 1447 1507 1362 1257 1210 1069 962 724 516 541 448 409 533 611 624 894 858 844 956 1332 1261 1220 1199 990
937 1086 1525 1843 1979 2063 1760 1813 1735 1861 1794 1479 1475 1241 1212 1049 1332 913 1036 973 1270 1193 1011 1021 964 721 524 545 232 309 254 209 427 513 439 905 628 650 998 1264 1255 1065 1235
1213 1034 1057 1420 1760 1965 1909 1821 1689 1672 1573 1109 1129 1356 1457 1533 1340 1130 904 838 1213 954 826 839 856 602 404 305 283 192 334 311 252 636 535 655 927 908 925 1048 915 954 840
1454 1257 1104 1037 1301 1604 1664 1655 1524 1625 1569 1449 1501 1472 1209 1081 1047 1016 882 597 791 869 731 772 697 530 555 372 266 330 275 220 454 556 568 555 470 651 922 1045 884 890 1021
1605 1555 1480 1693 1739 1991 1931 1398 1571 1870 1833 1724 1913 1694 1183 1483 1272 1203 895 650 856 955 702 745 588 597 474 357 305 241 129 164 336 306 578 709 724 714 538 785 679 690 933
1630 1767 1781 1752 1988 1843 1280 1257 1216 1545 1265 1730 1836 1727 1536 1154 1088 1255 1035 1011 958 918 782 615 583 646 481 432 200 117 141 130 93 211 305 174 15 434 943 1275 1306 1311 960
1674 1663 1662 1684 1683 1374 1448 1298 1390 982 1849 1797 1760 1265 1230 1046 1109 956 862 870 980 743 726 646 635 483 216 368 197 1 34 74 13 21 34 0 0 0 12 376 931 1070 1153
1544 1558 1649 1717 1819 1477 1766 1885 1819 1753 1836 1671 1819 1814 1622 1504 1459 1330 1111 766 571 396 402 399 331 223 237 377 153 16 0 21 31 0 0 0 0 0 0 0 45 261 577
1270 1454 1525 1700 1827 1977 2192 2222 1977 1864 1868 1765 1875 1921 1765 1680 1441 1253 838 542 324 114 4 201 140 184 93 286 272 65 0 1 0 0 0 0 0 0 0 0 0 4 0
1007 1150 1296 1610 1780 2098 2361 1982 1842 1519 1503 1691 2071 2017 1961 1734 1248 958 746 82 127 75 118 86 34 302 297 67 134 194 73 34 0 0 0 0 0 0 0 0 0 0 0
840 876 1089 1381 1626 1993 2254 2128 1960 1849 1861 2106 1947 1405 1863 1669 1149 720 165 0 26 91 134 0 138 67 141 25 28 78 21 0 0 0 0 0 0 0 0 0 0 0 0
588 658 884 1126 1290 1551 1853 2139 1994 1927 2092 2078 1698 922 911 1244 687 432 0 0 115 147 59 0 19 0 0 42 96 34 0 0 0 0 0 0 0 0 0 0 0 0 0

GFSSE_con_mlcape_006.txt.gz
CAPE
166 164 183 153 393 372 356 450 498 520 868 1019 962 1160 1223 1250 1465 1789 1868 1911 1914 1769 1881 1804 1726 1630 1622 1692 1730 1776 1686 1729 1449 1696 1523 1561 1131 1304 945 825 681 261 1077
251 222 175 513 249 384 569 527 498 644 703 908 1054 1065 1236 1358 1775 1807 2009 2086 1805 1732 1879 1903 1911 1837 1762 1643 1484 1552 1203 1142 1097 1390 1473 568 981 1101 1022 646 839 384 935
314 394 272 328 243 371 460 578 724 718 690 898 930 1034 1102 1574 1767 2062 2169 2094 1954 1977 1995 1783 1590 1587 1612 1615 1461 1395 1319 900 799 738 403 275 397 739 1134 841 950 632 917
194 246 211 519 550 401 431 798 864 819 1026 1029 995 1017 1240 1567 1682 2122 2055 1959 2040 1897 1835 1736 1609 1597 1600 1700 1605 1344 1337 952 812 605 952 276 346 1117 1152 907 1287 1188 972
263 227 374 546 525 491 539 948 1456 1389 1484 1652 1322 1233 1393 1612 2175 2227 1999 1978 1942 1858 1694 1532 1423 1552 1701 1837 1899 1497 1199 943 840 1013 1102 702 628 986 886 979 1006 815 803
436 490 231 343 436 572 735 1179 1298 1611 1686 1776 1476 1481 1723 2136 2057 1865 1851 1973 1864 1712 1639 1640 1711 1709 1677 1881 2094 1604 1523 1276 1060 1269 1017 724 644 843 1008 1102 671 932 588
554 749 400 691 841 595 908 1337 1620 1397 1739 1752 1846 1751 2107 1888 1906 1725 2054 2096 1840 1700 1720 1692 1802 1859 1941 1995 1969 1356 1447 1087 1312 1332 1249 1348 1048 842 754 1302 373 650 1110
750 765 987 1065 1035 1278 1563 1777 1519 1743 1901 1982 1975 1988 1959 1912 1933 1915 1744 1479 1823 1739 1745 1868 1831 1733 1715 1756 1877 1351 1380 990 1524 1539 1429 1142 926 1240 1281 1327 755 757 992
864 1039 1140 1133 1445 1848 1872 1964 1792 1793 1728 1569 1765 1803 1631 1807 1744 1234 1234 1097 1743 1907 2037 1737 1487 1318 1426 1347 1309 1403 1450 1105 1716 1546 1442 1406 871 1230 1659 1527 1349 1295 1068
1020 1165 1375 1509 1532 1377 1457 2021 2018 1744 1277 1434 1710 1714 1838 1560 1145 1023 751 1630 1514 1477 1597 1683 1386 1358 1213 1124 1075 1116 911 1294 1255 1143 1480 1266 1007 1342 1728 1689 1124 1068 980
1019 1125 1244 1400 1505 1518 979 1113 1417 1452 1589 1537 1437 1526 700 1115 1371 1282 1013 949 1473 1369 1431 1406 1232 1183 1019 1201 1027 927 998 1199 1227 1114 1387 1094 941 1297 1763 1713 1356 1395 1039
1030 1128 1010 1291 1366 1381 1088 1262 1341 992 742 730 786 1018 937 1232 1442 888 1198 905 1166 1146 1128 975 901 1127 1297 979 925 935 746 859 1196 1312 1296 794 948 1159 1375 1679 1118 1633 1030
1044 1077 1363 1097 1485 1420 1256 1238 1189 1041 953 1005 1398 1333 1073 1182 1113 1389 1378 1279 1026 866 1442 1317 1315 1174 1250 1020 790 750 795 703 525 927 1340 943 769 1077 1282 1524 1423 1570 1062
889 932 1082 1206 1264 1275 1537 1307 1151 961 960 876 937 1345 1358 1172 1295 1584 1407 1507 1479 1238 1323 1322 1091 1269 1195 910 855 727 498 496 333 356 952 1052 795 1289 1424 1463 1655 1548 1114
862 925 1020 1197 1456 1521 1677 1118 1068 941 908 773 852 1148 1046 907 1278 1482 1437 1316 1274 1333 1186 1112 1175 1204 1099 871 733 312 70 54 247 194 322 1001 751 899 1441 1536 1451 1554 1297
720 799 996 1121 1397 1517 1475 1314 1095 1069 950 927 805 788 1165 967 1139 1073 1194 1064 1152 1355 1091 1092 1232 1145 1001 722 239 162 38 4 50 266 154 450 946 586 953 1570 1572 1332 1499
791 779 988 1263 1400 1778 1810 1609 1439 1145 1047 939 879 1238 1405 1412 1420 1270 1166 1041 1026 1211 1514 1263 1298 1152 669 339 120 22 80 92 125 220 223 117 473 1109 672 1048 1060 1048 1028
887 940 1066 1077 1228 1622 1564 1482 1309 1097 1099 1085 963 1261 1616 1512 1379 1338 1194 986 1002 960 1089 1124 1004 714 293 122 18 31 54 47 122 178 223 266 67 64 980 881 945 915 1112
1070 1186 1206 1106 1043 1280 1512 1490 1428 1333 1592 1517 1509 1487 1215 1465 1225 1386 1163 1059 1187 930 989 788 681 375 43 7 10 6 32 40 46 43 281 529 620 407 125 1001 677 717 1062
1156 1432 1450 1265 1299 1614 1660 1729 1373 1426 1307 1212 1271 1612 1805 1612 1364 1338 1193 1080 1172 964 845 728 521 151 103 11 2 2 23 11 25 66 139 61 66 358 593 1172 848 956 992
1289 1583 1763 1620 1763 2026 1373 1075 1102 947 1097 1216 1143 1848 1732 1573 1497 1577 1135 1157 1217 1077 633 313 65 13 0 30 0 10 19 26 20 10 11 0 0 0 119 700 844 936 1181
1305 1651 1858 1928 1939 2066 1527 1282 1110 1219 1045 1333 1422 1662 1728 1761 1805 1479 1381 1291 1188 194 318 45 14 2 7 20 16 7 5 29 31 21 0 0 0 0 0 12 247 670 757
1178 1670 1886 2088 2227 2256 1478 1437 1776 1728 1756 1556 1646 1831 2069 2099 2006 1876 1728 838 651 9 1 35 31 9 3 75 70 4 2 3 0 20 14 0 0 0 0 0 0 0 0
1063 1433 1894 2236 2453 2380 2168 1590 1565 1472 965 684 990 936 1594 2058 1863 1775 1335 747 21 0 2 32 7 1 18 11 12 9 0 14 7 8 19 5 0 0 0 0 0 0 0
1015 1273 1668 2225 2472 2513 2381 2412 2073 1946 940 802 911 1469 1712 1518 1684 1002 1164 233 0 0 64 37 8 18 8 0 7 16 24 5 0 0 0 8 10 10 0 0 0 0 0
903 1120 1351 1887 2476 2640 2662 2639 2470 1819 1461 815 1298 1030 563 622 980 1026 1116 307 0 0 51 26 0 0 0 1 16 40 11 8 11 4 1 1 5 4 6 0 0 0 0

GFSSE_con_mlcape_009.txt.gz
CAPE
161 96 121 238 220 224 415 832 1117 1440 1451 1492 1483 1408 1521 1919 1878 2045 2015 1760 1828 1944 1783 1697 1636 1606 1521 1519 1542 1526 1503 1448 1715 1428 1416 1012 1170 1135 606 828 409 632 1217
154 75 165 297 270 245 453 596 957 875 1324 1383 1458 1483 1809 1866 1973 2172 2005 1770 1862 1818 1710 1653 1562 1537 1515 1443 1413 1300 1268 1181 1040 1104 1234 978 913 871 849 786 458 511 840
124 57 163 223 342 358 373 585 858 748 1104 1193 1328 1419 1615 1877 2119 2040 1941 1964 1933 1885 1644 1570 1551 1541 1588 1507 1328 1359 1111 964 595 186 764 775 485 924 737 931 810 1049 1111
97 86 208 288 318 508 829 863 888 924 1011 1082 1159 1333 1413 1716 2018 1885 1801 1855 1754 1728 1638 1500 1448 1560 1674 1809 1622 1358 1202 842 666 692 1239 570 487 970 920 1213 1142 1089 1080
138 191 257 543 604 674 1172 1127 1081 1101 1206 1235 1240 1267 1443 1795 2037 1767 1794 1829 1771 1701 1550 1496 1598 1642 1698 1906 1818 1651 1341 879 849 1051 1026 611 698 721 979 1049 678 977 607
196 490 374 622 653 814 1194 1603 1513 1581 1806 1555 1252 1368 1813 2072 1790 1619 1888 1773 1640 1596 1579 1601 1615 1707 1854 1944 1813 1433 1331 1128 1212 1243 968 226 783 843 1130 893 1056 1079 865
567 338 229 545 730 919 1262 1638 1749 1626 1698 1588 1452 1717 2105 1812 1740 1828 1912 1596 1463 1491 1688 1749 1811 1795 1693 1888 1909 1464 1317 1157 1529 1600 1482 1332 566 816 660 956 860 854 1037
595 446 406 749 846 1062 1419 1748 1316 1682 1720 2007 1866 1952 1881 1868 1822 1886 1455 1440 1554 1673 1832 1917 1484 1407 1558 1536 1408 1337 1105 1144 1409 1341 1578 1471 579 1009 1041 941 323 995 1248
698 787 831 905 1235 1640 1754 1602 1695 1790 1934 1974 1961 1909 1657 1689 1620 1333 1110 1038 1572 1907 1849 1809 1428 1375 1434 1248 1353 1173 1087 1310 1829 1322 1517 1371 941 1429 1511 1378 1243 1081 1037
903 949 804 1021 1134 1317 1433 1800 1607 1712 1525 1404 1743 1527 1292 1334 981 554 854 1595 1388 1369 1576 1550 1198 1043 946 1025 836 645 819 1303 1831 1427 1589 1310 1056 1524 1693 1527 1465 1364 1125
901 908 932 946 1315 1414 1506 1657 1802 1625 1160 1385 1364 1404 729 1198 1232 1458 1379 672 1231 1335 1248 1175 993 795 1072 1372 1098 831 1161 1397 826 1102 1662 819 1134 1584 1770 1703 1277 1018 1190
805 871 893 1159 1000 984 755 1218 913 614 545 655 745 877 992 1153 1384 858 1231 786 965 927 995 917 798 1013 1519 1649 1383 877 891 791 899 1034 1299 937 1017 1388 1530 1874 1380 1537 1143
572 846 1009 1303 1300 952 993 775 967 896 827 804 1057 1300 955 1162 1186 1104 1382 1558 1630 1003 1521 1412 1325 1454 990 930 827 871 741 591 344 540 1194 890 704 1211 1578 1845 1401 1735 1364
707 809 846 1420 1382 971 1070 758 899 760 679 715 887 1326 1425 1301 1037 1062 1396 1278 1509 1282 1297 1295 1191 1029 1039 1033 862 789 372 197 94 144 1497 1095 806 1065 1652 1646 1804 1654 1359
799 888 825 950 1076 1343 1533 804 812 716 557 652 816 1123 1190 976 1296 1382 1533 1168 1412 1167 1132 951 944 995 845 1018 639 311 149 9 0 6 210 998 833 779 1674 1739 1371 1534 1598
618 665 794 1094 1363 1370 1368 1600 1151 846 882 571 716 800 1388 1251 1190 1341 1477 1219 1083 1082 1209 1123 1387 1064 951 713 361 165 36 55 61 129 75 903 869 805 858 1680 1765 1411 1186
667 720 798 927 1291 1450 1491 1486 1189 881 661 781 610 1010 1155 1336 1334 1639 1249 1213 878 1094 1677 1324 1033 1090 824 137 27 13 19 32 66 152 111 64 916 1016 736 862 1406 1556 1511
651 728 819 809 921 1293 1583 1627 1283 887 1137 745 861 897 1378 1676 1843 1788 1181 1118 1118 1322 1138 1251 1249 596 31 9 7 15 10 10 51 60 179 108 99 231 1079 875 907 713 883
763 855 896 959 894 1211 1901 1615 1320 1299 1041 1290 1475 1048 1638 1796 1613 1633 1201 1051 1401 1118 1072 1170 969 615 5 1 1 1 17 35 17 48 31 203 293 347 202 939 998 858 987
813 1008 1192 1102 1194 1321 1501 1876 1377 1106 1532 1383 1360 970 1346 1731 1889 1675 1158 1505 1508 1046 1014 734 566 34 0 3 0 0 19 55 22 37 49 15 8 158 405 516 1093 895 920
849 1096 1386 1514 1713 1595 1345 1438 1320 1037 1143 960 742 2033 2250 1875 1741 1578 1532 1394 1319 1094 758 161 27 3 5 22 0 22 20 11 30 35 11 0 0 0 35 354 573 911 1115
926 1089 1552 1744 2039 1966 1753 1638 1567 926 884 675 888 1255 1541 1812 1708 1696 1726 998 1137 465 271 72 1 0 5 28 11 3 10 33 23 21 0 0 0 0 0 0 250 580 787
922 1187 1723 2214 2310 2459 2011 1947 1754 1598 1384 1429 1171 1726 1687 1873 1819 2046 1874 1665 1114 226 0 90 2 1 1 21 8 1 7 21 6 18 11 0 0 0 0 0 0 0 0
909 1242 1706 2363 2500 2579 2325 1841 1679 1210 870 373 443 505 1181 2008 1575 1803 1823 839 645 0 6 4 1 0 0 1 7 1 0 0 0 14 12 12 0 1 0 0 0 0 0
870 1146 1656 2409 2691 2678 2611 1976 1515 1259 693 765 379 842 1163 1975 1163 1035 895 630 153 0 4 74 1 1 56 0 1 8 21 0 0 0 0 16 22 27 9 0 0 0 0
815 1052 1545 2518 2939 2972 3044 2385 1967 1956 1092 596 517 909 1157 1000 1165 878 543 549 114 0 69 52 31 7 0 10 3 7 13 6 15 14 5 4 12 13 35 20 10 10 0

GFSSE_con_mlcape_012.txt.gz
CAPE
13 10 156 169 171 211 826 937 1157 1368 1621 1460 1512 1638 1631 1813 1855 1690 1538 1930 1861 1892 1822 1745 1652 1568 1460 1472 1421 1330 1253 1370 1172 1217 1003 1077 804 332 581 421 463 855 1299
92 164 227 253 245 613 1023 1147 1173 1511 1536 1365 1526 1641 1750 1987 1962 1757 1766 1874 1864 1727 1646 1608 1591 1533 1457 1322 1269 1153 995 564 1061 1148 1045 885 510 704 763 767 646 815 895
101 96 229 346 463 439 679 927 1226 1344 1339 1373 1594 1765 1829 1978 1879 1849 1863 1877 1837 1723 1599 1509 1549 1631 1670 1406 1226 1084 755 529 567 498 642 608 543 778 819 813 953 1100 978
45 58 181 496 518 521 808 729 863 1147 1280 1287 1401 1504 1871 1935 1761 1705 1700 1640 1645 1548 1407 1412 1527 1578 1712 1645 1438 1076 759 522 544 897 829 462 113 870 878 1076 1140 862 1069
115 235 406 553 811 878 895 895 1067 1194 1235 1313 1309 1447 1815 1841 1614 1629 1679 1627 1557 1466 1448 1470 1538 1561 1607 1739 1358 1337 905 570 896 1123 830 551 100 804 858 1024 795 879 1027
371 273 556 718 952 1296 1206 1077 1286 1430 1369 1252 1257 1560 1799 1612 1461 1742 1661 1439 1367 1365 1461 1610 1548 1573 1559 1674 1509 1269 1056 998 1179 1049 712 615 180 963 1153 816 1070 754 913
485 291 479 847 1018 1395 1619 1537 1721 1816 1632 1311 1424 1789 1589 1550 1462 1806 1440 1288 1306 1529 1669 1753 1341 1436 1271 1298 1190 1115 923 1129 1220 998 1034 508 463 926 858 1115 836 867 1013
329 172 427 866 1091 1439 1660 1789 1633 1662 1662 1526 1570 1718 1532 1525 1607 1557 1245 1237 1423 1625 1828 1645 1307 1245 1160 879 707 718 1032 1159 549 227 1009 389 479 700 913 413 799 1016 1050
282 515 709 822 1172 1497 1761 1434 1651 1705 1893 1691 1597 1515 1255 1345 1374 1350 1157 1044 1328 1466 1531 1502 1009 881 960 743 580 668 871 1170 1025 321 855 687 713 1213 1260 510 381 1206 699
689 705 909 1084 1139 1292 1436 1541 1569 1553 1507 1535 1399 1070 885 1237 1319 1127 962 1301 1011 899 1053 1034 700 654 787 930 859 785 725 1032 831 0 480 728 784 1429 1422 1273 1321 1018 872
780 735 866 1039 1495 1446 1261 1221 1654 1553 1165 1194 1014 798 944 1126 1221 1409 1340 1121 884 877 827 727 578 895 1157 1296 979 1087 1326 1358 819 37 473 703 1018 1664 1413 1297 1396 1207 1135
531 915 943 1065 1382 1359 1000 1398 1417 1051 527 681 847 764 589 995 1205 1426 1389 1109 1012 1237 183 654 944 995 1121 1732 1574 1375 1012 441 988 1029 465 0 886 1687 1744 1604 1373 928 1253
778 780 1021 978 1320 996 1570 1069 1147 789 733 793 1169 1145 1181 961 1500 815 544 286 1151 637 0 749 1290 1159 1127 726 700 652 415 301 801 1405 785 749 1009 1388 1611 1929 1452 1574 1090
854 1037 1257 1034 1107 1641 998 567 1075 983 1011 998 1354 1224 1038 1690 1062 887 597 911 501 188 820 1109 1223 1009 910 872 591 311 233 60 8 740 985 916 940 1204 1632 1741 1575 1624 1560
812 1082 1224 1378 1222 1648 1120 889 747 1032 618 771 1148 1240 957 1243 1466 840 1525 1503 1236 1045 1165 1193 1000 1183 989 899 672 251 13 18 30 47 1339 867 727 859 1489 1767 1552 1515 1725
336 1018 1420 1453 1616 1375 1121 1324 1627 465 817 547 752 1772 1199 1396 1311 1557 1585 1148 867 1181 1289 1304 1381 936 1150 1077 614 68 0 45 26 150 147 1055 902 795 1102 1197 1652 1546 1314
661 932 1313 1449 1158 1168 1786 1398 1720 1021 675 535 680 1397 1537 1320 1343 1732 1372 1415 1363 1032 1482 1257 796 977 742 714 399 4 13 11 111 28 99 284 899 953 865 1087 928 1161 1292
530 710 1059 869 1501 909 1676 1660 924 771 824 678 1249 843 1460 1567 1768 1794 1854 1086 1121 1143 1197 1097 1315 882 258 77 0 11 0 8 9 49 121 1 522 1082 978 976 651 555 684
727 1012 913 919 1472 1556 1592 1347 1546 1392 1120 951 1009 968 828 1642 1754 1430 1472 1340 1390 1265 938 1223 817 547 51 0 0 9 10 22 4 14 10 171 85 459 1189 711 639 716 917
752 1054 956 1070 1259 1675 1708 1175 2008 1086 1180 1114 1625 884 1454 1565 1606 1486 1543 1393 1561 1196 808 599 437 62 0 0 0 0 5 24 0 55 9 14 0 135 624 986 929 999 861
885 1293 1195 1059 1245 2313 2224 1376 1383 1636 1137 1241 1101 1372 2075 2023 1979 1564 1683 1368 1509 966 587 205 40 0 0 5 0 9 30 13 12 22 0 0 0 0 9 77 871 941 780
894 1085 1518 1416 1741 1577 1858 1737 1404 1312 1307 1138 1366 1704 1937 2095 1925 1259 1340 1461 1393 1081 677 117 1 0 1 15 0 0 18 35 32 2 0 0 0 0 1 0 112 18 620
882 1338 1611 1933 1999 1982 1938 1720 1615 1485 1560 1545 1276 1761 1769 2053 1562 1442 1820 1619 1282 180 88 95 40 10 0 126 3 2 25 31 42 26 4 0 0 0 0 0 0 0 0
905 1397 1790 2029 2014 2492 1793 2026 1579 1374 1539 1179 1193 1278 1709 1972 1775 1703 1575 1700 868 79 384 48 13 0 51 11 18 1 0 0 12 44 43 17 5 0 0 0 0 0 0
967 1461 1801 2371 2332 2459 2324 1875 1920 1578 1134 1073 434 724 2005 1811 1533 2005 1636 1003 539 0 121 158 39 1 124 2 0 43 25 0 0 0 0 21 33 32 10 0 0 0 0
979 1550 1566 2587 2713 2626 2915 1965 2180 1574 1188 1375 1136 1572 1737 2033 1449 1194 1087 873 283 1 308 143 73 88 0 38 0 4 21 6 8 18 13 2 0 22 41 10 8 2 0

GFSSE_con_mlcape_015.txt.gz
CAPE
7 10 19 47 179 363 708 1362 1282 1436 1441 1344 1676 1552 1543 1477 1481 1694 1718 1761 1514 1631 1664 1573 1459 1401 1460 1426 1307 1102 1420 1101 1182 851 987 690 452 716 614 680 1196 1160 716
2 29 78 109 425 722 1080 1351 1437 1288 1508 1494 1573 1625 1691 1488 1560 1824 1822 1797 1505 1677 1620 1641 1584 1462 1361 1334 1204 1098 1014 1216 1172 1151 927 580 620 861 605 718 1028 648 385
52 99 180 499 919 1114 1212 1319 1293 1335 1624 1656 1537 1438 1525 1600 1761 1958 1930 1827 1713 1631 1528 1568 1630 1729 1549 1297 1193 802 760 734 765 767 871 518 909 971 1167 1001 1085 737 748
32 81 351 786 793 1076 1270 1326 1297 1281 1451 1445 1558 1545 1627 1680 1813 1723 1679 1672 1574 1504 1499 1607 1583 1638 1732 1538 1316 838 802 748 812 878 669 521 710 812 1154 1244 1122 645 515
33 111 486 623 601 882 827 1155 1204 1285 1255 1278 1365 1831 1805 1704 1710 1631 1603 1554 1467 1502 1563 1603 1656 1653 1684 1561 1195 1045 865 882 838 922 627 267 628 1032 1197 939 1044 1016 1199
86 297 776 596 633 845 985 1089 1122 1089 1226 1191 1386 1811 1676 1480 1637 1425 1389 1360 1329 1511 1714 1694 1621 1483 1513 1542 1149 996 945 1084 772 712 388 276 468 933 961 775 1230 1122 993
132 430 840 1137 1238 1173 974 1218 1206 1220 1189 1223 1513 1681 1627 1430 1614 1363 1269 1133 1270 1544 1756 1624 1218 1356 847 1042 1062 950 998 1071 217 547 409 170 1016 1296 1406 1200 995 1028 1115
122 379 743 1137 1413 1379 1269 1449 1569 1611 1301 1233 1623 1487 1449 1295 1268 1158 1033 1109 1379 1628 1632 1366 1105 1023 865 669 664 767 924 509 0 28 217 296 957 946 1137 942 997 1088 1095
148 261 722 1024 1376 1485 1717 1687 1653 1685 1453 1484 1614 1456 1234 1107 1235 999 947 910 1065 1128 1212 1222 965 930 917 906 854 887 845 364 0 1 0 157 649 897 375 881 1069 989 1138
246 394 477 918 1239 1555 1449 1558 1582 1708 1741 1583 1602 1331 795 906 996 1127 966 1116 937 623 818 1121 1084 970 951 1187 1152 1050 965 886 134 6 0 115 344 1439 742 614 1022 911 866
520 567 657 761 1028 1264 1039 1445 1550 1496 1266 1346 1249 802 449 833 1054 1009 686 1136 1251 1059 1263 814 1053 851 1122 1427 1623 1006 841 156 0 0 0 285 519 1283 1386 1347 1198 1038 957
635 763 835 851 870 1012 1070 1434 1120 913 557 509 460 281 465 419 765 1223 769 552 843 748 373 23 761 977 1272 1165 1274 1110 738 537 156 192 388 684 802 1378 1524 1234 1351 1213 1175
583 751 949 1111 1145 882 886 635 763 636 312 376 654 830 561 864 860 746 283 683 592 0 1 481 681 1158 1095 716 525 250 111 687 816 654 148 400 773 1422 1741 1395 1467 991 1334
567 827 833 1044 1043 997 1056 618 472 669 389 446 672 961 1456 975 615 335 420 731 570 4 246 560 504 875 1205 647 378 273 7 0 818 778 587 521 762 1178 1843 1652 1555 1450 1075
720 814 821 1134 837 1280 956 307 664 677 623 659 797 1126 905 926 706 368 623 795 521 89 652 746 935 898 776 930 828 186 1 2 12 600 731 744 868 1134 1593 1501 1557 1647 1549
857 837 780 658 683 1085 921 863 893 1012 884 926 1169 1174 831 1291 1230 1190 1294 1063 1062 930 1182 1228 750 619 652 610 649 681 7 20 16 99 652 696 629 591 936 1418 1529 1485 1615
839 910 864 662 1043 872 1048 956 1238 688 333 175 863 1125 1008 1263 1023 1366 1102 1318 843 1289 1278 836 918 906 194 203 6 24 0 9 12 0 23 371 710 576 687 904 1079 1061 1326
812 1022 1125 958 974 694 993 1497 1258 882 747 604 1165 1215 1114 1146 1283 1438 1118 869 813 895 792 996 923 864 153 0 0 1 0 9 19 18 28 259 670 698 614 517 509 507 658
606 1036 1094 1025 813 793 934 1421 1005 645 912 803 1018 1042 1679 1435 1301 712 1178 1164 768 1085 866 859 505 279 4 0 0 0 3 2 20 35 58 17 148 621 702 486 367 408 736
761 980 1016 1204 972 682 840 989 879 530 843 1086 1019 731 899 1213 1384 1014 1065 1239 1186 1103 663 352 206 9 0 0 0 0 0 1 0 21 10 0 87 736 741 609 572 683 684
659 702 822 946 1270 1019 916 1009 572 666 1052 896 807 941 925 1040 1114 1349 1240 1033 1333 953 482 234 16 0 0 0 0 3 4 24 5 0 0 0 0 1 408 444 733 746 587
690 704 600 615 1657 1412 1246 1004 777 1445 1501 976 487 606 1161 1114 1533 1209 769 766 996 1071 356 10 0 0 0 1 0 0 12 12 26 0 0 0 0 0 12 0 2 359 365
610 781 709 540 1162 1726 1561 1158 1044 1138 1325 1589 1113 1527 1554 1733 1365 1039 1138 1010 924 349 182 0 0 0 0 8 0 0 6 7 20 1 4 0 0 0 0 0 0 0 243
610 901 916 845 902 1476 1772 1430 1106 791 524 990 1277 1145 1496 1681 1398 1216 1335 1209 737 41 0 0 23 0 9 0 0 0 0 0 10 21 9 0 5 0 0 0 0 0 0
553 798 1184 1078 1087 1307 1546 1414 1196 863 590 1058 1253 1385 1623 1812 1519 1484 1291 1208 499 2 89 58 20 1 41 11 0 0 0 0 2 0 16 23 25 9 3 0 0 0 0
748 1050 1359 1420 1314 1649 1428 1609 1301 1071 1027 1088 912 1040 1280 1538 1049 1294 1217 837 316 0 34 62 63 23 58 21 0 0 0 0 0 0 0 0 6 16 13 15 3 0 0

GFSSE_con_mlcape_018.txt.gz
CAPE
20 11 40 91 291 1125 1281 1587 1594 1352 1307 1252 1141 1236 1306 1601 1412 1358 1637 1662 1720 1666 1596 1555 1559 1612 1312 1142 1373 1156 1097 1287 981 951 536 582 859 912 1151 1113 1241 668 437
9 3 45 219 477 1291 1360 1376 1273 1348 1177 1175 1314 1234 1275 1521 1485 1703 1581 1600 1729 1677 1722 1708 1595 1521 1457 1241 1172 1181 1084 1042 1047 982 592 477 651 662 1023 1152 852 281 379
5 24 69 443 964 1252 1370 1321 1439 1386 1143 1661 1666 1385 1639 1669 1900 1887 1775 1752 1714 1597 1574 1627 1903 1706 1498 1309 1228 1047 884 665 741 1018 659 682 847 717 1267 1062 483 966 940
5 143 444 898 1036 1240 1279 1413 1614 1503 1519 1600 1520 1633 1607 1805 1827 1697 1692 1614 1563 1588 1663 1650 1649 1808 1778 1430 1303 1094 940 805 774 963 487 641 544 1119 1029 1046 741 753 799
24 336 731 1069 1076 1216 1357 1497 1544 1453 1391 1637 1659 1363 1469 1667 1681 1621 1546 1485 1539 1610 1640 1689 1691 1705 1749 1470 1202 640 621 840 764 1257 621 554 786 1262 1069 1076 487 944 1126
48 369 887 1052 987 1146 1354 1466 1366 1203 1157 1590 1818 1466 1634 1772 1626 1451 1370 1344 1498 1684 1756 1560 1469 1252 1406 1563 1217 751 937 914 652 555 359 704 882 1020 823 1104 971 1046 1133
92 544 766 900 903 1140 1313 1360 1316 1065 1113 1443 1688 1584 1519 1721 1550 1380 1139 1152 1413 1555 1765 1391 1166 1239 1006 1238 883 1253 1023 331 539 317 433 460 945 1171 1082 1331 1098 982 486
129 711 870 932 1044 1183 1210 1337 1183 1080 1118 1514 1465 1605 1414 1622 1398 1105 1080 1188 1413 1714 1602 1307 1102 1118 1235 968 855 1076 442 470 401 326 241 437 1310 1513 1373 1194 940 1132 439
331 665 1123 1268 1129 1138 1489 1474 1359 1244 1213 1270 1453 1351 1336 1250 1141 990 894 1063 1248 1429 1464 1255 980 998 983 709 732 891 596 13 0 29 158 26 995 1432 1132 1097 1062 1115 661
263 530 831 1210 1301 1481 1580 1776 1772 1552 1352 1219 1343 1219 1131 1032 905 1122 1068 1155 1280 1105 1214 1189 987 980 980 1146 1123 1145 603 344 0 0 0 52 771 515 883 1123 1110 1174 976
165 381 624 974 1309 1345 1413 1524 1610 1693 1529 1284 1193 1012 571 637 976 1017 861 992 1159 1177 337 198 790 989 1129 1191 1170 953 1258 529 33 0 15 124 539 1194 742 1028 1150 737 1188
201 248 473 794 981 1183 1177 1273 1275 1231 1183 891 695 399 535 595 789 1165 963 563 881 716 230 328 829 1319 1123 629 527 483 533 135 76 0 0 212 695 1545 1242 1271 1098 1002 1140
384 400 436 561 855 824 564 974 754 557 268 179 127 112 252 722 913 814 581 661 495 0 0 375 615 735 995 777 314 81 300 106 184 142 259 572 931 1420 1636 1288 1396 1150 1196
531 613 555 482 457 401 228 633 280 149 34 45 252 591 509 659 704 604 267 451 542 73 355 416 542 810 921 562 107 68 66 385 234 458 154 568 744 1058 1328 1481 1453 1166 1358
593 698 686 743 502 320 209 156 119 166 125 156 295 595 783 756 528 344 521 642 557 290 330 584 822 923 959 854 851 309 10 42 422 544 273 445 415 926 1124 1686 1530 1393 1211
586 651 792 777 792 595 751 389 75 313 341 290 407 608 864 781 607 366 543 858 758 668 328 1012 787 565 525 214 189 389 374 23 178 379 428 603 462 673 1002 1157 1160 1398 1622
588 708 737 816 836 779 926 708 187 513 660 561 588 846 981 1052 921 914 1032 980 830 1039 1125 628 801 682 50 5 0 20 16 15 19 68 241 363 532 549 483 910 917 975 1079
569 681 717 914 832 877 903 439 1115 986 473 551 761 945 975 1005 1065 999 907 524 787 786 823 725 683 623 62 1 0 0 5 25 27 12 34 148 640 535 491 325 475 589 751
606 691 659 829 661 584 729 890 947 781 677 832 906 916 916 881 1087 1095 755 686 715 878 675 723 493 272 2 0 0 0 8 17 31 42 34 222 502 652 504 453 334 543 669
614 731 757 535 484 613 708 1214 772 771 579 784 766 867 1001 1121 1187 686 754 906 699 877 731 466 156 0 0 0 0 0 6 1 22 20 0 134 520 656 532 441 509 527 689
584 707 858 692 580 642 567 927 673 502 502 591 924 720 1187 1257 1231 740 709 1084 1056 881 434 185 4 0 0 0 0 0 7 9 4 0 0 148 92 235 509 382 782 819 641
522 814 888 752 623 560 691 765 658 391 446 413 757 735 780 805 1023 819 898 958 922 681 257 19 0 0 0 0 0 0 0 13 0 0 0 23 16 23 4 15 143 356 224
561 650 785 801 769 641 669 663 635 581 636 862 964 790 762 851 1010 937 1092 732 612 771 457 27 0 0 0 0 0 0 0 0 16 0 0 0 0 0 1 0 23 99 54
487 608 645 913 1002 942 956 772 811 435 793 1094 1176 999 872 1085 1057 1228 806 755 284 413 169 0 0 0 0 0 0 0 0 0 0 0 0 0 0 0 0 0 0 7 18
431 507 543 698 1128 1148 1146 977 889 656 739 791 953 1167 1302 1345 1220 1142 938 865 377 105 0 0 0 0 9 0 0 0 0 0 0 0 0 0 0 0 0 0 0 0 15
320 535 522 489 1048 1228 1255 1177 945 831 761 602 424 802 1231 1421 1431 1146 1056 993 289 107 25 9 0 0 15 11 0 0 0 0 0 0 0 0 0 0 0 0 0 0 0

GFSSE_con_mlcape_021.txt.gz
CAPE
6 2 16 311 403 1004 1358 1466 1601 1558 1338 1182 1190 1249 1372 1266 1447 1647 1746 1677 1659 1654 1630 1667 1645 1135 1164 1299 1184 1278 1226 1022 864 444 639 954 1057 1086 944 1130 648 654 1309
0 10 125 207 1027 1434 1476 1541 1467 1233 1061 1158 1213 1373 1325 1512 1791 1771 1678 1701 1710 1727 1784 1666 1597 1425 1412 1038 982 1167 840 747 821 495 438 841 578 921 1164 1027 358 395 716
0 14 100 427 1043 1371 1422 1477 1310 1236 1195 1238 1259 1582 1626 1711 1752 1754 1715 1684 1628 1585 1623 1954 1764 1608 1412 1326 1153 937 583 665 1129 617 749 641 556 1196 1182 479 636 881 1079
0 1 210 650 1143 1305 1397 1433 1382 1682 1590 1430 1555 1757 1751 1780 1685 1619 1577 1533 1599 1690 1688 1649 1737 1873 1454 1051 755 691 675 836 1088 658 561 462 827 1286 1047 614 961 874 948
13 56 507 738 1161 1210 1436 1482 1699 1845 1590 1451 1596 1654 1730 1659 1567 1500 1479 1547 1662 1685 1735 1717 1695 1677 1080 1148 738 733 1001 1109 1360 620 431 359 1031 1152 1100 660 621 1057 1053
114 248 692 999 1206 1128 1368 1423 1542 1642 1741 1593 1452 1594 1646 1581 1517 1431 1405 1473 1651 1713 1724 1484 1565 1469 1208 959 994 927 1093 393 823 607 296 646 1004 1014 1140 632 1111 1166 1182
247 656 894 1176 1236 1275 1280 1306 1234 1343 1519 1763 1504 1538 1706 1581 1498 1355 1242 1419 1514 1721 1693 1369 1389 1390 1098 1096 1113 933 1299 842 302 308 426 345 845 789 1139 1258 1242 1059 1176
315 727 940 1123 1190 1288 1313 1325 1245 1147 1330 1584 1612 1572 1698 1606 1361 1293 1316 1436 1630 1592 1560 1322 1215 1118 738 912 1169 939 561 713 227 48 332 380 853 1125 1197 1215 936 416 887
384 551 917 935 998 1182 1263 1278 1277 1104 1151 1454 1514 1529 1513 1348 1212 1121 919 1151 1135 1359 1390 1231 1058 912 837 860 1072 971 566 857 155 194 136 660 1262 1357 1140 970 1137 579 494
410 496 669 844 930 1138 1273 1326 1315 1190 1077 1328 1375 1313 1253 1042 1175 1364 976 1138 1267 975 954 1003 874 983 1018 1063 1060 1234 665 187 0 60 41 178 1271 1374 1011 902 1069 1005 360
333 477 659 809 966 1136 1283 1449 1546 1415 1114 1224 1321 1115 987 899 965 1039 920 874 1183 1217 338 415 678 1032 945 973 1081 1041 1258 467 0 0 0 40 833 799 820 1195 1003 1108 838
214 463 728 924 996 956 1288 1430 1473 1406 1182 1079 919 784 743 549 802 1093 916 841 881 890 115 495 1042 1000 888 521 204 823 1030 601 26 0 2 133 785 1023 1005 1137 1067 1033 1248
186 341 613 921 1121 864 1001 1072 1098 1086 960 724 475 389 461 550 472 1204 624 428 533 0 0 268 539 638 850 471 71 31 297 138 58 0 1 291 628 1509 1312 1262 1234 1092 1306
173 219 427 700 905 854 752 805 675 613 447 158 119 155 100 447 649 927 311 244 393 54 90 376 460 729 638 305 190 0 52 72 155 134 165 519 822 1565 1202 1472 1625 1230 1201
213 222 282 556 570 611 203 371 277 159 140 25 2 115 471 448 437 600 305 171 422 244 203 317 555 780 854 683 442 346 15 107 330 307 167 430 557 938 1220 1109 1638 1247 1233
404 350 380 400 364 371 58 35 64 129 79 9 11 296 609 674 511 293 270 482 627 612 283 530 695 585 410 139 128 189 210 19 106 444 338 214 373 495 952 892 1160 1409 1292
472 526 496 332 312 175 2 0 0 3 106 37 148 368 490 711 704 433 329 768 767 781 696 497 548 522 10 0 8 6 6 6 58 336 248 335 468 384 540 888 850 885 946
451 533 577 609 459 185 121 90 166 97 110 313 446 436 640 739 813 610 749 869 539 894 719 600 668 490 66 1 4 0 0 13 17 38 151 241 347 403 208 331 604 574 670
420 515 583 724 544 537 420 582 619 495 471 491 517 632 773 857 965 838 819 551 611 621 595 642 475 302 11 0 0 0 5 6 12 19 24 245 345 472 337 431 171 509 691
420 512 551 688 658 619 558 730 653 797 598 351 535 686 795 946 1027 939 812 635 571 736 635 505 394 0 0 0 0 0 6 0 30 30 15 155 353 534 474 324 501 455 450
344 484 467 627 670 635 589 703 511 552 621 651 690 737 841 899 897 919 572 766 574 708 654 356 92 0 0 0 0 0 5 0 5 0 45 130 230 421 367 399 436 583 620
223 375 461 507 551 617 485 677 713 628 605 563 634 658 851 948 990 943 597 734 827 877 483 204 1 0 0 0 0 0 0 0 0 0 16 39 34 128 83 0 449 606 322
281 403 472 479 513 463 406 547 702 651 560 510 392 676 609 973 1133 1053 762 708 850 670 435 87 3 0 0 0 0 0 0 0 0 0 3 19 17 20 5 2 68 183 56
312 407 494 539 529 418 343 443 435 500 404 378 380 480 744 756 761 857 866 849 698 566 335 149 1 0 0 0 0 0 0 0 0 0 0 0 0 0 0 0 1 24 28
251 424 566 573 521 492 367 447 436 418 274 323 397 534 898 871 655 799 837 855 398 406 491 149 4 0 0 0 0 0 0 0 0 0 0 0 0 0 0 0 0 0 29
255 423 570 568 563 559 460 489 512 527 363 348 391 724 979 1131 1104 1037 894 843 518 103 113 44 0 0 0 0 0 0 0 0 0 0 0 0 0 0 0 0 0 0 1

GFSSE_con_mlcape_024.txt.gz
CAPE
0 26 116 129 597 925 1212 1173 1577 1584 1349 1164 1346 1784 1576 1460 1621 1739 1657 1625 1612 1610 1715 1697 1284 1363 1280 1061 1384 996 944 768 455 635 786 1255 1212 955 1074 704 1001 1227 1491
0 36 73 97 541 1179 1411 1470 1398 1346 1220 1326 1596 1460 1644 1692 1645 1604 1637 1679 1716 1663 1545 1564 1448 1445 1167 1118 1159 1247 1094 941 389 610 888 935 1036 982 1140 398 476 1095 1278
0 46 102 307 1139 1277 1370 1307 1259 1305 1358 1506 1509 1522 1578 1583 1634 1657 1617 1543 1444 1477 1558 1634 1530 1423 1146 1094 981 878 845 947 622 838 930 572 907 1121 626 290 442 598 875
1 62 97 359 1252 1324 1281 1294 1420 1384 1422 1578 1564 1650 1737 1624 1566 1538 1494 1530 1557 1595 1593 1416 1380 1390 1088 1057 930 629 795 1010 804 880 586 566 992 1135 495 1252 962 1122 1169
1 82 157 869 1189 1280 1240 1667 1773 1526 1512 1621 1681 1746 1609 1561 1476 1424 1494 1624 1604 1648 1666 1553 1525 1160 1253 938 784 813 1040 1189 1200 461 334 840 1016 1089 793 864 953 1017 1066
6 126 703 1162 1286 1230 1401 1801 1784 1511 1380 1532 1576 1588 1608 1535 1417 1429 1515 1625 1742 1795 1522 1463 1411 1383 1150 973 943 1078 729 606 606 307 221 1108 1099 1209 463 913 1366 1310 1160
72 325 894 1124 1232 1296 1457 1664 1647 1627 1559 1553 1576 1688 1647 1523 1412 1304 1365 1584 1781 1786 1534 1398 1382 1244 1126 1135 1006 1190 820 847 588 303 348 869 903 1092 968 1168 1189 1215 1234
159 550 1040 1134 1230 1288 1335 1284 1369 1578 1747 1540 1420 1643 1638 1528 1409 1333 1346 1577 1714 1696 1537 1185 1151 1080 942 1114 1052 1089 973 583 37 394 292 749 812 1169 1224 1240 928 1106 1223
485 580 850 1038 1278 1317 1283 1246 1152 1333 1581 1596 1526 1382 1585 1578 1310 1175 1098 1332 1330 1539 1332 1061 1098 933 920 1040 1173 884 1068 1141 124 276 299 684 1146 1438 1364 899 637 505 1109
420 540 658 844 1037 1161 1281 1339 1210 1102 1294 1432 1478 1491 1568 1501 1390 1450 1001 1139 1288 1159 753 1035 913 906 908 1029 1092 1501 851 679 32 122 108 729 1234 1524 1323 744 1243 293 1238
403 516 653 623 812 977 1025 1183 1316 1224 1145 1260 1410 1345 1279 1103 974 1091 1049 870 1185 1098 602 591 915 863 701 764 1190 988 1224 389 0 1 0 261 1225 1212 1084 823 854 479 719
100 324 467 554 614 874 1025 1076 1221 1183 1146 1008 1059 1031 1188 720 754 1162 1123 981 963 1084 3 732 1125 981 802 454 44 1030 1137 594 0 0 0 45 1021 1104 909 1310 967 1073 807
81 244 445 498 688 766 861 994 1333 1127 1078 876 766 774 686 505 411 924 837 423 562 16 0 292 426 691 684 126 0 21 403 417 27 0 0 112 784 1258 1111 1156 1063 1074 1066
93 178 388 560 625 711 720 828 1044 895 867 604 457 431 228 428 596 847 576 306 270 130 44 390 497 761 586 251 16 0 10 28 51 41 20 297 466 839 1091 1317 1202 1260 1255
108 212 370 634 723 690 419 670 693 547 532 323 208 158 94 125 279 576 560 172 297 309 204 275 558 714 871 608 364 53 8 21 72 156 152 317 501 793 1042 983 1684 1343 1075
90 152 282 434 654 752 517 417 236 282 232 153 61 0 96 440 474 446 333 279 412 496 384 396 601 602 398 31 47 227 127 30 40 196 292 48 409 440 834 1147 894 1476 1238
95 103 170 256 400 481 432 184 8 101 94 48 1 0 168 525 616 568 235 292 651 664 664 329 553 635 0 0 2 7 0 16 26 121 298 221 269 356 436 616 833 668 1017
187 175 200 187 265 268 148 66 0 0 0 0 9 72 313 408 518 670 482 493 758 676 707 466 564 632 172 3 4 0 0 18 20 108 178 232 313 356 243 191 435 556 730
258 340 352 321 264 187 68 0 0 0 0 0 74 210 390 481 614 607 601 682 637 648 599 589 476 268 21 0 2 0 2 5 20 18 26 85 161 398 293 232 173 356 660
242 338 414 456 316 210 78 0 0 45 220 187 160 337 517 627 715 752 740 732 432 616 506 424 362 13 0 0 0 0 0 4 10 23 25 71 315 507 464 443 486 438 340
224 312 374 464 438 405 175 63 41 364 557 658 424 388 520 619 733 840 725 687 484 503 588 393 124 0 0 0 0 0 0 0 0 0 41 176 302 432 335 323 437 494 700
194 258 338 377 481 506 336 355 370 492 492 662 458 542 628 647 775 831 693 647 523 561 548 301 64 0 0 0 0 0 0 0 0 0 33 41 82 183 191 6 405 674 468
108 210 279 356 436 523 477 425 397 420 396 431 561 566 521 691 801 818 685 653 600 672 622 326 56 0 0 0 0 0 0 0 0 0 2 12 26 26 9 11 93 262 108
39 89 209 261 391 435 478 404 306 359 378 357 552 505 512 638 775 822 878 790 641 703 480 285 29 0 0 0 0 0 0 0 0 0 0 0 0 0 0 0 20 45 43
95 48 120 175 241 334 413 438 327 331 426 352 416 427 406 470 617 883 991 840 727 691 471 201 75 0 0 0 0 0 0 0 0 0 0 0 0 0 0 0 0 16 47
123 117 170 231 236 316 341 420 321 245 225 245 324 302 279 413 575 675 695 690 701 518 365 265 131 0 0 0 0 0 0 0 0 0 0 0 0 0 0 0 0 0 0

GFSSE_con_mlcape_027.txt.gz
CAPE
47 75 177 409 392 502 775 1016 1528 1684 1587 1424 1535 1835 1660 1556 1627 1605 1624 1628 1618 1694 1674 1464 1673 1502 1250 1418 1033 1037 806 550 732 828 1261 1179 885 837 1063 1298 1041 966 1505
92 76 219 511 610 851 914 1533 1513 1516 1474 1687 1520 1511 1628 1617 1580 1625 1669 1858 1855 1637 1561 1530 1520 1320 1254 1413 1317 1224 1087 552 525 998 996 1134 1028 1166 552 840 1154 1273 1409
28 87 156 479 1069 1262 1398 1461 1288 1371 1589 1444 1566 1697 1584 1588 1635 1630 1576 1439 1559 1695 1625 1576 1527 1444 1284 1193 1127 881 1135 738 652 1063 815 616 756 951 296 386 1071 1272 1216
40 47 207 894 1267 1367 1447 1365 1389 1452 1515 1454 1628 1584 1581 1606 1593 1520 1535 1544 1462 1236 1434 1462 1488 1289 1241 911 841 929 1097 988 816 1008 655 631 688 491 944 688 1124 929 828
42 162 355 1137 1287 1313 1416 1444 1513 1545 1574 1661 1695 1656 1569 1480 1424 1479 1591 1453 1531 1706 1562 1638 1363 1287 1218 1015 1005 543 1142 1299 800 373 880 935 749 597 1132 1095 1151 1203 679
68 176 808 1283 1239 1332 1563 1602 1563 1568 1628 1656 1725 1579 1508 1383 1417 1533 1615 1666 1647 1657 1481 1492 1478 1376 1115 1043 607 600 554 744 730 296 715 891 875 754 756 1088 998 1130 983
73 290 874 1266 1294 1468 1754 1674 1526 1458 1556 1681 1695 1659 1582 1415 1367 1412 1588 1712 1631 1625 1474 1421 1217 1114 1161 1091 1006 1091 876 343 842 518 722 990 953 580 1227 1443 1197 1258 1261
126 380 768 1196 1284 1476 1673 1646 1558 1485 1575 1662 1746 1748 1642 1524 1438 1448 1575 1747 1720 1599 1354 1239 1066 897 1059 1176 957 878 1031 523 700 784 642 962 822 1012 1319 1221 1248 1294 1268
220 413 554 849 1133 1383 1473 1479 1535 1602 1608 1624 1609 1742 1734 1503 1313 1194 1303 1431 1542 1530 1308 1188 1002 963 995 1269 1076 1122 1263 383 547 745 391 863 833 1040 1335 865 991 1305 956
328 439 524 606 746 806 980 1242 1301 1423 1562 1673 1544 1379 1505 1400 1444 1533 972 1364 1279 1081 1013 1160 966 737 812 1055 1353 1215 1260 563 448 520 671 792 1267 1441 993 1211 315 923 615
422 453 427 550 964 1160 1042 1046 1198 1191 1422 1551 1323 1216 1131 1383 1494 1429 1168 1072 1401 1019 953 822 879 873 818 772 1003 1217 1237 937 188 128 248 688 1194 1482 1078 1171 847 928 417
338 474 398 373 651 869 753 1121 1222 994 698 900 1032 1398 1469 1488 1373 1508 1421 1178 1359 573 52 831 867 1027 937 619 142 1108 1247 1115 237 78 94 232 974 1272 1032 863 1275 395 722
154 233 389 428 709 675 529 816 1023 943 982 939 1283 1302 1309 1275 1050 1357 1479 1079 1234 104 248 968 1126 1288 1038 274 60 60 1146 1151 418 161 41 45 597 1024 1046 1291 954 1113 1042
144 157 254 359 611 713 706 687 901 936 907 817 802 1132 1001 1006 1272 1381 1474 1036 976 867 703 1132 1243 1326 1167 845 256 75 236 367 370 372 135 93 351 662 972 1232 1271 981 1259
118 132 273 428 641 753 854 728 861 1127 837 752 843 679 676 582 759 1133 1361 1004 868 1134 909 1025 705 1357 1256 798 525 301 278 436 530 574 525 244 427 676 793 973 1289 1441 988
120 152 287 470 604 752 739 796 843 1081 877 908 528 356 393 572 1015 1106 1095 986 969 1269 1281 1018 1249 1245 184 64 146 699 624 255 437 715 628 324 255 479 574 702 826 1366 1104
175 271 392 556 695 892 839 669 788 792 623 453 314 254 159 560 1151 1306 1150 856 1183 1484 1403 1006 1143 1096 280 3 18 57 106 42 139 608 717 548 394 272 439 547 578 697 1237
239 286 437 426 593 810 896 847 680 517 393 234 208 154 149 358 1081 1248 1201 1107 1359 1384 1377 1169 697 652 795 9 19 32 36 53 98 486 603 690 711 437 162 140 242 322 672
391 295 297 453 471 632 778 719 618 334 252 165 216 246 310 497 997 1097 1271 1386 1486 1406 1387 1056 1127 861 228 6 27 25 39 49 35 89 208 539 741 743 547 135 177 200 655
440 496 388 432 460 562 617 571 406 243 34 100 123 209 603 864 1078 1194 1313 1426 1369 1095 1168 1103 942 397 0 3 0 0 14 87 153 141 208 428 954 1040 840 888 790 576 265
432 528 558 589 600 562 481 278 123 5 47 288 597 644 764 1001 1182 1353 1337 1472 1340 1089 1232 1034 733 247 9 0 0 1 7 31 25 40 462 259 726 778 714 857 820 793 760
466 533 609 646 785 643 580 398 195 87 150 745 1169 1253 1108 1083 1207 1427 1393 1436 1332 1177 1024 1074 546 102 4 0 2 4 1 0 2 1 305 204 385 151 37 47 865 1153 783
461 523 542 622 842 814 600 656 534 628 744 908 1188 1161 1002 1222 1307 1359 1506 1429 1372 1245 1298 1211 550 141 19 36 0 9 0 0 3 0 43 117 128 47 11 50 231 552 600
465 494 546 642 814 945 942 788 573 358 272 643 922 1158 1192 1200 1299 1385 1540 1395 1311 1360 1326 1228 522 196 8 2 0 0 0 25 0 0 0 19 19 18 20 12 41 88 236
359 394 501 606 739 854 1004 883 818 678 641 825 898 981 1164 1217 1230 1412 1557 1406 1402 1415 1374 1071 466 249 74 0 0 0 0 0 0 0 0 0 0 5 6 15 21 63 125
386 278 427 606 576 771 873 891 875 910 790 783 861 797 877 1085 1141 1191 1544 1618 1714 1482 1366 1230 631 445 179 6 31 3 0 0 0 0 0 0 0 0 0 0 4 19 28

GFSSE_con_mlcape_030.txt.gz
CAPE
0 49 268 239 618 863 1186 929 1674 1622 1471 1471 1704 1829 1550 1654 1623 1575 1440 1266 1281 1532 1539 1475 1497 1284 1511 1108 1161 892 594 703 802 1267 1276 1111 1186 1314 1332 1206 1164 840 1625
105 190 168 413 686 965 705 1576 1789 1599 1424 1778 1760 1534 1634 1589 1622 1706 1539 1627 1603 1528 1583 1582 1425 1329 1538 1510 1424 1309 695 560 957 1195 1139 1063 1204 878 1178 1325 1224 1321 1563
42 231 388 726 811 786 1509 1749 1807 1587 1671 1637 1656 1692 1590 1617 1655 1580 1425 1583 1718 1665 1632 1615 1539 1356 1300 1416 1175 1300 1017 720 1149 954 974 497 728 581 521 1317 1493 1399 1484
165 149 530 852 1074 1447 1622 1671 1647 1564 1580 1750 1762 1682 1699 1704 1595 1535 1576 1690 1327 1613 1575 1505 1415 1375 1338 1094 1051 1229 1213 781 1204 549 717 460 167 400 447 1102 1176 1322 1487
10 411 632 1064 1342 1634 1541 1562 1557 1499 1580 1753 1705 1668 1663 1558 1553 1545 1303 1601 1668 1616 1706 1556 1253 1321 1112 798 756 955 1054 882 566 745 778 714 184 852 1082 764 1206 914 744
264 413 686 1465 1586 1502 1488 1567 1573 1572 1673 1775 1679 1573 1483 1481 1604 1613 1611 1561 1741 1517 1574 1502 1451 1343 1162 885 789 730 660 673 622 266 794 723 429 964 1032 876 1180 850 612
290 377 732 1298 1340 1440 1528 1562 1593 1671 1732 1766 1677 1628 1501 1449 1489 1616 1746 1744 1662 1516 1446 1367 1287 1269 1296 1214 1284 901 722 606 844 270 732 965 230 841 836 1213 1250 1168 1166
325 251 466 1152 1350 1614 1659 1592 1550 1605 1737 1795 1798 1693 1611 1495 1517 1606 1754 1749 1659 1452 1377 1256 1130 1151 1310 1187 1226 1074 814 628 922 321 507 811 572 1199 1299 1382 1378 1328 1247
296 126 222 394 1121 1578 1637 1620 1581 1639 1721 1818 1852 1748 1562 1419 1372 1374 1527 1547 1618 1514 1500 1378 1235 1180 1242 1209 1175 1367 541 274 977 605 473 412 716 1165 1314 1341 1422 1321 1423
247 122 167 326 607 841 1058 1617 1679 1716 1752 1702 1649 1640 1563 1428 1431 1389 879 1277 1485 1221 1232 1265 1174 1083 1021 1130 1227 1218 1036 361 717 817 378 860 948 1090 1045 535 1259 921 670
235 94 145 262 462 655 563 863 1313 1522 1660 1539 1268 1352 1017 1562 1555 1419 771 1337 1307 1016 920 1002 1000 1043 799 839 880 1248 1286 516 409 356 723 451 1077 1317 1205 944 432 918 292
286 120 80 166 296 496 354 550 610 380 259 606 696 1046 1513 1650 1662 1369 1274 1008 1261 112 454 608 585 752 539 83 79 748 1017 533 250 269 305 391 903 1337 839 1392 754 1186 368
402 150 86 185 370 411 300 582 557 460 415 705 1238 1530 1652 1519 1528 1565 1365 976 1063 85 900 1143 1178 1027 278 77 31 31 167 126 52 70 54 93 417 1198 929 1025 1132 694 718
436 248 135 161 334 368 323 380 411 367 406 270 363 1241 1462 1391 1533 1667 1302 1149 1015 890 1213 1150 866 1010 675 437 98 37 38 59 66 45 77 121 413 605 1195 1273 1094 1166 1183
356 331 298 259 409 388 429 210 165 363 364 203 406 746 1159 1229 1417 1519 1591 1259 1368 1279 1109 1050 775 969 874 768 454 101 69 56 66 79 215 155 386 667 671 1047 1447 1110 1360
242 209 235 307 465 546 541 594 514 658 471 452 225 230 935 1119 1513 1439 1307 1204 1263 1376 1380 1008 919 938 515 279 517 320 40 63 30 43 100 213 249 609 680 835 1099 1425 1290
192 168 195 341 430 626 766 926 859 543 536 327 134 341 748 1173 1717 2031 1343 1240 1236 1681 1155 1168 887 800 352 43 174 31 43 49 50 41 167 323 235 138 622 698 869 900 1354
166 185 298 342 427 682 758 922 617 507 480 166 32 219 695 932 1597 1943 1139 1063 1536 1489 1138 1207 791 536 204 48 27 33 28 60 70 65 134 327 186 313 118 302 368 671 696
253 342 532 569 541 764 994 968 805 591 439 70 29 241 575 967 1330 1856 1620 1485 1959 1435 1315 989 855 729 87 48 44 40 18 46 21 36 43 148 242 154 247 41 139 225 594
560 568 740 785 762 959 1019 1119 799 452 145 55 79 190 499 1051 1268 1857 1597 1266 1210 1255 1136 1064 687 568 185 27 9 1 31 47 57 47 27 43 227 215 248 482 478 251 295
622 714 775 808 901 1076 980 769 475 117 22 5 84 360 848 1439 1780 2107 1601 1354 1633 1279 1064 1037 883 694 86 48 0 14 26 33 32 36 41 31 39 46 32 86 181 289 314
557 659 901 888 1000 1163 1005 828 366 71 35 49 158 689 1386 1627 1977 2084 1800 1426 1579 1384 1449 1486 945 341 87 0 9 23 20 17 18 32 30 24 10 15 0 0 425 433 352
477 691 941 1237 1315 1468 985 883 648 244 172 219 388 1160 1715 1990 1982 2260 1629 1094 1682 1514 1262 1644 1287 728 49 0 43 30 6 17 15 6 35 29 12 16 3 0 2 134 119
520 729 895 1329 1573 1749 1405 825 810 232 86 189 438 902 1238 1754 1854 1988 1943 1772 2213 1599 1602 1631 1414 831 494 0 0 0 33 150 12 18 2 15 6 12 1 4 12 1 0
558 692 910 1310 1665 1710 1805 1121 1131 910 320 221 372 906 1693 1751 1861 1716 2020 2206 2205 2010 1767 2132 1564 1234 578 4 0 0 0 0 0 2 26 17 16 15 11 0 24 34 18
596 761 877 1332 1689 1732 1730 1682 1524 1451 1044 502 732 791 968 1096 1422 1691 1806 2161 2207 2072 2068 2162 1913 1394 979 186 0 5 0 0 0 0 1 0 14 24 18 6 5 20 35

GFSSE_con_mlcape_033.txt.gz
CAPE
0 71 192 706 1061 664 477 1106 1648 1597 1575 1600 1913 1586 1687 1688 1470 1618 1349 1469 1479 1571 1539 1568 1326 1572 1158 1324 1137 563 576 774 1331 1401 1358 1411 1348 1114 1217 1411 1392 972 1634
0 68 436 761 1113 1122 1241 1794 1764 1622 1651 1948 1627 1706 1560 1633 1762 1595 1621 1704 1540 1584 1540 1465 1338 1535 1500 1508 1339 741 628 999 1144 1114 1026 1090 1015 1253 1418 1370 1180 1449 1718
2 109 216 797 1191 1251 1670 1793 1754 1619 1822 1654 1709 1603 1615 1619 1457 1469 1648 1706 1706 1641 1629 1588 1362 1318 1434 1323 1353 1135 797 1250 879 777 690 574 290 535 1398 1298 1544 1607 1616
9 109 156 1018 1130 1561 1792 1820 1727 1636 1656 1805 1655 1637 1597 1578 1547 1628 1697 1500 1711 1645 1541 1449 1402 1364 1162 1089 1292 1314 741 1204 597 399 591 240 0 307 1123 1412 1486 1540 1434
75 447 593 978 1259 1688 1805 1731 1632 1578 1721 1679 1639 1636 1484 1537 1335 1511 1447 1672 1619 1707 1639 1323 1389 1272 1076 914 1013 1037 853 303 478 851 585 645 619 849 862 1098 683 1084 936
299 395 674 1258 1476 1592 1568 1572 1521 1512 1718 1702 1533 1424 1498 1652 1591 1741 1534 1754 1463 1575 1515 1521 1483 1358 1197 1037 924 890 527 429 568 718 788 583 749 770 762 851 1152 735 835
470 608 835 1309 1638 1533 1487 1555 1543 1619 1779 1571 1494 1436 1509 1562 1595 1846 1831 1647 1522 1475 1476 1402 1408 1478 1461 1385 1214 967 520 650 517 511 807 398 402 1091 1299 1328 1088 1116 950
425 169 864 1432 1406 1441 1396 1577 1648 1686 1685 1668 1598 1547 1520 1552 1635 1770 1829 1727 1505 1456 1416 1362 1290 1473 1415 1279 898 824 481 795 557 491 1078 586 894 1376 1331 1390 1319 1252 1211
155 116 521 776 1105 1454 1516 1491 1534 1611 1684 1787 1714 1625 1501 1434 1389 1440 1556 1672 1617 1570 1556 1464 1316 1262 1356 1176 1154 593 144 488 926 272 391 705 1186 1314 1337 1419 1425 1399 1337
168 8 63 282 588 717 827 1372 1461 1582 1672 1803 1798 1721 1578 1438 1251 835 964 1367 1445 1343 1275 1469 1150 942 1098 1097 792 893 444 705 946 174 563 777 721 1288 887 1494 1265 1163 1331
151 9 1 144 411 628 594 1088 1417 1530 1625 1535 1278 1133 1236 1504 1630 1533 1276 1069 1154 976 964 939 797 1031 1030 1104 664 794 1151 853 360 610 842 631 1198 1290 1032 321 1430 473 1094
115 34 28 129 226 368 211 641 604 488 439 714 974 893 1067 1459 1317 1365 725 875 1142 271 546 364 580 938 1090 786 787 881 1016 338 173 547 516 729 1331 1264 1343 643 1189 326 298
158 93 112 143 195 176 218 166 304 155 336 775 1239 1405 1266 1203 1358 710 723 647 939 187 511 780 826 1193 102 234 49 578 280 246 89 195 79 401 988 1354 936 1436 936 943 361
296 90 106 184 204 154 323 195 213 181 285 320 727 1586 1517 1230 1155 1116 1210 1129 1074 814 1100 835 869 887 928 413 28 30 43 42 43 264 8 114 323 1000 966 1147 1143 994 936
299 146 105 191 394 375 458 185 249 188 162 142 481 1119 1213 1187 1154 1268 1240 1159 1141 1078 1144 960 795 815 722 306 567 573 42 1 34 330 39 54 376 624 1020 1275 1232 1157 1251
348 199 174 203 407 580 509 471 214 263 305 228 198 525 1349 1187 1230 1227 1067 1087 897 1314 963 1027 1023 854 673 281 41 178 28 47 5 97 167 126 186 471 797 874 1375 1385 1183
392 277 272 315 476 559 620 713 598 406 330 216 238 372 1014 1239 1617 1586 1285 954 1127 1522 1303 1174 1104 1060 180 69 25 6 10 20 16 1 375 195 119 417 482 889 1007 1367 1525
351 366 342 293 435 649 623 780 666 430 320 252 116 231 867 1297 1894 1967 1418 977 1395 1316 716 879 409 249 235 20 29 32 36 15 41 0 78 271 331 140 468 424 737 1019 1010
382 367 341 333 293 546 816 883 803 571 442 235 62 82 951 1132 1468 2037 1094 982 1602 1295 789 389 442 258 16 27 24 38 29 9 27 22 7 9 173 261 156 148 127 394 831
340 373 506 501 681 905 936 1139 798 487 447 211 33 43 1050 1170 1404 1923 1576 1622 1293 1292 957 963 675 91 97 4 15 1 33 44 39 48 11 93 38 10 205 479 211 201 813
292 400 643 801 998 1083 1023 850 630 400 352 70 22 108 547 982 1451 1896 1779 1870 1341 1458 1302 1003 884 404 148 3 3 13 24 17 22 30 39 34 29 9 4 31 501 353 130
475 699 1053 1229 1549 1429 1154 1074 679 522 101 15 0 299 567 1155 1598 2019 1889 1462 1625 1200 1331 1573 935 645 8 0 55 19 18 10 23 31 20 12 18 13 4 6 18 543 396
501 929 1238 1504 1702 1644 1359 1298 1008 588 260 44 49 219 803 1515 1704 2297 1979 1313 1701 1736 1435 1725 1161 430 133 0 24 65 24 13 3 0 5 21 1 5 1 0 9 19 125
414 749 1318 1743 1813 1867 1732 1099 945 476 136 58 134 146 778 1663 1680 1984 1425 1359 1828 1400 1429 1770 1327 953 189 0 0 0 108 214 101 6 7 8 10 5 0 23 11 0 8
345 560 1009 1839 1990 1769 1845 1453 1035 816 136 120 139 325 811 1756 1822 1520 2001 1494 1821 2098 1499 1437 1745 1470 523 66 0 0 0 0 0 20 7 11 0 8 26 0 51 30 13
307 462 935 1776 2200 2215 2314 1664 1825 977 660 228 190 391 729 933 1697 2011 1788 2285 2041 2161 1691 2126 2162 1891 1305 183 0 0 0 0 2 0 4 14 19 14 13 19 5 14 31

GFSSE_con_mlcape_036.txt.gz
CAPE
0 116 352 976 1328 985 1311 1500 1387 1442 1473 1603 1462 1548 1456 1538 1510 1433 1557 1598 1620 1578 1553 1402 1404 1139 1368 1389 505 381 681 1218 1305 1217 1214 1193 1180 1318 1464 1388 1148 1393 1732
12 139 482 1058 869 837 1605 1477 1449 1488 1619 1268 1541 1498 1671 1708 1510 1711 1627 1565 1554 1560 1413 1260 1444 1480 1488 1326 763 807 1018 1089 1171 1168 996 996 1226 1346 1296 1180 1185 1558 1462
17 154 471 966 1129 1417 1652 1409 1450 1685 1342 1535 1448 1413 1654 1367 1514 1634 1542 1582 1583 1630 1550 1324 1336 1448 1353 1352 1157 630 1246 1079 659 468 619 392 466 1261 960 990 1540 1665 1328
0 54 272 889 1235 1549 1481 1408 1488 1448 1764 1353 1507 1418 1447 1541 1617 1566 1515 1652 1544 1479 1450 1404 1362 1188 1100 1268 1367 592 820 767 518 428 593 365 15 933 786 1247 927 1460 1477
0 6 713 985 1291 1361 1331 1528 1396 1621 1547 1421 1524 1365 1405 1369 1498 1445 1598 1505 1601 1544 1288 1364 1300 1134 1008 1045 1076 575 226 480 687 839 762 527 106 731 899 848 1116 1126 1154
22 292 713 979 1496 1604 1564 1493 1484 1578 1542 1529 1392 1422 1665 1639 1653 1553 1662 1404 1505 1481 1531 1531 1450 1348 1123 1068 990 488 373 522 817 362 804 729 610 932 997 1353 985 1059 1114
327 720 625 1324 1593 1568 1450 1434 1495 1652 1535 1408 1352 1496 1538 1585 1802 1805 1558 1480 1454 1477 1424 1468 1553 1497 1407 1217 908 549 518 845 368 718 262 846 1187 1247 1241 898 813 795 1184
450 587 865 1430 1576 1407 1415 1507 1562 1722 1452 1472 1415 1466 1499 1642 1857 1851 1684 1493 1439 1406 1371 1290 1390 1332 1191 889 737 434 495 907 677 1281 590 806 1117 1320 1306 1302 1156 1109 1111
225 565 845 1317 1439 1401 1466 1590 1602 1560 1555 1631 1529 1526 1514 1461 1507 1588 1699 1626 1518 1519 1441 1199 1164 1313 1147 930 482 410 622 673 501 983 816 1117 1388 1403 1449 1416 1361 1286 1236
21 275 661 1030 868 812 1134 1425 1441 1472 1629 1691 1642 1588 1537 1449 1308 1159 1209 1582 1461 1321 1104 1175 1129 1102 1361 1009 942 532 484 864 733 993 916 855 1165 1150 1439 1324 1352 1369 1410
154 116 235 261 607 773 847 1144 1330 1408 1553 1629 1188 1282 1064 1242 1322 1436 1360 930 939 928 723 1083 1169 1159 1206 1416 1342 937 875 687 496 824 455 520 1173 770 685 1357 669 1378 1399
5 0 52 134 473 650 390 951 1022 892 983 1130 1005 6 0 884 927 1256 892 753 820 365 616 795 406 1017 886 1183 994 994 836 1478 667 690 430 852 1217 1272 623 782 590 400 1047
11 0 27 247 375 264 441 504 777 704 765 763 488 261 23 756 868 1014 489 740 884 393 650 3 120 879 983 1069 932 750 390 938 534 230 559 809 1205 1077 1437 961 1045 285 325
16 16 13 291 340 220 394 36 443 298 451 974 988 750 719 136 670 97 1200 1047 1227 554 383 471 651 793 175 140 381 758 265 111 222 65 420 368 1020 1283 1232 1370 1015 926 542
131 39 120 265 225 401 815 44 248 297 210 485 1049 980 740 595 1064 752 1290 656 813 869 728 893 1142 890 691 266 497 330 24 31 178 30 88 137 329 1148 1021 1343 1221 1225 1191
264 59 423 430 251 894 587 807 506 316 95 309 340 932 1319 1321 1193 1459 1426 886 1164 928 523 1149 1287 910 393 313 55 41 31 39 95 141 48 225 342 684 1146 1412 1403 1364 1344
286 134 387 588 407 848 565 733 638 552 199 91 639 1021 963 1084 1581 1061 1438 1085 1129 1431 1392 1203 167 547 149 37 11 27 23 25 52 76 101 52 299 653 906 957 1354 1455 1376
300 242 300 140 478 448 714 738 781 501 362 385 277 591 964 1175 2012 2168 1462 1093 447 997 1241 529 1152 434 105 181 10 37 23 24 3 189 147 319 286 287 474 906 942 1057 961
398 463 491 220 475 590 862 1009 618 674 640 420 315 505 776 1270 1610 1929 1134 681 1565 1403 1204 767 620 563 206 28 11 46 39 13 31 50 103 343 304 217 235 339 635 692 1058
642 670 625 445 833 883 851 794 1019 784 584 463 288 108 912 1185 1387 1652 1394 999 1493 1347 719 428 576 81 58 9 4 31 37 44 33 32 19 81 320 244 66 114 262 334 806
664 820 560 691 727 1031 853 915 1042 609 589 436 314 210 1046 1150 1378 1665 1238 1064 1320 1171 1311 770 756 219 217 0 0 13 10 0 14 10 42 43 101 157 92 481 535 166 655
551 842 780 702 921 1255 1120 1190 973 909 624 438 145 337 968 925 1547 1633 1585 1504 1557 913 1224 1126 1144 595 68 0 19 29 9 3 14 21 7 8 35 17 0 419 368 431 174
652 811 922 901 1415 1511 1311 1447 1187 1059 733 455 120 194 437 904 1426 1699 1447 1506 1478 1476 1237 847 647 776 76 0 30 155 40 1 7 11 0 0 0 0 0 59 305 419 209
565 789 1107 1174 1385 1810 1543 1325 1312 835 605 370 85 222 595 807 1556 1974 1516 1895 1467 1454 1286 1435 1365 1098 188 0 0 2 32 132 0 1 13 0 14 0 0 2 0 47 33
507 1041 1349 1545 1604 2032 1313 1844 1212 1070 688 281 423 243 562 1253 1677 2050 1846 1677 1619 1570 1385 1409 1740 845 809 225 0 0 0 0 0 18 6 14 5 2 0 7 11 2 12
590 1218 1476 1858 1783 2041 2033 1280 1989 1204 909 474 228 558 823 1855 1761 2017 2197 1678 1692 1902 1874 1356 1700 1806 1373 595 95 14 0 0 2 0 27 11 6 6 13 0 2 1 23

GFSSE_con_mlcape_039.txt.gz
CAPE
7 212 948 974 1033 1389 1325 1259 1097 1706 1167 1336 1319 1460 1511 1541 1533 1606 1700 1638 1639 1482 1669 1209 1360 1557 1312 405 343 672 1162 1331 1407 1382 1324 1283 1353 1361 1477 1447 1551 1603 1660
0 263 1062 1138 1049 1363 969 963 1378 1175 1340 1278 1603 1750 1640 1677 1677 1636 1578 1599 1621 1396 1413 1541 1545 1416 1382 654 1116 1017 1082 1124 1023 852 1245 1302 1232 1134 1075 1235 1554 1560 1469
10 455 1069 1004 1048 1452 779 918 1400 1138 1160 1427 1636 1252 1549 1633 1651 1589 1633 1673 1710 1424 1353 1448 1543 1422 1440 1094 625 1139 820 603 573 991 583 734 1121 1043 804 1378 1625 1529 1493
34 407 837 1156 1326 1278 756 1446 1200 1653 1250 1758 1688 1362 1618 1771 1577 1681 1654 1588 1535 1493 1454 1397 1263 1217 1367 1290 675 499 804 704 524 623 519 206 795 647 902 1254 1262 1450 1276
27 370 917 1234 1517 1147 1160 1183 1513 1376 1598 1489 1214 1367 1516 1618 1658 1560 1612 1700 1533 1458 1462 1357 1208 1120 1076 972 721 229 520 677 677 784 80 5 697 830 905 1188 1280 1343 1410
41 378 1214 1378 1388 1459 1277 1367 1323 1430 1351 1256 1426 1595 1735 1711 1693 1571 1580 1625 1612 1660 1623 1512 1410 1134 1047 885 568 491 508 611 530 576 549 552 927 1445 1454 1454 1257 1291 1378
323 407 932 1495 1472 1538 1327 1397 1426 1486 1371 1339 1587 1641 1704 1873 1801 1613 1593 1615 1602 1555 1568 1541 1400 1366 1185 656 574 540 732 742 598 612 542 805 952 1341 905 945 754 1386 1324
438 416 1045 1516 1514 1282 1351 1394 1523 1360 1388 1427 1540 1545 1656 1922 1902 1698 1613 1591 1558 1512 1421 1487 1503 1371 1140 709 542 487 697 1111 582 421 495 1005 1293 1323 1237 1138 956 1283 1389
465 538 1122 1432 1278 1226 1329 1504 1596 1346 1528 1468 1571 1542 1552 1623 1649 1656 1559 1594 1568 1428 1285 1258 1374 1176 1173 893 485 641 719 1091 595 636 783 1125 1397 1474 1412 1339 1277 1247 1224
568 668 1049 1193 1130 1103 1320 1525 1404 1386 1604 1529 1496 1414 1394 1369 1392 1333 1392 1594 1482 1301 1221 1181 1200 1167 992 936 626 340 441 1041 782 566 697 1095 1246 1316 1440 1448 1466 1273 1398
477 554 997 942 796 793 1067 1263 1329 1371 1549 1546 1519 1203 585 741 1147 1184 1314 975 876 883 959 1101 1076 866 1249 861 1038 1070 772 677 765 588 641 904 956 1252 1193 915 1395 1316 1364
301 364 682 519 410 602 692 986 703 862 1054 1121 831 0 46 232 601 1312 963 837 859 479 669 671 453 611 604 850 765 1078 896 678 526 163 535 1041 655 561 861 606 729 1375 1430
135 197 162 278 456 431 537 249 461 514 743 878 83 0 0 68 498 787 517 624 667 393 461 17 213 579 954 697 756 698 564 948 348 129 851 1216 1303 942 744 891 241 659 949
21 0 0 358 452 322 288 83 446 533 609 683 275 0 111 0 402 564 762 681 975 538 356 475 530 680 235 402 614 672 702 427 245 279 970 1066 1279 1425 1104 1218 577 293 381
0 0 0 243 347 264 52 6 283 283 398 757 484 73 151 76 583 554 917 683 673 483 464 827 792 872 211 191 45 35 178 58 39 62 503 1054 1047 1168 1598 1177 1102 959 829
4 0 84 140 392 215 61 0 34 490 290 973 966 589 480 411 879 891 1176 1041 765 621 327 779 951 475 310 90 30 60 71 54 23 18 25 299 1012 1083 1101 1492 1217 1267 1302
60 0 101 38 331 366 383 564 443 462 153 458 840 1123 1147 1230 922 941 749 1027 770 834 750 981 57 302 97 58 29 22 35 61 50 9 17 122 465 882 1047 1407 1429 1323 1394
202 120 111 48 314 328 225 350 337 305 484 417 725 627 710 926 1525 1000 928 830 934 1257 1236 960 797 192 129 62 57 41 39 41 39 103 104 23 63 339 699 964 1194 1091 1112
134 216 144 126 121 431 195 339 283 341 440 655 688 481 455 671 1566 1357 767 670 858 1179 812 341 852 427 208 93 31 42 38 38 46 119 62 145 146 105 175 633 743 827 968
23 216 152 246 138 173 350 435 200 125 418 581 613 371 490 597 1193 1141 1019 555 1112 871 648 316 86 40 25 4 19 35 17 20 41 128 145 249 135 111 77 145 287 478 711
165 158 49 204 328 192 361 213 447 48 374 534 174 837 655 821 1148 1095 1030 853 1020 969 735 424 77 25 15 0 0 22 29 28 29 26 68 157 95 107 16 0 77 215 691
371 243 95 337 473 334 505 355 569 849 424 534 145 794 815 1015 1194 1234 941 1007 1189 1090 1038 950 734 129 46 0 11 31 5 4 7 20 26 37 23 39 29 107 195 151 447
366 273 328 280 642 538 572 603 433 861 735 581 278 111 1037 975 1348 1219 1207 1187 1345 915 727 624 796 492 0 0 0 65 17 1 1 11 3 12 13 2 2 332 278 153 135
509 378 279 374 653 765 762 813 597 461 745 693 308 82 413 851 760 1106 1457 975 1212 1180 1027 662 650 576 0 0 0 9 32 22 0 0 0 0 0 0 0 121 210 103 51
463 593 389 380 576 996 932 897 883 777 771 494 363 57 168 303 520 1342 1439 1246 1211 1577 1162 789 1558 674 190 7 0 0 0 0 0 0 0 1 0 0 0 0 18 45 0
491 656 655 472 569 965 1064 1091 807 1072 729 689 217 98 215 529 568 1035 1822 1470 1342 1325 1165 1202 1339 854 682 333 16 0 0 0 0 0 0 2 0 0 0 0 0 0 0

GFSSE_con_mlcape_042.txt.gz
CAPE
27 217 746 1222 1166 1241 1101 1603 1128 1371 1293 1577 1649 1709 1753 1846 1943 1860 1838 1771 1743 1549 1481 1674 1699 899 414 561 1171 1127 1208 1422 1518 1502 1634 1712 1692 1552 1902 1682 1622 1583 1526
57 507 876 1287 1208 1115 1268 1409 1282 1018 1480 1881 1658 1778 1861 1654 1635 1723 1925 1746 1658 1789 1729 1834 1626 1257 936 1144 904 1147 1260 1152 1442 1454 1412 1231 1376 1396 1647 1590 1609 1613 1653
325 786 933 1211 1146 925 1516 1243 1343 1282 1624 1626 1618 1739 1761 1700 1798 1818 2029 1615 1517 1593 1662 1768 1676 1587 842 1232 974 791 997 1094 935 847 891 918 1093 1141 1197 1603 1601 1542 1505
547 894 750 1332 945 942 1496 1215 1295 1622 1991 1606 1804 1957 1771 1761 1747 1672 1724 1686 1674 1594 1602 1532 1521 1580 1288 715 801 706 860 646 1106 732 569 545 680 1050 1328 1577 1482 1344 1431
369 670 939 1266 895 1407 997 1695 1104 1781 1592 1570 1478 1701 1855 1779 1673 1848 1701 1647 1695 1611 1524 1438 1396 1309 1212 897 478 595 596 928 992 611 299 518 762 1073 1294 1398 1393 1266 1298
268 817 1377 1289 1166 1125 1253 1529 1374 1575 1442 1552 1598 1937 1867 1817 1615 1756 1733 1749 1776 1698 1576 1520 1274 1181 1131 827 623 524 567 944 279 121 398 778 808 1372 1521 1289 1292 1347 1336
436 1087 1426 1373 1476 1148 1543 1187 1421 1372 1233 1650 1729 1855 1982 1801 1706 1766 1798 1763 1739 1715 1701 1605 1542 1384 1054 902 736 620 621 1077 429 456 634 1001 1394 1329 1250 978 1343 1337 1372
421 1106 1361 1573 1558 1170 1239 1554 1371 1184 1350 1658 1706 1803 2042 1976 1814 1758 1739 1722 1646 1576 1624 1557 1439 1159 807 767 656 751 1015 929 507 520 852 1095 1168 987 828 808 1442 1363 1332
468 1063 1406 1526 1345 1178 1330 1576 1341 1338 1445 1571 1581 1663 1727 1816 1769 1675 1717 1682 1636 1540 1454 1211 1163 748 509 304 566 856 1242 647 236 623 832 1136 1267 1210 1124 1039 1324 1395 1378
417 919 1035 1215 1064 1092 1348 1520 1363 1572 1506 1521 1480 1430 1450 1456 1477 1478 1373 1705 1662 1475 1356 1096 877 625 627 399 392 613 1278 860 462 783 1012 1306 1341 1222 1268 1218 1221 1284 1373
460 840 971 879 817 977 1118 1311 1313 1568 1481 1436 1515 1243 735 659 850 1253 1038 1254 1168 779 909 1098 1092 876 283 389 571 662 861 565 402 759 1010 1155 1463 1173 1203 1390 1471 1443 1288
393 705 739 631 464 672 923 1071 966 1145 1203 1136 575 195 266 442 750 1086 1011 816 994 484 814 216 502 1019 853 470 330 731 620 563 518 505 803 1306 1358 987 843 1372 1329 1449 1391
451 666 584 342 393 318 148 437 496 556 787 839 292 0 86 237 551 754 705 600 514 367 400 13 304 464 518 691 339 337 832 468 284 399 918 663 787 798 754 482 1268 1520 1321
430 447 364 85 304 282 32 0 27 260 579 580 10 0 2 101 391 546 336 247 520 313 288 330 438 508 276 401 623 681 394 500 147 288 1075 1403 935 851 971 336 330 768 1054
218 114 42 29 257 243 0 0 63 259 448 630 96 0 0 112 255 343 555 671 543 529 344 621 633 578 370 26 44 542 590 279 194 387 798 1339 1475 1251 1276 970 526 384 592
68 27 0 154 201 226 26 0 56 258 264 489 381 32 167 146 494 523 615 431 518 400 362 462 526 412 197 43 39 112 187 117 24 127 565 1041 1155 1643 1528 1194 1170 1084 1146
18 0 0 144 216 122 76 0 48 199 206 387 503 155 173 229 675 503 716 702 486 519 339 434 404 221 27 32 42 45 50 16 11 34 108 208 1006 1094 1370 1649 1323 1365 1392
0 0 0 144 233 7 209 19 354 218 197 487 662 581 602 608 685 741 719 695 622 831 829 732 410 83 40 43 52 29 31 39 11 25 18 0 286 831 1278 1366 1200 1131 1265
0 0 13 65 277 28 416 301 236 263 383 377 684 664 839 1208 1071 411 581 719 624 772 775 392 623 217 77 71 51 33 49 49 44 58 38 12 12 351 638 610 562 751 824
51 0 0 0 339 109 261 114 113 103 192 511 593 501 644 988 1223 770 567 377 684 816 718 432 165 37 70 38 33 38 33 47 46 53 50 44 32 51 92 245 370 547 503
117 63 0 0 119 242 88 63 6 6 51 221 400 393 345 529 796 983 783 612 885 785 689 127 22 32 0 0 25 19 17 22 24 46 53 126 79 71 36 46 128 161 436
107 107 22 0 20 141 11 15 30 0 2 116 277 365 382 581 687 679 615 694 713 865 787 487 393 28 1 0 12 0 0 0 0 26 36 100 21 63 37 24 36 56 389
108 121 65 12 0 0 51 35 43 19 0 98 268 290 511 668 797 878 624 604 848 941 819 589 556 156 0 0 8 4 0 0 0 3 15 61 20 15 11 63 96 63 160
151 101 71 84 51 29 164 62 12 0 19 184 159 135 444 703 936 1053 876 675 1158 1006 791 593 407 391 0 0 0 9 23 0 0 0 0 0 3 1 0 109 147 74 45
232 203 102 228 164 143 264 181 107 78 256 556 357 288 241 639 943 1021 903 1051 880 1176 831 700 384 567 0 0 0 0 0 0 0 0 0 0 0 0 0 12 101 54 21
353 309 172 367 259 269 337 324 225 166 131 395 523 352 173 439 663 786 849 1011 1031 982 1111 911 879 831 399 0 0 0 0 0 0 0 0 0 0 0 0 3 26 37 0

GFSSE_con_mlcape_045.txt.gz
CAPE
32 142 884 1335 1028 1501 1315 1476 1659 1734 1646 1764 1777 1728 1527 1507 1550 1577 1679 1494 1429 1437 1712 1274 686 468 905 1272 976 1030 1315 1566 1773 1798 1754 1786 1897 1796 1699 1638 1487 1385 1392
82 603 1003 1350 1121 1612 1401 1645 1442 1663 1706 1835 1627 1568 1454 1481 1750 1869 1614 1779 1468 1641 1833 1537 953 1009 594 953 1117 1267 1362 1423 1460 1517 1516 1578 1523 1821 1571 1633 1614 1528 1415
238 803 1269 1123 1262 1488 1621 1240 1689 2014 1857 1728 1918 1874 1764 1732 1817 1712 1459 1697 1768 1848 1730 1595 1159 1015 1343 1075 1013 930 1127 1159 1167 1334 1145 1096 1234 1451 1624 1597 1557 1464 1419
432 997 1335 1238 1408 1406 1537 1420 1756 1438 1586 1777 1671 1511 1646 1702 1698 1699 1638 1601 1716 1819 1625 1522 1377 947 953 669 744 785 1062 1226 1002 888 562 777 867 1618 1673 1651 1588 1375 1389
648 789 1277 1253 1501 1338 1452 1657 2031 1632 1538 1902 1764 1763 1737 1953 1694 1692 1732 1696 1726 1680 1344 1344 1061 1119 793 762 819 838 986 1146 828 423 501 772 1096 1499 1570 1425 1373 1307 1333
460 829 1294 1165 1551 1335 1466 1757 1956 1478 1520 1723 1941 1867 1771 1748 1845 1801 1743 1772 1766 1663 1586 1389 1135 920 782 737 701 854 761 766 614 363 674 950 1206 1473 1536 1507 1398 1214 1412
323 1007 1200 1387 1288 1731 1416 1512 1641 1467 1735 1928 2103 1880 1913 1828 1799 1941 1974 1913 1805 1753 1644 1480 1304 944 716 646 769 1051 1175 547 182 400 715 1265 1632 1652 1198 1486 1512 1484 1381
748 1214 1254 1453 1260 1689 1320 1440 1389 1556 1818 1807 1937 2063 1969 1959 1998 1994 1903 1762 1700 1690 1506 1182 807 526 438 787 982 938 1005 745 503 653 1168 1171 1181 1198 1012 1515 1457 1507 1442
942 1133 1218 1443 1136 1368 1585 1395 1374 1631 1703 1740 1883 2007 2017 1994 1961 1847 1841 1745 1678 1576 1385 836 398 466 444 550 944 895 1155 747 472 784 927 1017 1020 796 1034 1620 1544 1453 1426
908 856 1245 1264 1058 1277 1581 1402 1491 1635 1685 1675 1686 1615 1713 1831 1891 1416 1711 1790 1660 1534 1425 1238 318 182 266 547 845 963 1131 703 661 867 1107 1101 1168 1104 889 1429 1499 1307 1411
871 950 1083 1002 941 1039 1398 1329 1552 1611 1668 1588 1513 1457 924 827 1058 1463 1332 1412 1180 1238 1311 894 707 380 292 565 892 1333 1207 360 500 863 1123 1238 1255 1379 1236 1266 1451 1416 1389
526 904 913 861 619 936 1293 1218 1337 1475 1416 1305 897 504 501 514 790 1055 1171 1293 948 689 973 85 824 926 530 328 761 1077 560 514 415 720 923 1340 1251 1101 1439 1647 1413 1281 1465
376 812 795 631 636 679 757 863 929 1146 1115 958 309 72 310 394 579 719 698 943 668 403 363 135 334 472 606 406 368 703 400 485 406 531 1026 1121 1133 866 1124 1057 1492 1543 1570
259 574 629 422 263 310 370 487 444 618 776 712 233 0 90 335 437 342 290 225 355 278 272 276 327 354 214 515 314 389 662 439 282 411 674 939 955 977 472 1058 1437 1373 1289
248 370 333 182 26 0 0 199 175 277 481 445 44 0 0 132 328 493 442 322 518 538 317 460 424 523 102 50 262 470 343 300 119 311 878 1088 776 1136 635 369 493 772 951
339 221 213 13 12 2 0 0 0 145 442 619 243 1 0 110 286 324 395 446 485 400 253 291 488 307 36 38 69 501 236 285 197 220 716 1269 1061 1122 1239 885 648 539 723
247 131 46 0 0 0 0 0 0 140 260 345 476 243 70 163 469 503 506 497 449 408 312 181 77 94 32 23 57 83 129 98 41 70 352 555 1150 1038 1138 1186 1120 1061 1263
87 34 0 0 0 0 18 0 0 100 206 225 313 409 125 216 510 403 584 647 449 447 521 449 320 81 38 30 38 39 41 26 8 24 192 382 783 925 1175 1311 1107 1086 1300
17 0 0 0 19 0 26 56 0 12 115 234 383 414 295 396 569 540 706 781 625 667 285 527 475 100 76 61 24 21 31 33 7 43 35 28 173 439 677 792 727 599 895
0 0 0 0 21 11 39 63 198 222 370 214 466 546 545 872 848 361 508 599 518 569 439 259 224 63 79 44 22 25 34 45 32 65 52 31 29 131 238 312 396 363 460
0 0 0 0 0 37 27 88 171 145 213 432 427 606 605 1023 1031 473 376 356 630 552 482 152 32 8 17 15 21 14 12 17 33 60 62 90 60 20 28 78 123 139 230
0 0 0 0 0 48 27 221 108 45 4 166 318 511 484 696 1109 883 471 572 676 638 516 263 15 4 0 0 15 2 2 0 4 18 49 99 84 57 41 12 30 32 94
38 0 0 0 0 16 34 59 76 42 0 20 187 313 382 439 616 733 435 514 708 707 548 442 312 0 0 0 0 0 0 0 0 0 15 34 86 53 47 0 13 24 94
0 5 0 0 0 0 35 46 40 20 0 0 2 179 289 452 538 670 597 336 702 626 496 634 484 254 0 0 0 19 0 0 0 0 0 1 25 17 6 20 35 55 55
33 38 0 0 0 0 18 29 0 0 0 0 0 13 281 354 551 651 780 633 462 879 794 703 382 210 0 0 0 0 0 0 0 0 0 0 0 0 0 0 46 82 44
110 52 21 3 0 0 2 6 0 0 0 0 0 0 99 344 429 623 807 753 749 714 876 743 548 136 106 0 0 0 0 0 0 0 0 0 0 0 0 0 1 88 40

GFSSE_con_mlcape_048.txt.gz
CAPE
11 179 837 991 1498 1158 1739 1703 1712 1612 1686 1481 1333 1232 1223 1420 1596 1844 1788 1612 1319 1571 968 735 611 951 1117 1308 1426 1392 1571 1960 1940 1886 2029 2156 1730 1805 1805 1615 1201 1329 1475
21 655 931 1063 1355 1260 1580 1803 1695 1743 1839 1905 1686 1598 1467 1610 1696 1792 1520 1417 1479 1771 1142 982 770 706 966 915 1092 1196 1381 1638 1747 1814 1882 1945 1855 1629 1733 1601 1622 1333 1628
126 711 915 1146 1251 1676 1283 1571 1527 1774 1776 1801 1795 1677 1674 1661 1502 1726 1614 1562 1759 1752 1459 1111 1379 1181 849 1014 1119 1532 1477 1494 1284 1407 1724 1116 1681 1712 1771 1704 1532 1541 1339
428 884 811 1148 1334 1293 1528 1849 1713 1842 1816 1900 1413 1341 1546 1508 1656 1433 1713 1674 920 992 1548 1199 1051 988 1014 1063 1193 1273 1009 1137 1393 1087 936 957 1594 1749 1750 1738 1403 1489 1409
631 1022 824 1251 1396 1224 1729 1741 1366 1831 1859 1707 1569 1763 1600 1706 1731 1768 1701 1689 915 1340 885 1284 1071 867 638 742 556 935 1325 1019 877 632 869 1170 1508 1621 1572 1515 1445 1412 1513
753 878 1089 1443 1253 1275 1786 1640 1418 1741 1752 1634 1324 1639 1727 1770 1634 1762 1731 1584 1613 1589 1423 1148 1212 972 1042 814 455 702 908 1238 419 605 958 1306 1172 1557 1371 1327 1115 1468 1455
653 955 1031 1360 1325 1201 1756 1561 1333 1569 1582 1732 1554 1784 1687 1583 1607 1815 1916 1817 1712 1629 1380 1093 959 853 761 911 822 806 996 897 331 619 826 1207 1516 1426 1666 1582 1471 1453 1456
653 820 1087 1211 1686 1186 1426 1476 1387 1752 1560 1855 1774 1986 1974 1989 1874 1844 1770 1689 1627 1390 1173 903 505 624 753 704 1076 1006 947 586 408 752 1287 1397 1443 1113 1566 1474 1435 1442 1423
806 663 1107 997 1651 1125 1209 1217 1492 1684 1731 1982 1871 2042 2017 1972 1953 1820 1771 1554 1389 1124 1068 668 612 536 642 704 893 1228 1232 680 661 1069 944 1030 915 1160 1463 1508 1462 1448 1355
750 672 906 925 1118 1189 1098 1169 1346 1607 1655 1840 1891 1942 1932 1894 1860 1617 1063 1472 1443 1005 786 600 485 427 656 845 1091 860 833 763 713 842 886 907 810 826 1485 1496 1456 1484 1523
691 677 985 829 892 1239 1053 1204 1442 1614 1615 1632 1605 1607 1294 1279 1268 1254 1302 1543 1153 788 1090 896 460 372 623 876 824 1164 927 452 550 853 875 998 917 1108 1276 1450 1577 1549 1477
475 662 982 746 672 1056 1184 1257 1351 1521 1401 1312 949 453 416 491 785 852 1109 1463 1082 1137 352 996 866 798 443 513 1074 1200 390 324 524 645 843 1056 1335 1497 1255 1598 1471 1560 1454
359 689 823 707 537 831 1066 1073 1214 1274 1173 855 445 298 412 472 661 733 599 971 598 351 216 267 440 648 335 372 683 399 421 433 505 483 810 815 796 1094 792 1383 1488 1530 1542
361 710 803 636 250 622 776 742 889 959 878 585 158 0 225 298 460 491 403 340 367 231 221 318 326 354 235 374 244 573 359 387 402 420 706 1061 696 699 959 1487 1527 1305 1315
98 447 585 478 143 293 305 525 562 623 593 526 288 0 88 212 366 441 231 118 555 497 278 369 379 327 75 128 284 265 425 257 284 328 585 775 811 739 452 775 1005 1029 1033
60 208 408 262 28 86 0 112 182 316 417 377 61 0 0 21 293 369 371 471 411 388 268 370 357 122 50 39 114 421 286 231 135 294 521 981 626 942 563 420 421 496 693
23 107 159 26 0 0 0 0 19 68 266 475 408 108 28 108 245 400 439 453 357 311 266 302 66 29 37 47 66 307 204 233 137 161 454 797 829 957 1086 1042 853 686 731
102 27 80 22 0 0 0 0 0 0 149 256 362 422 164 217 274 530 506 567 418 462 425 431 97 33 45 55 61 73 88 65 28 52 241 416 581 617 959 942 720 820 999
177 46 0 0 0 0 0 0 0 0 90 144 208 285 346 237 363 435 593 656 529 641 350 457 384 82 67 64 46 50 44 22 18 36 71 100 310 566 658 671 532 496 577
123 52 0 0 0 0 0 0 0 0 0 39 141 300 322 310 481 561 644 611 569 499 330 199 195 92 89 39 27 31 39 38 17 49 25 15 27 180 296 323 417 362 453
25 0 0 0 0 0 0 0 0 0 135 282 139 402 390 463 764 520 436 481 566 359 383 291 41 26 46 20 18 18 14 12 47 34 37 20 12 56 24 79 155 124 120
0 0 0 0 0 0 0 0 0 0 55 285 272 371 530 558 1029 772 420 395 457 503 311 156 56 29 6 5 12 2 11 3 10 18 31 57 72 62 39 16 47 73 68
0 0 0 0 0 0 0 0 0 0 10 72 191 312 446 567 909 1082 900 626 563 460 405 390 92 16 0 6 4 0 0 0 0 0 7 34 52 63 51 35 14 39 65
12 0 0 0 0 0 0 0 6 64 98 18 51 151 296 430 470 720 801 522 562 578 572 538 370 107 0 0 0 9 0 0 0 0 0 0 2 41 27 40 47 39 74
0 5 0 0 0 0 0 0 0 16 0 0 0 36 167 228 383 517 630 579 363 674 562 593 622 152 0 0 0 1 0 0 0 0 0 0 0 0 3 0 20 64 77
37 0 0 0 0 0 0 0 0 0 0 0 0 0 5 167 235 390 627 675 646 569 728 648 603 206 51 0 0 0 0 0 0 0 0 0 0 0 0 0 0 0 67

GFSSE_con_mlcape_054.txt.gz
CAPE
419 197 992 1417 1435 1401 1395 1446 1720 2042 2135 2161 1898 1766 1534 1242 1529 2004 1655 1419 1264 893 762 1109 1171 1737 1678 1704 1752 1798 1751 1869 2061 1970 1735 1823 1688 1525 1274 1385 949 969 1565
296 228 1428 1296 1387 1502 1699 1722 1701 1793 1864 1848 1690 1456 1537 1870 2048 1821 1352 1897 1389 1104 867 1162 1208 906 1482 1652 1806 1123 1068 1566 1790 1944 1946 1913 1868 1252 1508 1057 1194 1313 1506
26 575 891 1501 1742 1504 1764 1888 1939 1772 1827 1697 1598 1766 1925 2067 1872 1449 1623 1856 1346 1239 1620 904 907 1354 1380 1397 1605 1724 1535 1891 1885 1641 1483 1317 1289 1515 1713 1559 1420 1507 1368
33 429 448 1298 1665 1844 1915 1948 2062 2123 2024 2022 1993 1989 1952 1914 1817 1566 1284 1220 1580 1342 1291 1396 1304 1126 1282 1449 1378 1474 1714 1893 1618 1379 1272 1297 1226 1464 1628 1546 1650 1432 1461
56 344 796 1317 1661 1719 2028 1958 2001 2008 2009 2029 1983 1726 1817 1880 1478 1327 1273 1321 1159 1557 1370 1142 1128 1156 641 1336 1251 1469 1504 1373 1256 1483 1592 1175 1400 1513 1601 1562 1413 1385 1308
87 304 1207 1176 1576 1750 1900 1984 1960 1979 1763 1672 1658 1544 1736 1719 1553 1433 1415 1580 1428 1184 1330 1291 1199 870 923 1171 1339 1200 1212 1116 1323 1234 1261 1219 1146 1602 1403 1558 1545 1556 1409
64 325 962 1231 1618 1409 1805 1819 1827 1669 1725 1863 1802 1721 1496 1630 1654 1748 1689 1711 1509 1260 1166 1164 1099 1004 952 984 1155 1430 882 1007 924 1076 1289 1347 1392 1696 1782 1707 1716 1679 1588
104 294 481 1333 1598 1518 1696 1793 1801 1572 1727 1748 1636 1630 1710 1707 1824 1705 1478 1292 1067 1056 958 1099 1038 949 1026 1211 1281 1195 709 406 585 842 1219 729 1561 1735 1758 1737 1755 1322 923
143 177 347 989 1345 1476 1531 1763 1836 1573 1618 1670 1530 1561 1972 1829 1662 1480 1363 1042 1031 893 776 1012 844 949 1062 1144 1275 1029 587 870 768 739 659 596 1520 1753 1774 1831 1749 1756 1652
111 123 354 412 1159 657 910 1713 1851 1729 1566 1418 1677 2008 1890 1633 1054 459 292 1036 961 861 814 869 897 1030 929 1115 1249 741 465 516 285 405 534 693 1488 1700 1741 1755 1620 1678 1706
130 118 506 263 429 678 803 1395 1629 1799 1932 1783 1643 1587 1345 679 536 877 596 1115 1054 867 818 853 874 1080 879 1189 1050 676 897 140 162 339 272 668 1380 1693 1624 1671 1652 1647 1426
32 28 368 210 433 559 629 941 1026 1209 1039 1101 1011 1212 780 914 947 706 726 1232 1115 989 1160 855 939 866 944 767 764 756 416 378 144 328 405 979 1409 1439 1435 1574 1554 1497 1507
1 12 107 227 500 441 763 897 986 927 1086 1288 1377 1162 895 748 535 869 961 1101 861 909 701 768 819 666 542 603 736 600 574 523 128 239 494 1117 1396 1373 1446 1273 1535 1263 1445
0 4 5 258 578 482 782 713 760 681 739 681 687 1202 1159 812 848 827 920 1043 1002 924 1091 992 731 867 894 967 836 758 596 440 183 124 444 579 933 769 1164 1386 1303 1405 1388
0 3 15 196 583 650 796 657 578 601 486 426 667 896 726 731 936 901 1047 1063 968 944 880 938 902 926 1160 788 719 815 614 566 354 134 382 578 513 551 1002 1351 1104 1071 1092
0 0 68 187 425 713 764 867 801 817 872 654 380 420 1104 789 1157 1129 1041 1096 1050 726 664 718 856 332 159 241 811 810 732 555 409 413 419 309 798 569 363 435 524 614 633
0 0 94 202 244 579 759 962 826 791 702 768 724 713 742 1010 1643 1340 1239 1071 1133 1304 1202 921 618 368 60 96 566 873 701 513 457 535 680 823 554 601 677 454 401 345 477
0 0 110 57 73 352 501 728 459 530 554 558 519 584 778 1211 1565 1059 1238 918 1178 730 310 304 125 82 83 68 169 393 490 337 433 524 551 657 562 803 400 418 654 696 790
0 21 105 51 9 145 359 467 483 550 795 947 974 1138 1487 1300 1075 912 913 904 1369 511 268 99 81 67 72 51 71 177 216 122 200 157 364 490 530 526 499 341 262 326 467
0 8 87 69 39 106 164 317 314 539 775 888 920 990 1497 1371 1224 918 1106 800 907 441 240 138 108 218 93 71 55 66 90 136 178 170 102 65 115 249 187 507 677 607 199
0 0 99 45 82 132 72 138 304 350 507 727 805 1136 1417 1328 1411 1054 927 926 612 591 816 953 597 518 88 88 49 58 45 106 201 147 102 33 131 186 127 210 422 122 404
29 40 89 161 197 254 17 15 146 264 431 646 959 1298 1487 1403 1608 1471 1190 965 500 369 774 832 661 144 92 72 57 44 37 3 25 45 72 136 169 200 213 115 113 312 125
58 130 183 266 284 285 0 0 221 524 818 1085 1186 1072 1418 1520 1568 1736 1525 1117 889 833 349 483 845 385 86 86 331 55 11 40 13 4 142 195 364 303 293 383 225 152 231
32 312 285 511 468 384 66 0 173 352 251 278 603 587 937 1570 1535 1701 1844 1414 1090 836 1012 563 1067 623 353 48 63 26 172 23 38 73 44 142 245 259 356 358 321 356 347
0 74 389 624 737 449 328 18 55 277 0 159 384 843 1203 1756 1689 1536 1893 1888 1357 664 854 1220 1075 943 205 69 27 29 143 14 27 52 72 148 169 193 236 368 277 297 447
77 55 220 555 892 744 404 170 201 175 42 45 409 609 698 819 1337 1669 1714 1909 1792 1101 1050 1138 1280 1348 1000 509 4 99 44 82 114 103 48 154 133 158 185 241 263 301 328

GFSSE_con_mlcape_060.txt.gz
CAPE
581 517 914 1243 1403 1082 1620 1596 2131 2067 1860 1790 1761 1313 1272 1981 1440 1646 1456 830 808 1148 1122 1872 1794 1908 1952 1878 1870 1896 2170 1869 1925 1945 1848 1842 1518 1222 1204 1144 1101 1259 1359
541 694 1223 1596 1568 1585 1505 2001 2099 2023 1689 1797 1445 1432 1907 1845 1399 1345 1311 1164 887 1554 1234 1099 1804 1735 1569 1267 1574 1641 1961 2084 1975 1879 1668 1826 1343 1238 1534 1329 1310 1413 1294
577 1080 1431 1487 1424 1717 1703 1899 2027 1937 1839 1727 1692 1828 2021 1384 1756 1573 1461 1455 1162 923 1287 1342 1276 1660 1679 1439 1590 1770 1690 1473 1180 1161 1562 1119 1662 1652 1663 1623 1544 1531 1342
591 1025 1066 1434 1692 1633 1621 1686 1911 1864 1822 1838 1869 2006 1640 1552 1440 1350 1240 1382 1542 1466 1279 1415 1396 1315 1475 1739 1920 1922 1457 1337 1218 1337 1336 985 1122 1707 1643 1488 1558 1240 957
50 428 1247 1419 1801 2033 1985 1970 1818 1828 1841 2020 1929 1975 1812 1566 1580 1467 1469 1612 1266 1309 1271 931 1367 1179 1580 1585 1546 1300 1266 1152 1118 1377 1184 951 1133 1523 1278 1173 1446 1372 1405
227 696 1339 1753 1815 1717 1779 1779 2040 1903 1890 1837 1891 1816 1686 1576 1534 1526 1202 1300 1426 1382 1163 996 989 1128 1118 1092 1169 1251 1342 1420 1418 1169 1172 1466 1256 1552 1639 1533 1548 1545 1511
527 798 1170 1649 1693 1802 1764 1896 1777 1807 1852 1716 1832 1843 1689 1577 1643 1831 1686 1210 1442 1246 1003 1026 1013 1009 1031 1164 606 989 1254 1471 1336 1419 1391 1446 1609 1681 1463 1602 1043 1272 1560
216 383 930 1492 1624 1573 1718 1734 1849 1825 1796 1692 1708 1771 1721 1829 1685 1299 1159 1175 1175 1210 1093 1016 1184 1071 984 602 380 712 938 1354 1162 1385 1292 1327 1453 1704 1714 1135 1199 1412 711
54 521 697 929 1569 1732 1708 1681 1733 1858 1891 1900 1793 1861 1803 1395 1275 1220 1184 1114 1138 1062 958 1060 1037 1161 802 319 112 429 754 1164 1057 1097 1149 1381 1499 1694 1413 1762 1597 1515 1483
51 272 618 620 1227 1202 1547 1658 1777 1833 1845 1594 1794 1715 877 1009 904 1031 1079 1005 919 965 1003 1146 1080 687 202 27 297 570 878 1247 765 1116 1161 1438 1576 1601 1559 1696 1686 1341 1505
10 222 249 383 836 1176 1331 1607 1697 1714 1588 1744 1629 927 511 640 929 1034 896 949 801 830 918 982 964 1008 730 224 219 350 617 1004 484 919 1029 1382 1561 1673 1594 1607 1225 1307 840
0 36 60 269 593 965 711 1474 1416 1385 1395 1005 976 539 1038 1209 687 538 844 1052 782 769 772 891 1172 843 799 878 799 739 1026 368 473 923 1166 1502 1622 1597 1457 1348 1410 1464 1254
4 19 137 380 164 790 657 1461 1291 1326 1364 652 970 752 1151 1113 786 510 803 606 745 485 431 697 812 700 835 965 946 1215 646 543 664 790 988 1309 1480 1161 1583 1144 1400 1186 1063
20 8 19 41 446 372 600 1156 636 844 1049 667 566 714 1031 746 569 24 586 902 689 869 953 238 232 712 129 235 1017 645 352 402 295 600 1192 1296 1437 1202 1201 1358 1372 1261 1201
4 28 8 0 646 595 561 576 533 232 731 812 464 774 483 780 675 540 582 281 504 695 218 270 294 1138 332 402 572 401 347 721 218 157 550 802 1137 1261 1365 949 963 945 973
1 27 80 80 404 651 436 431 569 735 704 540 318 662 493 1090 495 839 484 545 196 267 819 732 524 453 214 468 242 187 415 722 498 172 89 146 208 588 1037 653 502 451 478
5 21 5 131 138 615 398 802 675 403 566 122 809 704 851 1090 799 801 881 1036 1070 125 786 73 132 520 201 447 347 455 571 669 682 771 436 424 240 126 151 182 141 204 368
13 7 0 8 168 363 553 699 219 383 516 349 1031 745 991 1428 1509 420 407 305 650 1136 12 58 413 67 433 154 313 177 370 438 702 549 929 963 898 688 344 288 181 121 217
14 41 0 121 187 223 877 210 373 395 747 128 750 871 1128 1376 1598 363 26 284 1418 230 320 81 227 45 26 65 92 140 134 308 391 492 884 757 1106 741 715 315 394 359 416
4 14 0 348 364 361 1036 676 657 386 419 918 893 1056 1404 1342 1273 1538 1065 812 1455 88 435 691 33 59 171 47 34 69 109 336 84 217 57 570 728 813 1044 283 262 293 197
2 0 154 289 585 421 608 700 447 419 273 865 715 747 1613 1610 1275 1678 1128 935 1222 48 279 485 55 58 147 28 27 45 25 22 16 313 239 83 30 800 891 801 654 905 104
0 0 98 307 662 371 784 774 803 299 441 57 1043 1365 1213 1557 1393 1551 1197 893 943 347 320 908 83 33 294 21 25 175 129 5 103 20 177 187 209 207 84 170 387 647 840
11 2 36 369 655 432 764 487 763 1069 1093 449 1310 1288 1411 1403 1463 1449 1320 1282 861 1070 956 916 802 828 479 51 12 86 97 51 253 20 0 374 99 284 428 296 296 217 203
53 111 110 597 1043 381 675 325 559 706 559 64 1284 1243 1144 1610 1434 1777 1346 1630 1112 692 916 658 1058 728 131 131 48 33 85 135 69 130 283 430 267 404 366 700 374 293 367
100 153 268 484 1033 616 470 708 437 633 445 852 677 543 1495 1595 1630 1597 1523 1512 1266 996 1094 1119 890 1081 1211 755 370 3 19 90 197 142 227 304 263 493 587 342 654 604 530
56 121 357 504 721 802 305 538 642 251 729 482 376 1053 1490 1568 1730 1747 1715 1534 1677 1311 1186 1390 1561 1249 1218 1063 808 509 12 85 93 131 292 114 369 175 396 591 338 382 866

GFSSE_con_mlcape_063.txt.gz
CAPE
619 585 882 864 1140 1076 1168 1792 1849 1958 1708 1621 1280 1517 1948 1544 1809 1192 878 989 1258 1407 1926 1862 1907 1901 1910 1904 2185 1837 1784 1946 1910 1928 1715 1377 1255 1094 1417 1306 1136 1287 1133
289 493 835 1268 1203 1339 1486 1838 1765 1771 1723 1398 1468 2042 1519 1780 1586 1323 1276 1082 1626 1138 1318 1861 1815 1429 1488 1755 1992 2159 2029 1742 1923 1954 1581 1603 1573 1336 1531 1340 1187 1052 1155
514 731 1259 1217 1285 1145 1657 1658 1554 1826 1638 1611 1821 2013 1489 1848 1705 1527 1620 1137 1062 1509 1236 1385 1560 1653 1533 1725 1930 1828 1211 1085 1404 1524 1449 1294 1426 1566 1443 1470 1379 1148 1269
751 1198 1261 1226 1196 1352 1443 1750 1906 1770 1753 1638 2040 1604 1794 1495 1486 1490 1478 1561 1501 1479 1442 1308 1402 1521 1646 1964 1902 1372 1002 1136 1284 1528 955 1085 1174 1419 1373 1222 742 859 1349
989 1030 1152 1403 1576 1599 1518 1559 1546 1773 1757 1774 1931 1908 1615 1625 1482 1689 1384 1179 1520 1098 1359 1400 1328 1465 1511 1557 1282 1332 985 1099 1128 946 976 1019 1212 1316 1555 1430 1369 1345 1204
891 965 1465 1712 1893 1822 1939 1707 1760 1898 2017 1779 1853 1716 1617 1634 1355 1184 1501 1327 1280 1114 1015 999 1300 1057 1284 1165 1514 1367 1135 1106 1193 1323 1156 1254 1449 1846 1650 1317 1516 1391 1337
647 1049 1665 1677 1592 1811 1749 1796 1815 1969 1684 1682 1765 1648 1547 1535 1691 1371 1138 1372 1127 1052 1028 917 915 1028 1020 905 1251 1310 1479 1438 1097 1153 1176 1327 1477 1401 1424 971 1585 1487 523
518 1153 1434 1533 1721 1758 1797 1648 1718 1672 1660 1776 1791 1581 1788 1839 1417 1189 1018 1203 1099 1013 1021 1075 997 833 669 739 869 1066 1333 1485 1165 962 1018 1332 1540 1781 1620 1705 1418 606 847
460 754 1237 1420 1587 1583 1569 1790 1693 1790 1634 1768 1632 1666 1400 1231 1299 1086 1114 1078 1076 959 982 959 824 644 412 532 713 803 1092 1272 890 831 1088 1322 1523 1122 1513 1307 1391 1526 1501
506 618 873 1266 1290 1264 1573 1619 1738 1895 1844 1662 1711 1535 1253 1051 1065 1021 1056 1108 978 979 1046 1105 1017 952 701 569 567 963 789 1091 1020 1024 1154 1354 1622 1707 1658 1705 1316 1583 1453
186 177 624 866 992 1217 1296 1565 1758 1718 1546 1564 1241 732 561 686 820 972 788 931 987 1008 1079 994 737 573 363 528 793 867 1023 843 765 936 1169 1355 1674 1551 1578 1222 1624 808 938
205 183 244 685 920 882 1238 1374 1307 1157 1165 820 364 419 644 639 367 461 912 891 830 871 748 779 658 558 632 531 757 617 939 643 682 842 1220 1558 1767 1467 1557 1469 1400 1392 1146
89 147 47 601 615 729 657 1031 970 870 1004 834 470 479 642 668 297 362 524 678 655 640 441 609 372 387 85 333 618 912 412 409 663 976 1220 1347 1329 1294 1279 1540 1417 932 1092
0 44 121 335 543 270 637 873 954 915 1032 499 402 516 721 334 84 256 426 746 536 590 384 348 435 501 662 409 467 768 408 645 493 734 1161 1243 930 1421 1317 1181 1145 1106 1083
20 38 7 126 528 369 750 901 633 479 927 586 398 352 424 449 106 151 394 316 381 549 598 180 422 396 95 366 317 270 205 98 384 715 787 965 1122 1190 1259 1378 1098 1248 917
17 16 101 127 228 523 597 426 89 225 590 203 230 138 64 523 474 441 79 82 122 317 264 146 548 731 416 357 111 344 100 31 0 25 174 434 868 1070 1153 686 878 689 483
9 13 30 44 194 352 58 286 283 346 394 273 216 280 482 611 0 641 569 378 285 378 546 198 654 448 319 269 172 408 401 245 93 13 13 61 123 464 713 344 207 169 207
5 0 0 63 342 283 249 751 347 357 555 483 387 507 987 1031 491 356 183 434 411 596 321 67 266 213 435 325 332 399 489 590 496 354 272 257 94 66 160 191 134 130 258
0 0 0 0 193 83 288 461 105 293 414 526 399 542 901 1256 639 32 16 357 971 309 47 80 123 125 119 99 109 245 319 458 514 458 664 765 591 598 244 229 217 215 352
0 0 0 14 41 40 339 104 114 207 400 696 583 624 1266 966 955 680 292 176 255 94 163 372 97 79 105 60 152 151 92 274 344 326 685 959 738 894 447 385 278 382 318
0 0 0 41 54 128 244 39 310 236 305 657 846 973 1177 963 1249 682 1012 912 424 37 152 460 237 179 49 64 67 152 148 202 161 195 273 452 547 623 553 543 226 324 228
0 0 0 76 85 126 450 182 292 393 156 394 662 378 1099 1076 1232 1005 581 821 686 26 252 152 53 45 395 24 51 179 86 3 33 81 139 201 118 525 671 611 510 507 639
0 0 0 205 97 155 266 215 799 372 91 93 559 794 1177 1242 1042 1246 869 995 427 621 421 489 244 366 305 67 21 81 87 62 174 101 102 136 28 237 378 487 526 450 674
0 0 0 347 125 189 133 43 378 502 231 25 514 926 1158 1406 980 1010 1089 1027 858 547 681 558 622 544 386 115 47 23 91 80 61 18 54 208 62 322 252 239 258 225 208
0 0 29 380 254 116 409 146 155 359 756 407 524 891 1127 1359 1211 1147 1084 1367 886 621 561 604 781 578 1034 857 495 192 45 7 75 70 125 289 199 206 346 394 403 342 266
0 0 0 309 304 127 97 440 77 269 416 563 622 1013 842 1389 1244 1377 1144 1011 970 683 961 920 1222 1008 631 1012 899 777 117 42 96 158 236 251 155 119 356 388 314 497 400

GFSSE_con_mlcape_066.txt.gz
CAPE
0 107 1163 1010 1254 1442 1840 2088 1554 1820 1180 998 1865 1492 1538 1512 847 876 1022 1179 1858 1898 1988 2062 2037 2086 2164 2036 1961 2036 2016 2075 1817 1640 1432 1463 1414 1439 1349 1394 1240 1150 621
106 548 1161 1387 1373 1511 1919 1915 1686 1762 1259 1439 2113 1410 1877 1411 1041 976 1766 1760 1216 1854 1837 1801 1641 1880 2005 2192 2158 2080 2118 2139 1958 1864 1773 1614 1544 1426 1159 887 1224 1334 341
345 777 1223 1536 1548 1839 1874 1916 1858 1674 1345 1935 1829 1632 1797 1664 1644 1608 1004 1317 1640 1148 1569 1561 1599 1768 1812 2015 1904 1643 1781 1840 1873 1625 1535 1483 1379 1384 1363 1352 1372 1207 879
460 1094 1252 1387 1486 1781 1675 1807 1818 1698 1708 1947 1592 1921 1730 1585 1616 1778 1666 1803 1569 1485 1623 1759 1552 1731 1931 1703 1471 1392 1497 1692 1822 1372 1173 1062 1133 1245 820 818 1408 729 1198
900 1092 1181 1315 1407 1505 1875 2045 1903 1789 1822 1820 1663 1752 1583 1527 1665 1246 1437 1471 1495 1498 1455 1640 1617 1608 1745 1480 1366 1288 1294 1382 1454 991 1083 1155 1450 1442 1606 1615 1344 1073 226
924 1047 1470 1491 1438 1483 1652 1636 1810 1809 1907 1786 1806 1808 1559 1465 1535 1326 1259 1294 1055 1184 1634 1356 1299 1458 1471 1758 1488 1247 1304 1602 1249 1092 1262 1733 1880 1628 1469 1453 1252 789 224
889 1360 1709 1931 1978 1892 1704 1811 1878 1739 1901 1855 1734 1635 1607 1473 1169 1523 1398 1127 1068 935 899 958 1036 1167 1498 1385 1162 1272 1672 1525 1068 1209 1407 1428 1567 1423 1560 1526 1435 463 345
604 1277 1483 1679 1792 1780 1965 1927 1799 1785 1701 1814 1631 1550 1694 1688 1455 1318 1276 1172 1114 1184 1086 978 928 1047 1105 1151 1268 1400 1560 1288 967 1008 1219 1335 1692 1487 1504 1594 497 1169 1291
1017 1117 1362 1622 1774 1763 1698 1754 1683 1731 1826 1776 1568 1863 1360 1226 1157 1085 1309 1216 1070 1070 953 862 891 881 824 1000 1043 1350 1506 1112 802 1123 1195 1477 968 1005 1255 965 1343 1420 905
583 812 1035 1405 1465 1635 1700 1702 1734 1723 1724 1629 1474 1312 1353 1322 1130 1267 1157 1167 1100 1059 994 978 997 936 775 540 869 1018 1430 1108 808 999 1253 1365 1766 1760 1615 1383 1530 1339 1229
564 729 1117 1072 1048 1281 1432 1715 1928 1715 1625 1272 1291 1014 1087 757 866 774 1080 1105 1122 1141 1081 980 758 593 503 722 664 884 1129 911 708 935 1199 1418 1627 1645 1652 1722 1047 1061 1009
44 313 529 729 882 1233 1447 1549 1535 1361 745 691 655 581 489 624 585 515 878 1055 1030 1006 818 657 791 781 591 500 545 752 986 681 636 877 1248 1639 1448 1538 1174 1163 969 1256 1182
0 257 409 666 777 935 1214 1076 820 588 422 295 257 392 601 486 618 563 632 679 699 707 505 337 313 185 183 524 644 737 722 592 658 966 1457 1641 1445 1313 1225 1353 1349 1041 1164
0 85 454 619 521 512 732 496 433 616 713 408 168 452 378 192 124 206 293 261 194 343 267 340 258 352 499 497 494 444 458 371 541 865 1309 1203 1273 1232 1124 1448 892 1122 1072
32 0 326 369 456 234 351 445 612 582 682 435 308 390 251 4 3 232 436 466 406 429 213 7 63 243 351 289 418 562 363 300 272 650 943 827 919 1353 1283 1258 1159 1166 1042
34 0 246 317 296 266 475 554 550 600 634 298 200 182 142 88 72 266 119 133 212 184 476 125 91 408 319 284 222 220 294 81 327 290 513 693 938 1056 1137 1080 889 948 672
0 0 137 303 346 340 469 376 372 297 494 199 39 0 136 337 248 414 1 26 64 95 283 107 185 526 427 127 157 59 0 0 21 3 76 215 717 898 1018 586 600 478 382
0 1 38 339 304 449 407 195 211 156 319 73 97 181 532 114 58 408 94 202 220 392 374 89 377 322 164 119 232 168 122 23 0 7 15 59 97 340 813 470 233 165 283
0 0 87 189 194 91 693 185 341 378 307 137 195 465 827 317 284 76 29 204 461 357 59 32 230 128 136 168 210 361 269 329 168 175 145 150 87 49 72 156 167 147 255
0 0 67 124 121 96 436 200 60 300 222 189 237 660 982 710 146 47 38 213 33 88 124 143 45 74 90 98 140 212 230 421 434 327 388 492 515 453 319 145 223 235 240
0 0 0 87 69 82 190 200 48 246 258 400 299 520 815 694 599 475 248 313 147 46 208 98 38 178 81 44 62 105 124 150 315 326 409 596 752 655 729 368 300 242 323
0 0 0 20 0 88 169 71 154 212 359 528 443 829 845 831 892 459 531 454 114 43 203 52 41 58 59 32 52 84 39 0 137 180 185 294 437 623 610 498 473 246 337
0 6 11 32 28 96 181 75 291 220 134 478 579 569 947 815 1100 764 696 635 257 3 138 95 39 136 27 15 24 111 79 0 84 46 65 115 181 171 383 518 585 460 334
0 0 4 73 55 68 105 82 204 217 118 151 434 479 685 1049 944 994 782 605 302 301 111 306 652 278 70 20 15 15 76 49 25 3 3 85 23 198 202 252 489 572 484
0 0 37 77 88 111 128 48 111 472 257 52 230 667 582 1104 920 992 992 849 401 184 459 331 342 408 574 393 128 124 38 0 39 81 100 96 145 68 162 113 153 221 227
0 0 57 69 72 116 90 79 34 381 488 290 121 558 681 1083 995 729 919 1045 684 400 373 437 701 643 445 742 599 472 154 42 52 169 141 172 179 107 96 208 214 249 278

GFSSE_con_mlcape_069.txt.gz
CAPE
0 508 1297 1280 1641 1947 1743 1790 1638 1053 1359 2009 1427 1747 1291 1067 984 1121 1539 1858 1745 2026 1879 2045 2034 1694 1697 1870 1869 1929 1912 1778 1673 1826 1655 1554 1456 1584 1535 1380 620 778 1138
0 701 1272 1449 1594 1971 2085 1824 1677 898 1568 2027 1683 2134 1223 979 1182 1917 1277 1319 1913 1842 1811 1958 2041 2093 1947 1943 1942 2172 1987 1883 1729 1948 1800 1476 1558 1103 902 1283 652 444 1039
2 952 1396 1547 1643 1908 2074 1890 1740 1316 1914 1819 1752 1705 1532 1736 1362 1495 1315 1219 1650 1795 1612 1707 1890 2080 2157 1975 2061 1918 2018 2019 1902 1876 1510 1321 1149 1470 1271 1443 752 471 136
206 993 1444 1631 1918 2024 2012 1950 1707 1656 2175 1697 1943 1853 1703 1897 1536 1421 1690 1549 1308 1542 1595 1656 1711 1931 1880 1720 1624 1546 1977 1765 1600 1422 1067 987 879 685 1343 1213 778 1421 1230
548 1095 1273 1694 1920 1951 1927 1909 1802 1793 2078 1665 2061 1628 1662 1696 1741 1651 1603 1416 1427 1318 1403 1568 1740 1827 1689 1488 1625 1506 1824 1766 1534 1111 1176 1063 968 1356 1354 1486 381 592 1163
726 959 1527 1644 1678 1885 2022 1919 1881 1823 1827 1677 1783 1674 1635 1631 1167 1539 1199 1316 1442 1266 1420 1410 1496 1600 1672 1481 1481 1674 1969 1727 1234 1184 1465 1646 1654 1299 1342 1332 318 275 600
721 1164 1447 1510 1623 1953 1885 1924 1844 1824 1844 1702 1513 1619 1386 1654 1509 1446 1249 1059 961 1059 1064 1109 1455 1358 1439 1337 1557 1734 1848 1501 1108 1498 1617 1561 1412 1549 1538 1339 379 198 224
820 1160 1613 1732 1602 1608 1558 1785 1805 1712 1731 1648 1550 1639 1593 1199 1425 1250 1237 1132 1078 853 870 1191 1291 1156 1433 1539 1549 1783 1813 1469 1292 1168 1263 1336 1008 1668 1814 587 1305 1158 1237
997 1370 1590 1720 1786 1632 1713 1742 1800 1707 1720 1596 1510 1503 1432 1435 1244 1341 1176 1083 891 922 945 990 936 1109 1309 1446 1589 1912 1529 1132 984 1235 1571 1519 1666 1833 885 1148 1331 819 620
952 892 1198 1405 1522 1637 1727 1707 1753 1748 1830 1538 1549 1263 1300 1082 1249 1354 1194 1136 1017 889 999 1024 1084 1184 881 1275 1429 1448 1385 1181 922 1160 889 1197 1424 1407 1717 1677 1453 1366 760
806 890 1062 1410 1426 1350 1445 1537 1487 1674 1499 1357 1329 1489 1280 833 1081 1071 1235 1226 1149 1044 844 907 765 850 957 972 1168 1673 1351 769 826 1048 1278 1616 1631 1770 1436 1447 1367 993 1146
374 740 992 862 1037 1324 1544 1660 1409 1305 1300 1253 1049 780 602 689 600 917 1234 1222 1160 1158 1092 619 636 768 583 483 826 1461 805 703 706 874 1130 1539 1615 1340 1570 911 940 1153 982
310 742 728 651 970 1106 1379 1319 1039 891 714 794 606 461 513 533 796 817 975 869 898 963 549 495 812 401 341 584 524 753 705 603 564 853 1297 1421 1548 1496 1384 1389 1145 1031 1097
107 268 444 576 760 963 1121 842 406 482 491 310 369 374 472 330 294 333 380 320 302 301 332 391 278 404 636 471 524 507 669 502 471 809 1261 1264 1366 1211 1456 1387 820 1029 919
13 173 334 521 389 657 592 501 330 292 375 305 204 445 264 104 21 142 104 179 188 317 194 91 150 319 269 370 428 458 476 261 336 595 1073 952 1383 1162 1078 1141 1047 1071 973
0 108 366 448 257 383 213 236 343 519 657 511 333 418 176 15 135 233 369 339 357 230 348 172 153 293 416 407 436 324 333 161 141 408 748 830 919 1211 1249 1285 918 1143 717
0 65 266 284 239 175 121 217 400 473 636 379 305 183 175 83 124 231 147 88 148 117 359 325 207 440 431 256 284 271 301 41 80 276 199 414 886 1130 1107 792 793 708 550
43 24 215 318 261 120 313 464 405 442 520 372 161 48 224 326 252 325 1 53 102 205 312 257 207 368 244 186 193 121 15 5 40 19 36 60 328 529 1094 889 498 357 297
61 49 162 280 280 154 369 293 283 264 434 291 120 47 347 179 175 326 101 196 279 373 191 101 275 195 173 173 210 142 96 77 0 0 30 39 54 43 55 230 436 302 299
83 66 122 267 333 211 463 208 237 307 205 252 160 258 592 220 221 92 59 216 382 228 33 56 130 112 113 141 189 306 227 250 364 155 186 131 146 167 95 72 2 206 290
61 48 57 220 231 270 246 125 213 263 298 267 171 394 535 649 160 0 102 167 0 80 110 75 38 88 83 59 103 149 117 107 301 390 315 326 452 500 469 524 257 151 167
35 38 71 189 85 147 275 183 128 281 312 324 233 434 620 710 623 354 256 453 30 77 75 61 41 113 56 33 55 25 40 0 1 191 236 231 302 488 590 540 519 392 295
0 0 85 123 73 96 178 193 144 208 289 442 355 514 757 705 717 542 544 432 357 35 34 19 45 33 22 15 12 73 52 0 13 4 11 49 82 157 353 442 508 483 416
0 0 33 0 7 62 82 127 120 195 225 351 438 504 898 944 1044 830 652 525 286 20 169 198 217 70 13 17 11 3 35 6 2 0 0 0 13 30 53 121 343 487 586
0 0 0 0 0 11 34 112 103 129 157 159 445 524 522 889 941 1067 794 626 378 238 117 274 432 323 257 32 37 126 13 0 0 14 29 23 40 70 50 154 220 271 343
0 0 0 0 0 6 53 101 55 89 168 156 132 360 520 618 950 879 908 863 680 233 386 290 285 370 441 450 381 355 63 6 22 93 96 78 120 97 41 68 148 213 221

GFSSE_con_mlcape_072.txt.gz
CAPE
20 765 1264 1543 1916 1788 1729 1345 1212 1728 1712 1482 1462 1313 1224 1201 1375 1836 1885 1768 2154 2139 1864 1796 1632 1530 1707 1776 1853 1643 1733 1954 1857 1577 1538 1631 1667 1557 815 835 1168 315 894
50 889 1363 1691 2035 1789 1825 1513 1174 1883 1961 1800 2016 1053 1041 1094 1158 1219 1775 1935 1876 1943 2002 1963 1781 1595 1415 1512 2089 1941 1988 1907 1879 1645 1397 1565 974 1117 1301 368 975 1150 749
186 1025 1391 1657 1965 2120 1788 1657 1232 2016 1857 1810 1763 1601 1455 1436 2039 1683 1194 1881 1823 1707 1815 1754 1945 1911 1709 1837 1928 1857 1795 1884 1996 1492 1366 1200 1248 1262 849 507 158 98 76
367 1023 1460 1620 1855 2071 1890 1744 1332 1913 1800 1848 1745 1866 1959 1494 1304 1855 1596 1319 1552 1666 1642 1497 1722 1886 2020 1958 1537 1954 1793 1719 1624 1264 930 620 915 1239 824 1263 1109 985 687
555 1017 1278 1643 1818 1957 1888 1774 1639 2043 1613 1985 1868 1809 1860 1830 1655 1581 1529 1441 1258 1483 1659 1760 1734 1857 1726 1376 1603 1794 1891 1842 1617 1095 786 637 902 1417 930 289 931 1239 829
563 1047 1610 1818 1904 1922 1895 1822 1814 2031 1654 1882 1690 1682 1632 1402 1648 1297 1527 1341 1421 1198 1499 1595 1734 1543 1543 1710 1469 1640 1830 1777 1363 1383 1669 1633 1501 1043 1377 193 442 1071 1077
666 1104 1494 1685 1894 1960 1976 1900 1716 1836 1805 1811 1713 1634 1495 1393 1475 1285 1137 1293 1260 1211 1320 1249 1538 1445 1642 1615 1791 2009 1822 1561 1422 1623 1513 1457 1457 1536 835 404 184 248 311
650 1123 1304 1505 1877 1920 1900 1903 1643 1759 1637 1579 1489 1593 1319 1549 1271 1156 1086 844 804 997 1211 1462 1324 1431 1735 1819 2073 2070 1746 1605 1399 1375 1229 1182 1630 1560 618 1383 1059 1314 1148
914 917 1178 1182 1459 1663 1671 1344 1624 1672 1592 1525 1671 1429 1413 1241 1273 1244 1193 996 870 876 1196 1295 1503 1716 1796 1644 1786 1795 1539 1313 1007 1398 1580 1670 1648 812 1072 1384 729 524 510
713 1048 1330 1367 1288 1285 1544 1585 1674 1618 1606 1450 1410 1322 1292 1088 1125 1002 971 1081 934 974 1195 1335 1488 1313 1632 1771 1642 1621 1312 1141 1061 1241 732 979 1275 1629 1735 1519 1425 742 743
818 890 976 1026 1186 1380 1437 1536 1626 1814 1346 1425 1268 1251 1001 914 1135 990 1206 1127 1015 1043 1240 1361 1308 1210 1453 1477 1940 1832 1004 735 919 768 1451 1614 1552 1332 1714 1576 1219 994 907
407 669 826 918 944 1037 1211 1166 1091 1209 1138 1136 1117 764 660 798 822 1153 1301 1291 1118 961 955 929 977 1232 795 817 1397 1597 799 670 799 980 1282 1340 1692 1711 1320 646 1049 1047 860
322 612 746 867 905 1038 1234 985 1070 1008 942 915 646 496 515 350 798 1036 1075 1004 1062 955 986 885 676 479 431 580 580 814 777 629 619 847 1238 1241 1554 1300 1220 1385 862 890 957
155 459 525 462 682 959 1132 769 738 621 612 524 432 381 373 259 369 554 641 605 513 402 396 469 344 422 724 575 606 751 714 575 506 757 1246 1224 1407 1243 1366 1245 713 818 736
94 298 263 370 489 709 671 471 430 409 374 261 273 337 324 157 36 149 164 239 291 449 324 187 345 473 414 532 563 592 683 459 434 707 1108 1131 1232 1117 1183 1176 922 994 894
64 101 213 255 366 510 229 61 126 228 289 322 205 405 231 92 59 157 214 278 371 321 416 234 270 361 676 480 556 514 501 280 321 447 830 1047 1217 1450 1294 1239 1047 1060 856
0 0 100 162 175 207 112 52 114 263 490 507 399 285 328 84 120 202 306 294 272 229 411 455 324 501 495 358 475 417 436 340 129 320 470 706 799 1148 1238 1149 839 769 636
0 0 137 249 86 96 104 102 114 201 367 462 269 156 247 192 106 249 201 100 165 255 377 417 310 477 308 289 316 269 292 96 52 149 203 197 310 550 811 1271 819 587 520
0 0 43 135 47 0 0 80 211 260 325 368 237 85 134 315 238 328 81 154 299 406 341 168 349 370 245 328 326 256 127 113 49 26 36 60 93 146 89 118 345 500 415
16 24 39 55 40 41 99 189 160 188 197 223 176 80 174 295 113 228 131 265 372 271 221 69 234 154 205 229 347 483 416 348 318 256 133 101 68 123 159 110 102 38 229
33 21 29 59 59 42 94 187 113 147 128 145 153 120 325 307 269 60 74 233 199 206 90 152 90 221 213 151 263 270 299 210 202 337 451 335 318 408 484 492 514 448 291
25 21 0 37 100 110 156 158 157 170 189 148 168 171 327 461 164 17 75 259 70 133 182 135 70 122 130 57 140 128 125 1 0 0 59 276 289 363 529 626 636 623 491
2 12 0 0 68 152 155 95 97 123 173 220 219 179 366 505 497 377 242 357 24 101 68 56 51 115 94 63 44 119 172 28 0 0 3 10 56 103 156 302 530 541 563
0 1 8 2 9 89 146 121 75 100 124 164 215 196 405 654 690 652 365 366 331 84 115 32 130 82 23 37 59 22 34 31 40 33 0 1 12 69 87 93 232 364 545
0 0 0 0 0 22 90 160 85 63 98 137 218 315 390 737 812 781 567 515 301 102 185 336 280 167 124 21 46 185 57 13 0 30 136 84 55 96 133 136 256 330 355
0 0 0 0 0 0 18 83 104 77 86 122 157 252 350 438 777 818 876 777 475 346 257 149 299 304 405 361 284 363 243 59 30 114 134 107 105 160 106 105 116 179 242

GFSSE_con_mlcape_075.txt.gz
CAPE
339 1089 1390 1786 1592 1384 1240 1556 1684 1501 1468 1415 1352 1323 1343 1536 2055 1867 1807 2222 1998 1800 1840 1637 1444 1693 1681 1822 1740 1768 1739 1764 1716 1667 1487 1360 943 978 1123 293 635 909 1110
461 1068 1506 1891 1671 1629 1287 1342 1995 1656 1797 1655 1039 1126 1104 1101 1507 2030 1850 1899 1992 1868 2011 1531 1592 1159 1692 2017 1971 2003 1951 1716 1644 1678 995 1134 1228 498 1219 1109 757 1095 857
533 927 1349 1904 1763 1801 1456 1341 2031 1656 2013 1665 1346 1180 1418 2112 1349 1290 1833 1742 1807 1959 1809 2035 1891 1796 1992 2018 1862 1789 1993 1786 1706 1582 1535 1018 1214 786 283 148 67 92 17
553 836 1240 1716 2120 1716 1635 1416 1966 1670 1942 1775 1896 1758 1353 1258 1576 1325 1550 1708 1604 1784 1759 1761 1902 2130 1664 1748 1987 1971 1962 1799 1504 1212 427 1237 623 1390 1337 1337 1185 985 1162
696 952 1338 1551 1945 1917 1850 1559 2018 1654 1700 1642 1206 1071 1397 1320 1254 1462 1456 1545 1663 1751 1911 1930 1963 1941 1367 1441 2124 2003 1856 1836 1426 653 650 1257 1130 474 944 1440 799 1253 216
725 927 1369 1753 1874 1869 1833 1684 1912 1625 1758 1589 1513 1370 1510 1323 1387 1523 1400 1375 1429 1685 1847 1892 1675 1442 1384 1528 2074 1937 1937 1817 1535 1833 1505 1515 1340 469 352 981 1416 581 517
692 1090 1457 1797 1877 1740 1705 1728 1798 1498 1710 1428 1226 1443 1396 1458 1258 1304 1358 1367 1378 1413 1473 1595 1667 1472 1416 2027 2112 1909 1790 1837 1792 1498 1499 1488 1399 511 336 348 401 1008 1166
684 989 1276 1695 1890 1926 1756 1627 1638 1613 1485 1360 1427 1358 1299 1360 999 1051 821 1012 1115 1349 1512 1539 1424 1504 1839 1880 2046 1849 1909 1685 1369 1135 1381 1536 1287 1066 1552 1282 1470 1290 974
786 928 1105 1342 1793 1824 1684 1537 1562 1533 1300 1439 1307 1411 1324 1033 1174 1132 1075 626 1031 1464 1537 1504 1704 1572 1780 1833 1986 1753 1563 1331 1371 1305 1229 1552 845 1353 1408 814 522 564 569
690 736 601 857 1376 1179 1264 1501 1507 1499 1445 1269 1163 1328 1158 1155 878 974 875 1026 1111 1387 1558 1680 1544 1859 1491 1706 1715 1467 1334 1174 1223 657 673 808 1705 1806 1621 1529 809 748 874
577 826 1177 1076 1195 1443 1370 1401 1424 1532 1282 1285 1231 1300 1141 1125 810 777 1021 1032 1160 1457 1568 1321 1482 1758 1670 1414 1846 1562 942 840 745 1049 1376 1448 1374 1720 1541 1461 991 1258 464
627 787 927 1029 1257 1206 1087 1381 1469 858 1287 1470 1249 1163 1120 1099 880 834 1125 1050 1040 1243 1221 1228 1533 1359 1056 1412 1754 1481 1096 934 889 1014 1010 1584 1620 1758 794 857 1347 919 1028
437 590 739 977 1100 970 1206 820 786 977 1017 1047 945 915 986 920 1091 953 1013 917 1062 1217 1178 1196 1081 1011 1198 1233 1211 1383 1363 871 733 960 1008 1106 1261 1325 1236 1411 817 1051 977
217 564 791 905 901 1143 1019 505 872 857 849 648 750 893 740 722 998 1292 935 1124 1030 949 1051 1149 973 1100 1261 1168 1292 1463 1356 741 527 854 1104 1232 1416 1255 1373 1088 894 755 752
120 405 701 896 1005 1239 1072 760 794 767 641 693 796 782 723 575 662 796 803 856 943 1115 978 812 1065 1135 1294 1255 1232 1368 1257 752 528 629 879 1126 1234 1182 1151 1141 950 985 806
89 288 379 488 858 1086 637 787 757 768 695 631 645 914 558 400 489 560 751 862 994 1015 932 916 1050 1128 1375 1132 1214 1285 1060 606 600 686 627 852 914 1354 1304 1244 1179 942 1006
85 264 287 447 624 734 476 495 543 585 646 886 812 745 796 508 468 802 942 1007 955 890 1136 1158 948 1247 1023 1137 1095 1093 1044 857 482 610 564 714 827 924 1161 1245 956 811 774
40 134 273 229 401 519 279 275 352 600 862 989 867 762 768 721 494 826 786 702 780 946 1090 1195 1055 1171 927 916 991 892 900 651 582 609 596 620 534 703 798 882 1192 880 673
0 17 123 276 240 298 231 261 407 547 694 922 885 674 601 684 706 746 896 677 843 1084 1086 748 1029 1055 863 926 833 897 787 722 755 444 638 640 689 678 643 433 198 322 592
0 51 164 308 226 268 251 249 370 611 702 816 722 712 356 790 754 724 655 816 1013 860 782 523 888 726 805 841 737 875 1079 1053 1107 1041 1003 780 777 796 825 951 944 768 334
5 19 128 220 139 128 52 181 549 430 601 624 762 604 438 880 594 553 651 858 921 846 731 577 682 810 774 714 770 669 798 919 868 866 1044 1088 1031 994 1055 1202 1332 1142 1008
3 11 104 186 144 160 220 489 557 568 618 617 746 695 680 986 901 606 314 658 651 730 565 699 473 465 597 480 597 593 405 296 278 311 473 661 957 972 940 1108 1326 1451 1418
18 24 17 120 211 188 264 470 414 562 626 549 524 647 660 900 1016 849 593 955 606 705 688 572 379 646 604 430 395 505 502 295 445 322 446 429 472 659 796 893 1014 1258 1379
19 42 89 144 231 318 317 352 420 508 455 542 624 757 808 1008 1234 1103 983 990 760 576 449 281 501 509 331 372 351 306 325 393 368 327 536 345 449 530 752 843 812 1018 1151
13 90 110 133 191 335 437 407 474 536 574 715 741 756 813 994 1283 1373 1159 1004 850 847 814 861 654 545 408 183 238 662 514 354 281 569 548 653 689 722 789 777 849 913 993
29 38 106 176 191 242 376 516 449 392 395 293 522 642 843 1120 1496 1568 1290 1302 913 977 603 886 1204 1006 1156 1031 899 959 961 564 507 745 794 875 685 772 820 884 1014 982 1040

GFSSE_con_mlcape_078.txt.gz
CAPE
873 761 1448 1465 1295 1506 1624 1611 1538 1486 1437 1442 1434 1467 1779 2104 1832 1857 2294 1896 2185 1839 1602 1717 1690 1760 1881 1885 1672 1691 1844 1638 1381 1484 1131 1175 1247 698 780 903 936 1012 1103
904 881 1593 1574 1361 1323 1587 1711 1539 1739 1372 1182 1168 1116 1158 1801 2116 1818 1831 1963 2052 2010 1647 1452 1283 1971 1995 1947 1652 1694 1654 1611 1347 1185 1274 522 1287 1063 1204 1274 855 671 297
717 923 1519 1595 1685 1276 1560 2100 1634 2147 1504 1164 1162 1690 1961 1209 1687 1961 1921 1938 1987 1960 2062 1800 2004 1945 1965 1747 1724 1802 1787 1762 1469 1351 917 295 317 234 141 182 124 333 470
629 838 1194 1517 1741 1343 1579 2110 1567 2033 1716 1969 1893 1391 1508 1625 1204 1758 1757 1709 1868 1941 1926 1903 1827 1576 1758 2002 2055 1929 1765 1646 808 672 485 184 1208 1380 1340 1140 1245 1223 436
635 719 1472 1940 1727 1526 1608 2122 1608 1994 1769 1436 1468 1595 1271 1350 1338 1502 1465 1605 1799 1666 1784 1982 1864 1522 1679 1896 1891 1830 1787 1219 776 727 1341 685 31 1288 1317 1223 346 232 933
620 778 1352 2033 1933 1801 1657 1996 1573 1846 1620 1452 1537 1567 1346 1454 1492 1514 1468 1604 1748 1835 1908 1802 1477 1432 1708 2013 1870 1889 1808 1659 1496 980 947 1045 31 686 1380 903 346 1014 1240
621 918 1188 1844 1869 1832 1744 1745 1481 1705 1601 1214 1250 1392 1244 1362 1341 1382 1350 1549 1590 1744 1618 1514 1496 1550 2139 2069 1853 1874 1903 1615 754 981 1287 858 289 358 459 740 1299 1228 820
727 920 1125 1715 1809 1757 1640 1666 1642 1481 1202 1293 1375 1238 1266 1237 1037 947 1270 1306 1494 1595 1645 1443 1474 1685 1979 2056 1852 2013 1782 1141 689 1359 1430 433 1366 1477 1420 1574 1355 701 910
740 799 982 1242 1662 1774 1610 1486 1568 1480 1407 1085 1397 1276 1086 1307 1221 1153 721 1344 1598 1580 1470 1657 1595 1597 2000 2014 1769 1623 1177 1225 800 1132 996 283 1375 1365 951 441 572 867 927
694 694 809 971 1258 1049 1140 1345 1504 1324 1252 1094 1257 1117 1164 905 956 803 982 1271 1488 1264 1411 1692 1608 1424 1721 1747 1576 1326 1024 1180 453 594 504 1322 1456 1520 1437 911 724 557 1175
630 466 337 469 781 1199 1085 1228 1261 1321 1004 882 1074 623 864 441 648 666 1011 1329 1556 1555 1573 1772 1360 1373 1340 1703 1616 1044 1221 530 543 863 896 1244 1591 1400 1472 1074 1510 863 504
325 337 518 772 1064 1089 683 887 952 834 951 762 796 850 395 545 743 463 918 1269 1474 1419 1373 1440 1306 924 1347 1179 1399 1099 356 681 506 519 1273 1545 1694 912 808 1369 878 841 639
191 195 460 956 964 734 964 659 395 500 759 847 955 610 452 404 637 301 721 965 1041 1348 1160 1446 1308 1172 1480 1266 935 466 473 330 440 432 525 1575 1379 1347 1578 755 892 985 1144
126 203 381 843 760 600 253 499 391 330 257 311 634 678 648 252 456 526 652 984 971 954 1255 1170 1180 1629 1669 1611 1389 967 272 92 308 455 443 1258 1119 1283 1532 707 856 734 719
71 219 418 652 836 496 390 540 413 234 171 241 380 652 405 370 641 742 1012 984 1113 1198 1073 1254 1455 1673 1714 1454 1359 1260 705 214 307 445 622 383 1033 919 1009 1026 810 952 685
21 178 442 576 739 621 697 765 592 448 534 397 430 503 705 377 686 857 1050 1079 1222 1138 1156 1318 1552 1521 1242 1393 1381 1306 923 666 733 883 943 867 456 1085 1064 1239 1239 826 878
2 189 346 405 454 633 780 949 680 580 691 770 797 1216 1043 730 1119 1073 959 1057 1179 1314 1535 1486 1327 1323 970 968 1224 1182 987 791 815 881 739 785 1001 701 497 829 872 744 749
0 204 327 188 178 489 740 968 695 687 875 954 961 1025 1403 1420 1337 1230 960 879 1099 1176 1251 1124 1177 832 830 744 759 684 674 719 899 893 769 749 608 573 799 645 715 925 836
0 198 355 334 130 215 652 729 825 1029 895 979 980 956 1320 1393 1396 1382 1148 995 1295 1164 922 926 986 873 725 633 543 623 673 727 834 656 932 993 782 682 544 628 470 413 454
0 60 267 379 187 198 435 588 591 650 738 901 950 968 1180 1323 1531 1338 965 1217 1437 1008 756 909 1115 971 781 699 470 430 440 497 702 663 716 735 821 1040 902 1121 1092 752 691
0 0 175 346 352 474 547 300 310 423 619 704 952 1248 1269 1351 1391 1453 1053 1359 1400 1049 1221 1213 1164 1106 395 693 195 185 127 309 354 358 472 507 732 850 954 1115 1321 990 874
0 0 172 394 484 583 378 240 430 545 626 728 992 1240 1156 1399 1697 1364 1175 1139 1321 952 1396 1417 1270 469 222 433 448 385 100 186 153 146 184 290 457 587 654 840 1061 1303 1419
0 0 170 409 472 385 349 764 1227 1110 1288 965 979 1047 1212 1426 1461 1553 1238 1164 1494 1350 655 1496 1228 1176 249 769 1077 666 402 148 414 210 493 223 538 406 582 807 878 1172 1545
2 10 182 480 509 522 824 752 866 672 382 489 742 773 1132 1467 1415 1380 1461 1583 1676 986 1089 1182 974 1233 942 253 547 400 843 693 414 291 284 226 288 312 539 620 715 906 1234
151 116 209 466 757 444 794 741 873 857 567 668 681 1316 1299 1727 1089 1201 1414 1579 1598 1264 1660 1316 1381 1494 687 340 167 312 813 580 1091 743 225 79 133 316 586 779 788 841 1216
232 226 275 512 782 996 997 1083 967 774 723 527 618 985 1036 1127 1259 1398 1110 1280 1354 1164 1640 1396 1211 1607 1435 1393 681 484 305 362 575 727 539 504 508 661 878 948 953 1232 1465

GFSSE_con_mlcape_081.txt.gz
CAPE
781 770 1326 1424 1673 1946 1764 1682 1608 1526 1494 1517 1632 1976 2089 1917 1975 2314 2112 2388 1774 1884 1822 1935 1939 2075 1769 1717 1759 1666 1264 1479 1241 1268 1369 790 871 957 818 733 840 70 888
763 712 1410 1375 1586 1494 1474 1403 1439 1413 1412 1292 1260 1386 1958 2100 1876 1938 1952 2115 1919 1768 1299 2045 2044 1942 1811 1848 1729 1775 1509 1394 1197 707 1390 1117 1238 1144 745 525 177 330 1193
668 641 1008 1293 1255 1783 1937 1648 1646 1234 981 1102 1479 1373 1241 1863 1984 1970 1954 2067 2151 2034 1950 1883 1876 1865 1818 1927 1837 1718 1412 1329 1224 1072 565 0 11 187 119 304 439 937 1145
577 493 599 1378 1246 1641 2036 1557 1858 1734 1784 1555 1465 1597 1601 1232 1895 1905 1817 2061 2072 2066 1950 1791 1560 1934 1770 1975 1896 1734 1083 577 686 749 786 845 855 1316 1288 1149 662 974 855
718 457 795 1450 1278 1552 1914 1557 1656 1768 1611 1556 1553 1406 1598 1434 1589 1578 1786 1917 1935 1930 1964 1532 1647 1916 1889 1672 1715 1384 742 722 1059 686 103 90 838 1218 1071 358 622 673 845
650 966 1376 1654 1439 1657 1670 1574 1545 1653 1507 1564 1630 1564 1628 1657 1612 1594 1765 1909 1898 2049 1820 1485 1449 1687 1889 1692 1700 1608 1589 1513 870 833 114 1 433 1332 418 860 1178 950 978
705 877 1410 1641 1703 1642 1739 1597 1667 1697 1305 1572 1557 1493 1596 1396 1553 1537 1704 1797 1926 1702 1682 1688 1579 2011 1864 1779 1719 1723 1686 1126 1252 1000 210 165 176 542 1308 1297 927 1005 824
526 624 811 1236 1721 1690 1556 1605 1617 1338 1367 1292 1480 1399 1450 1329 1461 1546 1639 1603 1766 1687 1582 1610 1971 2116 1888 1906 1820 1534 1347 1305 841 642 271 1240 1216 1125 1285 898 843 723 967
740 479 816 1148 1476 1556 1665 1596 1480 1357 1410 1521 1291 1142 1431 1386 1080 1281 1536 1661 1632 1537 1622 1843 2049 2070 1852 1716 1172 949 1001 1182 1046 659 339 833 1118 974 472 704 1004 1060 1202
392 377 822 762 703 881 1103 1464 1353 1407 1209 1285 1163 1311 978 1050 1119 1176 1270 1535 1484 1386 1571 1546 1662 1869 1586 1230 748 989 1121 981 721 357 1023 1122 1483 1222 977 742 352 976 1013
353 405 654 642 862 903 894 1055 1284 1049 1201 985 685 815 757 1089 892 932 1377 1648 1702 1656 1563 1449 1432 1575 1415 949 880 1064 1322 977 609 611 714 1359 1299 1086 1113 1399 903 689 596
146 104 353 684 661 899 324 1063 590 796 660 655 709 1107 1068 724 378 379 1300 1635 1461 1515 1253 1156 1465 1804 1740 1668 1292 1244 609 369 470 938 925 1581 954 891 1066 867 1031 927 561
134 397 735 816 866 714 381 757 734 498 825 579 812 227 179 518 348 491 1078 1167 1450 1505 1490 1531 1367 1424 1109 975 395 277 391 388 415 184 1271 1371 1359 1245 932 730 783 1055 916
104 202 807 695 476 166 325 589 238 308 226 378 250 387 420 298 412 795 910 606 945 1438 1212 1241 1237 1443 1259 955 555 255 165 296 478 247 827 776 1018 1557 1232 597 755 624 711
74 139 495 454 591 267 577 183 236 75 240 213 498 455 439 725 867 872 1132 829 976 1022 938 1202 1491 1545 1283 1095 907 616 148 291 414 557 143 364 554 568 792 863 684 934 933
62 181 435 402 357 445 721 472 292 285 160 266 285 518 806 702 994 965 1128 1296 1196 1419 1385 1447 1383 1431 1183 889 1022 830 633 667 878 1077 1125 650 474 550 508 940 1014 718 635
28 208 338 340 366 725 559 382 527 259 347 313 419 861 931 901 1523 1189 855 891 1108 1270 1695 1392 1483 1177 1000 789 969 836 713 842 709 775 881 1170 925 589 455 478 516 535 560
26 194 333 148 231 508 648 850 435 725 510 799 424 523 979 1358 1218 1517 1008 923 817 1376 1069 1096 1332 767 837 773 711 745 474 603 672 599 527 802 551 1104 901 665 550 565 673
15 242 245 188 110 513 783 710 586 873 935 922 896 962 1180 1387 1414 1856 895 987 1406 962 833 746 969 877 745 632 449 444 398 431 790 409 671 647 397 611 734 843 696 616 491
19 223 314 202 48 545 749 723 611 479 680 773 832 1402 1354 1396 1594 1828 916 1006 1375 935 919 996 1425 907 657 607 325 223 302 266 259 377 586 641 589 876 806 915 1222 1122 686
1 89 337 303 242 349 553 388 155 198 448 508 1089 1178 1308 1256 1502 1466 1075 1165 1190 1120 1068 1031 921 905 447 122 710 284 35 177 316 188 359 402 502 727 549 875 1217 1032 1087
0 0 245 389 501 438 428 352 116 252 106 470 1147 1063 1288 1448 1623 1341 1403 1208 1428 1120 1221 1241 1375 1432 23 331 601 606 447 172 96 183 181 182 387 444 484 804 687 1029 1363
0 0 193 451 612 675 460 444 878 1085 1083 435 978 888 1193 1239 1456 1621 1455 1550 1481 1284 961 1268 1033 563 953 164 724 580 786 410 600 255 332 238 266 385 484 595 720 1086 1331
0 0 192 478 625 570 603 500 901 528 132 283 526 787 1545 1377 1332 1423 1412 1528 1644 1173 1420 975 551 1642 1099 686 221 350 818 991 1149 495 110 103 198 446 529 669 814 819 1066
4 0 285 579 669 513 673 1145 885 1065 606 621 615 1470 1254 1571 1324 1076 1556 1540 1582 1392 1182 1153 1292 1222 743 636 248 267 147 166 277 631 154 58 159 365 598 887 713 842 1221
45 1 172 693 959 749 845 1179 1275 989 841 1015 433 830 973 1222 1051 1347 1268 1595 1427 1273 1585 1527 1477 1563 1426 1843 1406 271 317 329 822 905 454 512 447 683 810 874 909 1063 1231

GFSSE_con_mlcape_084.txt.gz
CAPE
913 1072 1312 1424 1569 1798 1776 1802 1730 1624 1552 1654 1914 1922 1659 1967 1908 2041 1913 1965 1992 2060 2073 2106 1884 1696 1766 1685 1381 1447 1073 1443 953 1080 1326 1260 1178 841 735 390 548 975 1027
799 1234 1527 1598 1728 1689 1583 1425 1314 1312 1257 1219 1332 1940 1841 1718 1758 1928 1967 1880 1662 2038 2062 2000 1800 1922 1777 1766 1359 1471 1385 1120 1461 895 1011 934 769 472 296 373 1246 1065 884
710 909 1353 1625 1518 1415 1586 1648 1114 1049 1061 1353 1079 1326 1868 1871 1907 1860 1987 1897 1834 2026 1814 1874 1866 1898 1969 1572 1485 1462 1397 1269 995 1010 1 21 216 613 570 844 1189 1140 566
321 282 582 1276 1930 1709 1599 1394 1766 1758 1610 1544 1426 1357 1312 1849 1549 1749 1902 1932 1895 1835 1782 2003 1966 1974 1837 1740 1494 1092 676 637 1031 710 642 444 893 1089 959 944 955 986 551
242 433 866 1182 1819 1687 1828 1703 1751 1634 1527 1646 1576 1504 1398 1645 1645 1772 1902 1896 1858 1714 1623 1934 2033 1662 1514 1383 936 694 832 798 800 70 497 902 793 942 735 1062 739 741 1063
352 657 1180 1261 1746 1644 1640 1672 1647 1594 1642 1547 1478 1658 1691 1636 1752 1855 1766 1876 1965 1656 1600 1300 1832 1855 1349 1396 1446 1383 1490 1043 209 0 30 934 653 689 1261 835 651 815 1084
409 529 1237 1341 1692 1618 1572 1495 1446 1417 1422 1488 1358 1466 1596 1658 1685 1857 1923 1932 1763 1661 1729 1613 1933 1627 1554 1542 1478 1549 1596 1039 800 164 82 309 953 1287 1198 1136 717 1068 515
520 644 1024 1407 1519 1517 1597 1574 1372 1293 1447 1515 1545 1537 1558 1593 1674 1751 1773 1710 1565 1657 1658 2072 1863 1645 1468 1276 1168 1054 1249 1495 409 1284 1073 1130 1077 1296 648 939 889 978 562
479 593 714 1143 1518 1651 1581 1428 1321 1535 1438 1367 1200 1382 1078 1152 1595 1694 1732 1564 1531 1671 1841 1967 1730 1535 1109 817 862 839 1319 1003 462 872 995 981 853 534 823 973 1246 1004 560
273 444 633 1013 1067 855 1250 1377 1315 1265 1415 1069 1365 1279 1287 1040 1315 1535 1585 1553 1595 1575 1618 1866 1652 991 478 670 744 865 1279 1278 891 1011 889 1335 1133 1067 660 370 612 762 536
411 536 666 862 841 942 1023 1271 1241 1150 862 928 1043 651 940 1117 1014 1108 1283 1517 1535 1413 1433 1729 1445 1369 1293 925 749 771 1297 1026 654 995 1192 1369 1055 1167 1488 797 665 558 176
518 529 765 702 821 763 382 992 945 781 938 942 915 706 479 868 531 812 1401 1554 1401 1300 1434 1604 1108 358 1486 1269 1085 1134 1536 729 1080 998 1458 798 797 1011 816 1041 1116 699 393
331 763 704 891 933 586 675 927 720 528 834 809 915 872 885 41 251 857 1143 1354 1381 1310 1462 1369 1764 1644 1639 1878 1331 221 238 537 600 621 597 1044 1082 1385 520 710 758 908 502
497 711 311 616 440 745 725 891 528 707 300 536 496 161 448 895 780 1043 1225 1302 751 1020 71 1003 1626 1790 865 615 219 166 274 401 395 351 487 422 1180 1478 643 590 625 523 702
632 467 206 439 84 880 477 809 501 453 452 13 210 291 852 480 968 991 316 715 950 1412 750 529 768 892 1004 1302 712 148 185 694 458 187 160 129 322 829 740 629 529 882 899
366 252 256 581 255 657 963 216 133 218 269 571 414 465 961 847 1315 601 817 995 939 1570 1318 0 893 1442 710 991 486 762 557 613 938 458 255 336 300 260 477 828 730 475 409
150 315 309 85 492 950 443 192 702 439 636 596 484 999 920 1284 1180 644 62 488 1164 1547 1835 1098 1563 1069 1072 1021 671 607 810 837 727 939 1037 798 599 641 457 413 415 355 365
156 199 269 7 555 298 183 737 210 244 542 706 888 788 1448 1219 1274 1563 910 482 1180 383 1122 676 1253 739 719 924 796 881 803 473 597 700 803 1105 1142 852 621 536 368 406 447
153 175 273 38 376 506 225 1034 403 74 421 519 841 787 1215 1209 1323 1435 1140 689 1771 794 906 865 828 752 886 503 455 665 701 611 730 675 711 773 285 1239 1156 744 706 542 419
32 166 296 51 441 822 527 978 738 633 583 676 893 1171 1446 1409 1456 1464 1544 1095 328 1299 960 743 796 474 707 189 379 513 522 335 453 665 623 782 584 741 1145 1195 1132 972 570
4 191 361 241 431 801 601 612 337 445 813 1027 1316 1654 1180 1148 1483 1565 1554 1154 354 760 837 1595 1334 1301 815 826 1380 704 157 21 202 340 629 713 572 921 759 976 1526 1397 849
8 169 390 448 194 810 301 481 646 815 768 924 1051 1253 1448 1440 1330 1468 1157 1312 928 949 1434 1312 407 1332 539 521 858 1098 474 398 408 266 272 337 386 654 742 952 896 1081 1255
30 113 382 639 290 500 502 474 886 828 897 963 956 1255 1186 1390 1531 1375 1570 1400 1107 442 1109 1315 1418 327 561 540 789 504 909 805 1193 251 177 238 314 642 578 478 1000 1172 1341
3 77 374 967 495 577 920 393 583 534 590 536 826 1317 1279 1168 1389 1317 1486 1609 1096 504 222 1108 1002 1127 1051 849 864 183 727 315 986 790 267 90 449 466 623 947 907 1063 1037
0 16 360 837 692 487 933 750 413 374 638 303 1148 841 1286 1361 1544 1181 1551 1536 1436 1278 757 1454 1131 1116 1332 1225 1545 486 502 1031 701 1002 242 134 342 585 610 938 810 985 1222
3 10 363 721 953 995 504 630 770 805 405 179 302 406 926 1179 1332 1411 1631 1665 1463 519 68 1681 1396 1435 1480 1748 1069 939 1088 208 580 1094 950 779 422 682 870 825 849 1186 1293

GFSSE_con_mlcape_087.txt.gz
CAPE
693 1074 1202 1433 1689 1880 1835 1760 1592 1485 1538 1821 1605 1588 1966 1970 1924 1958 1939 2061 2023 2106 1874 1768 1821 1623 1408 1173 923 1066 983 1230 1440 1288 1152 958 685 814 1007 1030 912 1077 1191
777 1197 1348 1629 1643 1541 1323 1089 1076 1028 1039 1353 1899 1651 1754 1874 1959 1890 1830 2044 2093 1934 1894 1981 1810 1721 1245 1497 1268 1127 1142 1351 1263 1049 767 539 374 646 1207 1021 593 688 1075
1014 1351 1407 1612 1338 1218 1295 1075 981 864 1121 952 1536 1801 1819 1851 1851 1924 1862 1918 1826 1844 1896 1871 1880 1394 1409 1545 1417 1169 822 1047 764 113 291 888 700 866 1019 1056 868 322 710
1066 1279 1329 1434 1319 1310 1275 1337 1486 1475 1497 1353 1178 1602 1751 1696 1905 1953 1873 1704 1874 2013 1945 1930 1879 1686 1583 1211 1190 1038 691 720 715 596 623 483 416 988 1082 1139 1035 622 981
301 609 1465 1498 1530 1733 1777 1646 1456 1388 1611 1515 1366 1322 1596 1592 1778 1920 1915 1928 1703 1841 2091 1836 1390 1249 1038 819 1038 872 1046 893 1001 836 587 539 847 1154 1167 921 1065 1033 429
132 543 1559 1571 1472 1656 1601 1505 1598 1594 1410 1475 1643 1471 1678 1674 1883 1824 1910 1864 1641 1437 1754 1788 1560 1221 1312 1518 1482 1114 612 135 109 446 284 544 891 1055 650 607 1146 1170 875
145 634 1474 1526 1500 1511 1476 1456 1515 1477 1421 1398 1628 1691 1606 1602 1708 1880 1872 1786 1820 1617 1793 1760 1527 1348 1502 1454 1055 1024 1058 224 17 42 398 880 1088 1017 1039 1061 1038 441 646
372 596 1254 1396 1428 1439 1355 1249 1321 1321 1408 1525 1439 1427 1577 1671 1774 1812 1616 1739 1634 1237 1953 1655 1283 1212 1119 1250 1053 1123 1194 841 887 740 625 968 1103 678 844 1260 1170 341 416
698 688 1027 1254 1363 1417 1235 1208 1249 1320 1441 1462 1234 1397 1509 1675 1708 1706 1562 1562 1759 1905 1867 1517 1037 816 958 1008 1123 1293 1128 1022 688 575 489 409 534 868 992 1317 768 495 549
455 574 917 1067 1126 1100 1133 1163 1363 1340 1208 1217 1326 1137 1361 1594 1633 1528 1604 1751 1824 1871 1968 1574 1004 791 704 857 964 822 1372 1088 854 582 816 983 1022 361 435 525 647 493 354
322 609 670 764 778 823 1003 996 1042 1162 715 744 827 998 982 903 1113 1275 1287 1660 1696 1664 1570 1243 608 692 885 892 1178 933 848 866 652 582 1133 1005 1066 1554 719 588 497 193 102
384 571 710 624 565 539 713 442 459 395 331 381 477 774 829 791 837 836 1322 1649 1639 1159 1387 1321 1112 913 1038 771 719 1436 1095 1037 894 782 356 300 1248 885 774 1049 686 377 256
428 519 426 359 405 363 336 357 146 496 666 549 381 431 773 806 912 997 1217 1277 1247 472 639 927 811 739 1061 1459 1485 1224 1166 774 516 698 286 481 981 446 677 639 1030 581 464
139 419 434 536 433 557 441 352 93 298 495 607 831 520 200 286 662 611 993 1054 576 963 501 962 1251 1600 1667 1645 1285 149 564 491 229 9 300 443 989 445 433 381 358 406 583
373 418 504 433 409 536 636 439 190 271 253 243 239 273 622 409 803 594 599 826 974 196 592 27 500 916 658 519 46 47 197 286 22 15 37 234 843 972 349 399 473 773 643
183 199 11 6 285 738 733 224 273 490 0 79 269 691 726 566 492 222 640 701 589 1040 630 177 609 889 737 473 234 173 383 372 234 51 18 155 302 440 489 539 494 314 271
144 192 80 276 532 461 271 546 362 253 207 290 603 429 722 565 202 425 186 445 905 1267 803 874 977 1363 861 360 637 492 515 525 337 302 174 219 300 250 441 632 427 286 274
123 66 0 335 460 129 297 262 193 448 386 410 715 771 1047 701 587 610 309 655 512 549 843 539 797 488 539 717 604 440 682 378 373 591 744 566 484 481 451 468 453 319 305
41 2 0 33 0 216 361 146 48 224 322 541 269 835 858 1078 1157 1021 828 617 1207 746 826 810 649 773 682 436 738 741 607 258 440 712 813 805 757 863 540 508 757 538 348
39 110 12 47 0 26 626 139 9 142 492 800 643 819 986 1083 1185 890 1479 989 863 841 731 857 582 320 533 190 306 368 536 455 510 568 424 489 715 875 893 822 895 956 542
10 39 85 199 0 97 457 542 471 82 397 751 912 989 748 842 1364 1141 1110 249 572 467 642 1286 985 1135 1122 790 807 634 360 9 180 510 536 587 513 813 990 966 1072 1077 925
29 33 133 311 524 95 507 272 391 485 545 838 911 1044 746 826 1163 1085 1131 735 695 736 1383 983 506 620 485 484 545 330 272 134 166 207 535 656 562 834 969 900 1095 941 965
60 0 355 199 293 330 138 512 1034 713 633 924 1183 897 1355 1331 1216 1021 1048 927 486 462 624 908 1387 422 633 563 458 530 663 516 701 124 107 316 53 634 699 806 789 840 888
61 93 393 107 65 50 604 285 574 542 481 587 608 777 1033 1049 1320 1358 1291 1032 1023 466 485 430 1325 1212 154 440 840 398 576 287 716 407 272 69 327 549 484 419 684 866 933
0 134 462 216 51 39 410 865 492 632 321 397 723 914 894 1097 1178 1193 1121 1127 597 681 177 686 1333 935 1120 1398 1207 1039 849 680 1253 891 416 63 125 334 398 489 792 827 878
60 144 437 406 287 70 518 821 560 419 271 290 703 560 573 1025 1136 914 1357 1192 984 571 442 841 1342 1201 1085 1017 1333 1033 951 740 738 1034 968 815 221 326 418 706 493 971 974

GFSSE_con_mlcape_090.txt.gz
CAPE
604 1059 1306 1643 1803 1785 1820 1716 1619 1749 1668 1523 1923 1879 1964 2025 2132 2133 2105 2192 1961 1900 2014 1773 1550 1022 1112 509 1226 1403 1405 1381 1240 1077 838 828 1163 1121 1077 1085 1085 1029 1052
714 992 1474 1831 1832 1688 1389 1155 1130 1198 1822 1660 1627 1753 1947 1840 1763 1995 2075 2094 1925 2026 1882 1749 1335 1394 1129 1089 951 1319 1379 1224 1149 1018 690 601 1093 1026 525 595 1092 1079 1075
752 896 1339 1554 1381 1083 1212 1136 883 883 1299 1835 1767 1730 1792 1780 1648 1850 2072 1959 2107 2037 1809 1616 1563 1657 1399 1171 1113 1041 822 585 497 662 615 698 1084 1048 923 348 688 948 1103
877 1171 1512 1131 1348 1230 910 1068 1687 1495 1289 1312 1721 1745 1870 2079 1861 1800 1886 1980 2034 2025 1977 1872 1800 1649 1594 1368 1008 915 863 875 1093 625 459 628 1031 1227 1063 805 791 1210 938
1061 1020 948 1328 1312 1670 1725 1563 1372 1625 1566 1311 1643 1687 1662 1962 2033 1993 1893 1845 2028 1925 1964 1612 1604 1551 1159 1232 1122 854 1094 1135 964 537 540 803 1149 1156 1079 1104 744 323 356
652 1209 1473 1597 1605 1799 1594 1543 1637 1584 1680 1638 1582 1714 1873 1924 2016 1941 1740 1777 1969 2115 1548 1303 1182 1373 1448 883 835 988 1603 1309 616 330 668 1045 655 620 956 1171 940 460 358
444 1318 1264 1399 1571 1548 1576 1608 1589 1548 1729 1864 1807 1818 1815 1824 1926 1984 1818 1806 1708 1989 1916 1402 1398 1689 1279 1055 807 849 465 199 59 409 819 940 1071 770 1340 484 819 396 416
487 1274 1273 1375 1432 1462 1414 1518 1521 1475 1496 1591 1780 1650 1669 1824 1821 1810 1960 1985 1856 2011 1728 1585 1672 1768 1002 1301 1173 1366 1044 870 531 649 933 718 888 1072 1298 1049 336 475 470
676 926 1144 1241 1302 1345 1292 1402 1444 1500 1559 1439 1516 1584 1783 1841 1719 1765 2018 1650 1890 1818 1619 1507 1404 1453 1388 1341 1439 1645 1530 791 112 58 124 423 941 1124 1355 747 495 580 798
577 728 966 1110 1145 1027 1230 1260 1287 1235 1354 899 1242 1529 1770 1771 1733 1745 1708 1951 1858 1774 1546 1315 1209 1186 1085 1127 1460 1568 1592 1095 573 509 297 537 401 1138 991 720 462 357 445
295 527 835 807 744 696 975 1181 1114 1060 1056 1244 1008 1456 1614 1347 1375 1442 1864 1854 1787 1672 1449 1108 763 765 990 1195 1274 1504 1175 725 434 631 478 1125 1197 603 463 365 222 99 100
189 283 566 529 534 629 911 875 814 553 322 664 795 868 683 881 1059 1295 1640 1663 1421 1295 1341 1478 1105 986 1172 712 764 1430 1013 658 462 605 492 1066 1530 656 777 648 296 152 55
312 416 482 477 280 315 607 418 282 175 244 326 597 726 696 669 972 1195 1436 1198 366 644 573 560 748 480 1005 949 1083 674 1043 828 522 279 160 474 497 740 1005 1218 709 349 322
346 366 419 258 251 227 323 144 181 385 516 405 281 465 540 669 599 739 877 785 716 817 680 641 976 1199 1477 1573 1406 1308 836 491 143 102 155 537 656 355 472 374 489 310 358
241 295 235 245 329 259 252 109 101 375 542 530 479 253 360 483 357 706 691 594 445 133 469 21 490 802 574 383 205 637 502 91 0 3 185 437 809 565 384 438 492 512 477
224 238 240 301 461 416 319 212 99 427 162 195 156 175 449 477 554 322 526 592 720 678 356 217 472 791 722 133 234 323 252 174 74 6 26 262 527 799 628 553 456 418 361
203 251 333 320 420 607 486 240 217 254 59 400 534 575 435 472 328 264 551 519 847 1060 685 539 818 1101 839 365 246 209 209 154 139 18 39 81 207 397 436 607 719 545 331
151 29 21 546 566 566 565 338 285 162 185 493 467 581 444 230 240 207 155 491 809 856 719 422 675 574 541 446 458 312 337 325 186 258 187 255 303 254 309 590 554 397 354
50 0 227 337 224 252 242 230 305 201 383 584 549 807 538 724 710 825 404 579 639 505 663 700 551 655 590 513 507 642 535 326 279 444 567 567 507 584 396 293 773 606 390
9 0 118 167 117 385 73 164 132 285 334 468 488 770 855 1022 1027 1077 662 744 862 744 719 725 555 286 574 180 287 305 299 536 295 531 605 807 663 699 723 545 632 932 713
0 0 0 0 26 351 211 39 168 252 482 530 483 763 938 934 972 1133 1188 536 500 355 477 932 883 797 776 852 452 524 270 223 412 448 547 541 576 763 879 844 866 856 958
3 8 0 0 73 150 382 328 248 258 360 688 967 911 719 735 1032 872 1024 247 502 656 1167 783 686 384 331 492 629 204 159 64 142 278 514 564 529 644 872 923 988 931 805
65 70 88 0 16 106 466 453 551 501 532 780 795 783 921 859 1009 1060 980 752 524 501 583 768 1064 634 486 621 745 456 543 312 485 182 237 538 591 527 659 813 862 815 812
48 110 178 151 29 100 189 457 582 575 468 456 656 658 991 1177 1033 943 986 928 696 134 317 254 1138 829 309 932 783 865 803 405 716 325 198 301 59 311 558 588 560 643 672
31 150 220 206 143 177 355 231 353 551 425 453 553 816 586 811 1093 1164 1116 833 676 315 185 426 1180 940 1268 1027 958 832 679 565 979 862 608 184 65 211 286 298 287 357 645
84 158 171 163 90 6 183 529 540 526 330 482 576 632 683 617 705 1116 1034 882 618 523 413 701 1179 1194 1151 845 870 756 859 1054 1186 1086 867 780 215 147 192 212 350 591 628

GFSSE_con_mlcape_093.txt.gz
CAPE
420 967 1286 1673 1714 1756 1598 1637 1334 1352 1652 1822 1851 1980 1901 2037 1992 2012 1929 1724 1686 1619 1526 1061 1111 547 613 783 1058 1432 1449 1326 978 730 1261 1187 1125 1074 1102 1046 945 949 1047
621 803 1398 1500 1696 1681 1687 1489 1828 1720 1461 1824 1914 1791 1810 1922 2043 2059 1880 1834 1888 1748 1202 1138 1054 895 1393 1351 1363 1060 1226 1133 961 793 804 1062 713 742 1118 1073 957 839 1013
645 1044 1089 1421 1553 1273 1145 1154 1175 1750 1627 1593 1716 1894 1736 1783 1994 1946 1933 1851 1957 1798 1492 1427 1060 1223 1192 1191 948 902 1068 897 663 643 1157 892 1109 448 485 878 1033 1121 1034
700 1083 1443 1191 1108 1169 995 906 905 1194 1672 1925 1691 1842 1813 1840 2061 2019 2043 2111 2020 1614 1648 1695 1522 1312 1223 1220 1286 925 1079 1160 957 800 725 930 1102 1168 660 1140 1124 1096 1184
772 1301 1044 1282 1139 1114 1376 1706 1461 1237 1357 1862 1742 1985 1950 1919 1983 2126 2150 2158 2171 1883 1905 1753 1689 1399 1323 1218 1231 1243 1289 1102 767 533 847 1020 1015 1046 1119 482 463 494 770
945 601 1229 1492 1760 1620 1481 1644 1527 1602 1327 1635 1707 1755 2022 1969 1985 1840 2117 2310 2128 1670 1675 1736 1556 1481 1070 1229 1377 1577 1519 1258 794 846 898 693 578 1236 1293 1234 378 402 392
565 1251 1546 1657 1710 1630 1573 1657 1674 1700 1751 1715 1720 1673 1926 1997 2044 1916 1940 1916 1957 1590 1355 1659 1639 1373 1321 1438 1586 1974 1488 777 392 693 785 940 716 1199 433 1119 427 435 469
843 1047 1328 1514 1616 1620 1687 1676 1631 1800 1928 1885 1769 1742 1910 2044 2126 2150 2074 1902 1915 1813 1735 1584 1168 1485 1318 1440 1272 844 514 679 673 764 687 771 915 1438 1012 367 524 465 458
1092 986 1111 1209 1398 1484 1423 1602 1568 1571 1610 1818 1782 1830 1981 2034 2061 2175 1912 1794 1861 1635 1691 1771 1518 1420 1536 1682 1606 1649 1448 787 587 764 380 728 1063 1532 982 620 670 884 1090
882 911 1051 1134 1195 1185 1175 1472 1588 1659 1486 1704 1723 1882 1903 1879 2029 2136 1968 1952 1665 1555 1525 1638 1463 1352 1503 1594 1595 1511 1146 490 164 109 296 822 1296 1747 1154 523 473 520 481
670 641 909 1077 976 1061 1157 1166 1279 1383 1138 1215 1606 1859 1342 1233 1745 1734 2015 1931 1752 1565 1470 1354 1277 1179 1184 1616 1898 1917 1546 623 449 329 527 535 436 473 450 371 154 134 88
176 532 804 742 679 819 1049 1083 770 902 1054 1054 1205 1195 919 1069 1309 1768 1808 1874 1880 1642 1314 1056 736 840 941 780 1280 1483 739 376 395 493 412 1309 1476 733 699 522 202 56 16
86 393 552 466 475 575 730 539 486 358 514 639 801 711 767 939 1275 1132 1052 941 439 824 766 618 547 366 814 919 911 774 995 738 425 382 198 1331 1116 805 1190 1207 564 358 369
123 196 381 391 230 244 387 341 285 270 379 466 636 629 681 671 836 784 773 751 682 720 481 683 886 976 1172 1409 1426 1234 753 679 300 184 39 603 609 608 744 566 670 509 469
208 255 260 218 156 106 113 156 230 447 569 454 385 506 593 427 381 700 641 589 490 246 334 204 538 697 648 248 684 992 712 396 30 16 12 578 980 613 549 582 579 646 705
208 190 261 212 248 142 105 92 132 396 457 472 456 309 467 506 510 581 564 644 719 678 521 314 568 905 504 43 270 380 411 334 15 0 54 408 790 782 733 554 617 624 641
132 171 172 245 363 278 203 177 143 433 164 188 142 245 476 483 480 312 583 640 735 1047 825 706 746 827 392 224 303 293 209 219 39 39 37 80 246 567 654 709 735 829 677
100 106 142 317 331 389 276 174 155 204 138 411 298 537 476 482 331 239 336 417 801 848 776 442 550 597 507 472 409 237 250 232 152 135 49 172 214 226 205 603 695 639 507
158 101 165 329 419 529 383 166 263 120 249 461 407 513 460 272 317 416 239 493 477 716 569 706 607 539 582 507 437 538 481 476 274 276 285 371 410 517 498 368 481 801 737
116 131 163 344 229 333 352 247 189 178 244 384 531 546 473 637 778 1076 634 557 732 664 691 930 638 426 615 489 314 398 338 369 427 326 518 590 718 627 629 674 548 620 846
28 0 285 136 184 99 150 182 227 224 381 471 470 624 790 812 1003 853 1032 660 500 375 535 943 782 637 689 575 439 390 265 159 429 455 453 571 663 722 719 769 802 787 743
52 52 124 10 170 116 88 131 226 178 256 359 429 703 814 838 987 976 935 281 494 681 921 816 912 344 399 559 521 195 132 47 163 176 383 568 586 494 581 771 807 829 830
82 40 23 0 62 246 117 135 319 320 417 570 619 747 683 554 903 944 910 519 641 610 595 604 927 877 514 709 648 470 490 381 413 180 178 371 638 598 530 496 579 681 752
37 22 0 0 0 105 276 284 349 363 391 346 503 682 702 823 915 836 875 771 589 327 421 333 988 687 719 713 757 774 614 582 899 428 183 328 373 451 213 359 506 559 569
45 45 26 0 16 53 242 322 430 289 346 391 351 457 521 704 1013 812 866 801 646 465 131 292 1017 987 1175 953 721 801 632 612 722 841 631 292 119 37 121 199 264 230 210
76 117 86 0 0 60 124 159 304 359 352 378 426 401 607 444 562 841 996 908 646 561 389 408 986 1069 1013 802 660 624 620 1004 988 1102 814 795 519 183 281 138 189 361 678

GFSSE_con_mlcape_096.txt.gz
CAPE
394 868 1436 1512 1561 1680 1462 1583 1559 1714 1775 2078 2149 1821 1996 1737 1657 1725 1744 1661 1629 1180 1286 626 706 746 807 1397 1623 1551 1276 939 1261 1141 1213 1235 1157 1098 1056 1056 1059 1010 1030
512 961 1317 1391 1523 1225 1655 1775 1312 1756 1405 1851 1918 1716 1869 2014 2037 1852 1605 1495 1617 1140 1000 659 1409 1503 1454 1472 1481 1455 1240 1005 912 1350 1172 672 886 1168 1105 1069 1108 1057 888
484 1000 1196 1435 1575 1489 1147 1374 1789 1497 1808 1865 1896 1754 1905 1687 2011 2012 1702 1714 1253 1198 1039 837 991 1137 947 1130 1383 1418 1184 952 983 1149 1046 655 465 744 1080 1138 1064 1181 1335
795 1049 1265 1383 1152 1116 1087 996 1596 1669 1429 1560 1851 1671 1666 1870 1905 1503 1689 1805 1693 1552 1306 1497 1480 1498 1432 1247 885 924 1001 936 999 955 815 874 852 871 1290 1148 1064 1222 1298
871 1202 1053 986 1037 907 1097 1236 1112 1522 1579 1656 1370 1705 1912 1944 2047 2009 1794 1900 1792 1606 1696 1559 1477 1412 1415 1509 1451 1622 1148 925 1031 809 869 964 1073 1004 462 535 690 899 737
921 745 1170 1167 1300 1576 1597 1609 1429 1280 1613 1776 1866 1988 2003 2077 2066 2146 2060 1878 1877 1898 1811 1599 1545 1326 1393 1399 1487 1562 1480 1109 906 828 746 703 1176 1248 1147 446 467 476 953
450 661 1316 1493 1495 1257 1395 1467 1640 1429 1653 1768 1714 1757 1860 2002 1980 1964 2116 1648 1554 1653 1810 1652 1566 1446 1659 1737 1904 1961 1317 979 646 545 593 716 1153 482 1066 523 510 519 722
338 1212 1359 1191 1324 1249 1271 1269 1460 1574 1694 1514 1798 2041 2091 2035 1833 2013 2028 2035 1627 1701 1652 1383 1604 1439 1479 1411 1501 1219 820 898 820 661 633 678 1450 1108 486 581 529 583 446
897 1020 1254 1170 1105 1253 1099 1430 1604 1662 1545 1721 1904 1994 1921 1776 1681 2061 2043 1898 1713 1770 1655 1357 1773 1420 1497 1676 1451 1323 1222 859 713 458 554 893 1464 1391 749 748 882 1105 1067
738 992 909 963 958 871 1201 1141 1523 1523 1342 1261 1716 1726 1831 1666 1940 1732 1924 1732 1668 1708 1805 1595 1697 1575 1558 1495 1850 1465 853 393 61 109 405 845 1773 1757 676 536 523 512 376
671 721 819 817 775 865 992 1205 1094 1080 1113 1273 1489 1505 1329 1560 1790 1781 1863 1694 1550 1497 1526 1459 1305 1240 1468 1905 1872 1858 1401 459 294 207 349 349 521 542 494 368 216 149 166
269 512 684 776 663 795 898 880 846 1037 901 1112 1134 941 1018 1227 1588 1816 1980 2020 1910 1778 1457 1081 1005 1268 887 1127 1433 1895 764 422 342 347 500 1255 1246 765 714 605 245 178 146
157 423 638 473 447 658 734 518 482 576 641 824 678 717 853 1097 1112 1162 1004 558 784 848 662 534 466 531 767 821 785 868 823 605 440 400 268 1096 1527 872 1171 1278 877 664 521
53 287 448 363 239 369 439 315 264 303 452 564 673 666 635 662 781 745 730 655 753 380 449 552 805 846 1005 1176 1243 1191 784 692 458 235 0 341 728 687 860 746 754 675 677
47 173 166 165 91 148 189 176 215 337 436 425 429 504 489 388 412 607 616 578 465 628 344 348 568 841 496 77 492 1094 993 623 288 166 18 237 837 1044 709 799 733 767 866
53 92 114 58 64 88 115 133 216 364 486 432 373 374 409 316 536 575 570 631 638 701 679 363 661 909 233 53 308 447 610 503 141 36 33 142 792 1014 1029 936 798 797 802
42 115 102 66 114 3 71 126 150 373 196 364 371 283 391 466 424 360 575 615 834 1063 849 560 704 550 321 253 336 359 362 397 287 145 74 96 189 364 832 875 821 843 1004
117 107 178 255 281 157 134 132 139 210 99 177 124 197 495 477 481 289 383 436 582 674 569 724 588 644 441 474 443 354 322 314 345 305 257 151 282 326 343 291 575 895 905
103 92 142 216 278 210 219 171 128 136 165 376 296 429 399 309 271 293 211 480 849 633 717 807 449 425 553 330 283 418 553 577 514 383 434 426 441 570 604 608 691 663 801
103 66 86 191 305 306 306 129 177 90 224 333 388 438 390 498 621 839 573 572 634 659 646 861 748 773 921 862 757 636 626 573 534 550 509 649 710 752 756 722 752 807 778
88 2 84 211 237 254 282 249 280 181 126 351 411 619 591 682 760 725 711 652 532 427 701 492 648 561 431 481 442 465 189 159 152 565 613 598 671 690 662 721 765 809 817
98 79 145 228 143 193 190 131 189 140 230 446 349 528 653 811 877 683 666 349 468 795 826 894 629 517 518 622 569 255 336 200 489 489 375 550 653 665 635 588 621 657 760
84 71 113 163 91 83 98 193 204 254 307 362 399 519 659 559 687 592 621 388 542 551 521 563 973 464 789 723 645 493 523 528 527 215 331 380 495 572 567 435 361 511 623
57 31 133 73 95 56 76 182 206 185 258 286 434 533 569 685 687 863 866 642 555 388 390 398 1003 635 874 790 798 652 603 700 1016 642 359 297 220 210 213 127 275 388 341
69 31 57 76 33 133 120 148 237 212 260 285 322 431 535 450 640 662 724 746 619 532 124 234 941 987 1050 838 621 826 721 760 827 866 640 712 509 31 35 103 188 301 624
91 61 22 0 11 108 179 197 222 225 148 200 356 281 387 376 564 715 863 692 584 548 315 267 938 951 880 658 575 473 453 717 1057 1205 844 660 760 568 807 567 371 488 758

GFSSE_con_mlcape_099.txt.gz
CAPE
416 542 847 1072 1528 1785 1499 1622 1592 1359 1838 2041 2007 2030 1862 1894 1756 1695 1727 1371 1483 789 861 933 823 1121 1326 1351 1417 1143 1335 1276 1318 1255 1322 1275 1248 1205 1206 1120 954 980 1191
525 1112 1206 1521 1579 1681 1571 1298 1337 1136 1422 1747 1883 1930 2000 1995 1903 1561 1600 1258 1321 753 1126 1484 1463 1575 1464 1446 1306 1161 1126 1368 1347 847 650 1363 1286 1231 1249 1250 697 1044 865
609 1195 1321 1329 1297 1691 1770 1605 1157 1409 1546 1896 1862 1868 1868 1987 1886 1784 1640 1299 1155 850 1273 1253 1178 1310 1454 1488 1328 931 904 1435 1282 1199 322 122 973 1294 1290 1204 1331 1307 1379
832 1072 1244 1111 1175 1001 1080 1575 1237 1493 1715 1907 1669 1824 1771 1882 1535 1718 1814 1773 1322 1406 1627 1676 1608 1410 1205 976 1195 1187 1088 1287 1277 1148 1007 727 556 1181 1166 1322 1279 1330 1332
1036 1215 1311 1026 1130 934 868 1000 1589 1314 1724 1519 1850 1927 1845 1628 1636 1819 1845 1861 1739 1646 1497 1593 1485 1347 1542 1688 1546 1213 969 1343 1206 971 982 1013 708 435 551 733 766 830 1079
1009 640 971 946 969 1320 1328 1305 1445 1357 1793 1360 1631 1759 1814 1683 1944 1860 1834 1879 1767 1815 1611 1575 1481 1528 1592 1611 1618 1549 1252 1264 939 802 603 1304 1067 1092 499 554 550 1227 1242
425 618 1037 1461 1411 1552 1291 1271 1356 1594 1698 1860 1698 1672 1792 1861 1401 1507 1721 1762 1829 1861 1522 1573 1562 1711 1840 2084 2104 1465 1226 974 685 545 1098 981 368 833 565 578 535 629 598
255 765 1352 1533 1434 1385 1165 1227 1676 1514 1657 1751 1799 1773 1453 1633 1940 1728 1690 1525 1836 1676 1520 1700 1669 1649 1562 1705 1428 939 901 982 736 619 1008 1329 1101 552 683 620 1144 1040 1156
1067 1112 974 1141 1320 1304 1375 1075 1267 1573 1729 1831 2043 1515 1621 1719 1840 1620 1817 1709 1901 1571 1572 1747 1565 1662 1753 1456 1239 1259 1049 855 696 368 584 1212 1525 926 666 834 925 923 763
723 1014 1140 1134 1086 1103 1013 1436 1620 1362 1532 1783 1576 1735 1437 1801 1614 1660 1633 1756 1805 1728 1678 1754 1542 1542 1568 1793 1869 1246 984 231 41 97 425 1206 1718 1178 594 481 438 344 299
893 925 1029 855 1012 1045 1076 1228 1366 1212 1488 1628 1662 1289 1682 1696 1359 1251 1640 1579 1653 1726 1537 1467 1231 1391 1584 1645 1885 1716 965 522 221 244 533 272 517 542 488 332 107 37 130
586 753 771 768 794 836 1018 1296 1426 1212 1421 1569 1467 1555 1427 1737 1640 1731 1735 2006 1960 1723 1524 1309 1426 1410 920 1421 1637 2044 1126 883 501 238 460 1094 1194 814 917 744 360 330 439
380 503 727 716 965 800 936 903 913 819 1246 1203 1218 1226 1551 1486 1632 1358 1115 1057 1224 1016 987 901 921 1043 1343 1385 1379 1222 1277 1152 618 361 184 871 1391 967 1034 1006 1134 933 660
275 463 535 529 851 945 649 546 593 542 725 796 1044 1052 1183 1160 1166 1237 1162 1303 987 993 1014 1088 1338 1385 1533 1530 1769 1814 1538 1191 667 351 67 196 642 668 835 818 716 710 737
226 370 409 465 590 517 630 507 576 746 738 846 868 874 871 934 1025 1203 1195 1174 1414 1220 1053 1076 1438 1573 961 420 1116 1573 1588 1224 669 418 290 45 600 853 990 878 886 866 832
159 248 272 319 445 498 447 579 718 831 856 796 776 786 711 763 1220 1083 1197 1278 1390 1539 1354 1211 1431 1348 808 890 901 1045 1210 1107 819 518 423 538 319 739 896 1190 1122 980 1004
117 153 139 188 268 306 336 483 635 881 625 736 744 821 861 934 915 1034 1207 1308 1675 1689 1384 1422 1416 1232 1037 895 955 957 954 1061 957 808 771 710 742 490 455 755 918 910 902
79 164 229 64 178 135 324 518 617 621 576 754 599 753 994 1019 1007 863 952 1232 1170 1283 1465 1485 1187 1343 1178 1164 1188 1164 995 1023 1095 1030 1031 929 985 1071 976 688 720 736 898
222 260 273 405 486 374 503 473 497 511 616 682 500 878 867 942 629 867 843 1205 1512 1267 1497 1512 1071 1230 1491 1453 1102 1034 1212 1305 1311 1038 1173 1255 1237 1337 1365 1154 853 899 1014
332 361 416 490 586 642 558 504 554 388 748 895 973 992 876 861 1079 1537 1135 1292 1211 1498 1400 1634 1474 1451 1363 1117 1010 1044 1191 1201 1288 1383 1332 1252 1476 1551 1531 1584 1598 1456 989
306 242 303 378 579 563 558 543 627 465 641 800 972 1015 954 1205 1265 905 1356 1267 1088 1439 1328 1242 1180 1104 1308 1255 1295 935 826 637 834 1088 1379 1398 1335 1346 1351 1412 1531 1534 1486
193 175 231 302 549 585 786 646 729 640 516 965 906 1107 1199 1344 1257 1398 1338 915 1046 1448 1441 1574 1379 1187 1370 1350 1107 886 797 793 1172 1117 1071 1035 1164 1270 1351 1302 1175 1242 1424
287 197 199 320 500 539 695 591 556 649 633 808 834 774 789 1145 1166 1280 1117 984 1144 1171 1189 1249 1459 1344 1417 1438 1366 1322 1105 978 1304 998 873 975 977 1160 1270 1165 922 1240 1289
297 269 312 392 494 410 458 581 324 484 389 736 583 504 660 1220 1192 1032 1218 1172 1158 1145 1040 1174 1610 1512 1695 1421 1654 1510 1449 1586 1606 846 1294 991 1061 723 670 747 938 1099 1541
300 217 265 321 436 319 322 644 403 527 725 717 779 519 660 843 891 797 866 1341 1186 1131 755 935 1690 1295 1607 1394 1280 1673 1742 1706 1830 1724 1077 1263 1233 1134 1512 1210 1020 1360 1778
263 185 187 232 326 383 297 410 534 545 524 562 717 725 801 882 1176 1207 1278 1165 1316 1294 992 904 1626 1732 1464 1160 1122 1120 1105 1398 1720 1852 1548 1422 1495 1699 2056 2294 1759 1576 2691

GFSSE_con_mlcape_102.txt.gz
CAPE
299 458 498 896 1007 945 910 1060 1651 1945 1908 1967 1938 1857 1769 1756 1789 1564 1624 906 970 1146 964 992 1239 1237 1326 1213 1278 1226 1334 1236 1297 1334 1381 1333 1300 1275 1175 953 983 961 1171
380 520 692 1403 1134 1636 1352 1472 1473 1790 1838 1870 2015 2067 1926 1784 1649 1722 1531 922 1076 1261 1556 1530 1528 1426 1348 1262 1238 1307 1381 1179 571 1029 1167 1313 1261 1247 922 1073 651 940 1161
414 687 1047 1269 1366 1850 1661 1354 1597 1677 1928 1866 1805 2052 1918 1779 1769 1547 1312 1034 1596 1509 1458 1446 1444 1486 1357 719 737 1548 1397 1382 1082 307 144 758 1080 1308 1273 1199 1213 1173 934
550 646 885 984 1221 1364 1666 1381 1588 1694 1852 1773 1934 1826 1898 1603 1787 1730 1356 1237 1397 1433 1263 1416 1418 1125 1379 1344 1271 994 1366 1372 1262 906 458 75 321 1114 1110 1137 1236 1189 1115
654 960 1150 1161 987 889 1371 1505 1339 1669 1514 1872 1899 1740 1531 1751 1872 1884 1786 1766 1600 1512 1458 1459 1339 1608 1603 1512 1162 980 1377 1374 963 423 772 981 31 507 873 819 1280 1262 1185
873 744 542 884 930 1362 995 1480 1489 1818 1423 1636 1899 1762 1813 1754 1867 1902 1856 1798 1688 1638 1558 1657 1646 1661 1673 1801 1482 1312 1366 730 186 637 326 971 546 556 549 682 1335 1172 1049
221 149 612 1483 1587 1595 1495 1438 1657 1670 1890 1932 1594 1572 1800 1732 1833 1826 1800 1825 1830 1672 1682 1662 1640 1938 1992 2110 1408 1127 990 787 432 931 512 111 244 646 534 538 490 729 683
106 703 944 1321 1461 1463 1668 1519 1642 1790 1751 1326 1495 1321 1423 1871 1758 1631 1862 1958 1629 1761 1761 1708 1728 1696 1670 1243 861 973 1035 661 292 825 756 537 700 713 861 1455 1487 1549 1168
251 724 938 1182 1279 1274 1202 1594 1500 1652 1640 1251 1554 1374 1462 1706 1647 1735 1910 1874 1648 1840 1809 1730 1760 1689 1668 1503 1429 1114 674 448 85 434 674 905 969 531 637 629 474 389 360
473 532 731 743 1059 849 1110 1515 1590 1642 1661 1866 1613 1627 1507 1680 1755 1575 1677 1871 1637 1776 1807 1673 1625 1728 1860 1967 1456 1224 425 121 89 141 261 935 886 561 453 322 212 129 198
428 624 516 691 995 1031 1025 1226 1307 1500 1595 1232 1406 1033 1265 1086 931 1295 1522 1822 1845 1688 1582 1380 1351 1432 1696 1725 1817 1401 883 38 0 165 60 420 676 703 656 347 130 109 263
316 379 398 527 628 757 641 1166 1088 1058 1317 1273 1345 890 686 956 1233 1151 1419 1740 1585 1337 1174 1175 1215 1033 1092 1215 1505 1492 468 459 156 44 184 985 1262 919 1094 1061 640 629 669
229 231 281 410 393 398 522 552 540 887 1045 1425 1124 717 865 968 1007 800 1097 1244 1096 1126 1222 1220 1331 1275 1662 1507 1171 1091 1190 651 182 27 5 771 892 987 948 736 803 842 802
168 141 124 173 340 346 332 186 275 760 782 717 821 1259 1278 1062 1114 1096 1178 1344 1339 1190 1498 1523 1338 1684 1446 1473 1397 1349 1126 694 314 77 1 123 496 591 766 874 866 898 897
79 61 64 169 545 710 505 138 256 457 791 652 743 1252 1174 1118 1356 1315 1495 1546 1502 1329 1283 1467 1627 1385 1079 1016 1180 1191 1019 1042 553 260 23 58 307 468 733 789 907 978 1012
10 6 69 204 591 702 548 557 537 632 766 562 699 1058 1282 1180 1523 1313 1470 1416 1498 1394 1438 1590 1786 1074 837 769 947 1006 1003 890 912 628 458 566 230 424 641 824 928 865 874
2 2 145 317 676 623 693 682 509 571 581 495 659 1165 1349 1380 1719 1603 1464 1337 1623 1901 2088 1859 1474 1241 756 753 1179 1122 1016 954 704 945 764 814 951 623 498 660 776 814 1028
0 0 144 136 307 377 466 748 596 521 502 560 827 1097 1416 1600 1719 1526 1204 1251 1672 1611 1546 1262 1101 818 1029 963 1140 1107 996 863 1117 1122 1015 1182 1335 1244 1152 908 838 959 1090
8 19 75 135 108 443 902 723 752 988 886 864 852 1122 1596 1461 1404 1367 1391 1726 1803 1463 1406 1062 1050 1044 931 945 807 884 904 1063 1087 830 1229 1383 1274 1457 1455 1210 1072 1138 1098
162 170 205 178 408 640 783 790 725 799 1017 927 963 1082 1393 1193 1441 1335 1439 1748 1647 1368 1337 1467 1937 1389 825 837 708 686 736 966 1113 1191 1107 1128 1297 1412 1272 1809 2076 2004 1449
235 334 347 391 742 694 554 446 580 472 823 919 1021 1379 1593 1471 1350 1459 1425 1648 1539 1470 1933 1784 1352 1273 729 1036 803 610 615 882 938 1052 1045 1039 1059 1084 1364 1757 2022 1948 1892
308 344 545 555 929 923 701 650 677 497 564 636 840 1283 1380 1498 1227 1369 1696 1359 1626 1433 2032 2213 1993 964 1041 1611 744 819 618 643 807 777 899 834 967 1189 1450 1655 1739 1952 2178
263 368 497 670 729 1067 916 1039 1235 1122 965 1006 956 837 1228 1372 1250 1294 1590 1543 1715 1371 1289 1784 1714 1990 920 1581 1984 1467 728 905 729 629 814 743 949 1231 1371 1368 1431 1775 2282
399 331 409 674 681 1084 1363 809 802 566 630 846 970 849 820 845 1077 1056 1522 1572 1805 1332 1599 1604 1662 1899 1960 1124 1463 1879 2315 2511 1083 708 606 776 696 737 1211 1228 1300 1696 2318
461 471 456 730 705 548 1281 957 619 428 526 738 966 975 824 880 1094 1290 1285 1818 1723 1300 1453 1631 1800 1650 1656 1324 1337 1563 2125 2101 2212 1153 798 872 553 886 1473 1540 1496 1716 2314
491 485 425 813 1087 825 1069 1008 753 571 765 741 792 792 619 695 738 801 927 1186 1524 1521 1727 1196 1408 1363 1792 1769 1372 1296 1248 1439 1580 1423 1174 1295 1237 1493 1806 2207 2240 1961 2370

GFSSE_con_mlcape_105.txt.gz
CAPE
375 371 780 922 689 687 744 1226 1265 1914 2011 1858 1713 1562 1775 1617 1587 1174 1088 1283 1306 1082 1346 1277 1410 1400 1330 1362 1410 1305 1281 1359 1429 1243 1162 1218 927 997 800 745 905 902 1222
498 445 990 1271 1047 1232 1489 1628 1774 1889 1964 1972 1701 1658 1646 1675 1576 1133 1106 1083 1332 1448 1530 1435 1344 1201 1318 1226 1341 1414 665 563 1183 991 824 1222 1333 1325 1167 926 1176 1239 1263
416 433 1132 1451 1669 1353 1354 1518 1650 1999 1911 1860 1870 1847 1747 1686 1416 1153 1364 1432 1473 1419 1489 1332 1224 726 562 1125 1417 1297 1125 788 984 696 804 761 1126 1313 1305 1289 1035 1084 1275
325 536 853 1256 1701 1718 1488 1691 1739 1831 1733 1917 1941 1832 1755 1758 1599 1351 1195 1453 1333 1488 1480 1151 1331 1467 1380 1025 1127 1273 1099 868 984 742 122 38 803 1143 1148 1353 1321 1349 1181
791 1135 1067 1098 956 1509 1632 1540 1673 1728 1755 1824 1705 1579 1882 1886 1778 1621 1446 1516 1439 1306 1321 1558 1583 1532 1482 1072 1150 1282 1042 733 705 813 808 51 51 854 1355 1199 1329 1280 1296
802 765 703 750 917 838 1705 1670 1729 1530 1676 1826 1504 1661 1708 1684 1830 1861 1747 1620 1711 1651 1603 1690 1703 1755 1853 1255 1265 1042 540 320 528 449 546 115 207 536 871 817 779 857 1006
379 57 458 1586 1636 1456 1376 1643 1634 1879 1821 1740 1635 1613 1814 1804 1954 1907 1835 1733 1775 1722 1684 1702 1862 1802 1724 1089 882 902 752 568 685 326 66 126 330 765 1147 1048 1474 1149 815
124 458 960 1485 1560 1585 1354 1652 1813 1718 1370 1538 1645 1616 1699 1861 2081 1968 1971 1730 1870 1793 1710 1785 1709 1576 1130 933 1043 693 684 779 522 521 323 132 754 922 1054 1151 1144 1269 964
520 587 771 1171 1230 1461 1800 1632 1766 1759 1414 1446 1540 1871 1736 1823 1725 2008 1760 1808 1981 1837 1825 1838 1859 1809 1747 1628 872 170 110 235 450 916 702 287 589 556 529 418 295 277 304
321 689 746 798 857 1125 1124 1667 1723 1814 1712 1639 1648 1574 1769 1895 1759 2048 1503 1728 1895 1876 1817 1731 1838 1849 1905 1376 990 547 232 361 170 106 213 330 620 462 298 220 164 171 325
326 498 589 573 900 1008 1059 1333 1511 1649 1630 1279 1316 1403 1672 1419 1221 1695 1394 1849 1747 1677 1499 1225 1179 1637 1775 1463 1030 995 1022 118 82 69 6 574 890 849 701 428 379 483 578
281 374 405 514 544 748 528 1304 899 1202 1566 1252 1201 1429 1834 1233 859 747 1142 1465 1121 1011 867 912 1039 1202 1782 2194 1858 1585 456 235 92 61 192 849 927 989 1099 1030 765 866 756
159 144 289 361 520 469 383 485 627 1167 1110 1031 827 589 785 793 985 738 1318 1374 1359 1587 1414 1487 1636 1552 721 1131 407 339 460 214 26 0 104 608 685 975 880 693 642 675 806
68 121 131 120 265 181 186 316 524 714 914 526 830 1130 1171 872 1010 1414 919 954 1430 1015 1278 1189 887 1238 1063 973 553 530 508 238 55 0 0 187 333 493 590 649 764 893 877
57 88 87 154 556 755 214 90 566 561 816 567 1140 1194 1393 1260 1006 1352 1527 1283 1174 1110 891 1086 888 909 973 914 694 782 550 494 281 0 0 39 214 252 455 647 856 960 964
45 35 85 485 508 584 227 341 271 627 488 737 960 1115 1435 1166 1482 1173 1429 991 1183 1386 1128 1195 1389 681 639 486 765 789 689 499 697 389 285 411 280 302 463 730 916 924 1074
46 34 176 358 306 243 298 345 550 421 502 550 999 1287 1363 1393 1729 1352 952 1281 1251 1285 1808 1243 922 1022 538 494 881 902 644 700 779 1023 963 975 711 579 670 806 872 931 1063
30 27 100 232 146 150 362 540 491 651 551 586 694 1020 1487 1823 1595 1457 1252 1012 1063 1361 1057 787 771 536 686 759 940 996 673 651 979 1223 1256 1423 1465 1188 954 910 929 975 1140
22 84 80 127 159 354 478 687 497 880 670 645 789 1201 1504 1580 1695 1796 1579 1360 1878 1191 915 842 322 1014 612 767 778 854 916 799 1124 1041 1447 1395 1281 1503 1515 1162 1366 1320 1277
87 114 106 77 222 647 794 523 530 916 677 563 910 1281 1421 1422 1550 1860 1415 1431 2179 1388 1118 1089 1526 733 784 835 925 732 940 944 1064 1176 1177 1146 1311 1563 1351 2224 2517 2194 1732
101 118 70 188 298 583 283 402 514 829 791 938 1402 1324 1391 1432 1525 1817 1654 1482 1707 1542 1793 1636 1656 1218 660 643 1204 620 662 915 1170 1076 979 963 955 1114 1414 1930 2029 2182 2279
82 43 93 432 527 858 386 787 880 622 606 712 952 1153 1419 1291 1566 1364 1856 1576 1616 1443 1812 2137 1907 1624 611 604 1130 1025 722 859 933 891 900 768 935 1089 1414 1825 1827 2336 2397
61 190 260 455 674 921 608 932 1128 1033 1065 521 810 1017 1132 1288 1316 1740 1737 2089 1489 1793 1578 2060 1500 1659 825 653 1797 2043 1135 1246 774 634 709 839 869 1274 1352 1379 1583 1986 2451
187 205 487 652 881 921 1212 782 794 726 397 774 795 826 1019 1206 1200 1307 1505 1710 1870 1859 1875 1724 1597 2405 1820 644 721 1099 2196 2034 2270 746 472 796 718 883 1154 1194 1208 1965 2152
230 248 369 792 893 806 919 682 1035 543 681 468 835 1172 1323 1149 1084 1078 1416 1624 1750 1630 1496 2013 1677 2023 1718 1656 1035 967 1135 1347 881 1273 993 995 518 701 1420 1454 1339 1534 2363
228 200 310 662 952 804 1162 1183 1194 861 771 867 813 893 923 810 1024 1054 1213 1453 1500 1545 1529 1324 1740 1634 2101 2211 1805 1131 950 1239 1617 1583 1185 842 1183 1399 1325 1803 1772 1642 1907

GFSSE_con_mlcape_108.txt.gz
CAPE
349 477 957 732 763 771 1267 1388 1459 1760 1808 1646 1791 1638 1623 1365 1106 1438 1384 1170 1341 1326 1463 1522 1393 1364 1365 1357 1329 1406 1389 1337 1214 903 1189 1115 833 747 837 878 1002 1023 1210
411 702 932 652 624 1432 1525 1713 1786 1674 1759 1706 1588 1659 1631 1300 1174 1266 1305 1423 1464 1440 1389 1349 1456 1235 1478 1433 942 636 942 677 700 667 1218 1253 1346 1158 1308 1380 1142 1373 1468
424 860 1168 1459 1105 1493 1441 1693 1712 1793 1827 1776 1742 1654 1518 1277 1349 1385 1481 1457 1508 1380 1260 858 494 779 1356 1179 1131 1095 925 590 681 780 763 979 1252 1421 1153 1076 1310 1438 1432
331 684 1046 1545 1539 1308 1730 1544 1618 1670 1794 1803 1530 1534 1553 1517 1329 1511 1493 1491 1477 1219 1163 1578 1415 1036 926 1187 861 880 736 679 883 898 312 602 653 1323 1514 1487 1449 995 1283
674 834 1338 1526 1677 1499 1495 1592 1604 1535 1783 1640 1488 1692 1673 1521 1401 1358 1296 1243 1261 1437 1558 1607 1665 1133 1058 1195 889 903 632 746 959 215 261 213 841 1296 1434 1505 1496 1274 1250
1026 911 857 775 1089 1737 1395 1584 1514 1702 1616 1677 1810 1796 1894 1841 1699 1624 1599 1608 1636 1614 1602 1771 1864 1427 1085 940 419 578 848 1012 571 165 125 215 409 759 697 693 705 879 856
280 144 854 1359 1055 1528 1546 1589 1642 1746 1698 1714 1863 1889 1920 1894 1847 1700 1694 1653 1676 1649 1780 1584 1779 1127 978 627 522 702 1072 1020 98 120 189 383 999 1404 1493 1633 1150 752 477
146 712 1156 1600 1561 1424 1701 1811 1532 1524 1727 1893 1516 1596 1758 1914 1888 1666 1698 1694 1655 1748 1747 1624 1437 1096 803 402 286 337 423 951 459 223 208 589 884 922 975 869 890 715 405
469 644 1080 1224 1498 1615 1682 1747 1624 1680 1562 1579 1986 1898 1887 2018 1973 1694 1871 1854 1760 1794 1806 1794 1619 1398 974 332 79 144 329 794 788 532 245 311 546 497 373 291 281 331 429
548 784 809 1091 1162 1079 1366 1741 1592 1567 1410 1554 1755 1781 1776 1815 2034 1641 1655 1874 1833 1790 1673 1624 1658 1606 833 424 208 128 202 448 627 209 186 383 478 325 224 210 242 341 502
531 641 720 1023 1227 1383 1449 1603 1806 1621 1474 1474 1417 1367 1292 1343 1277 1558 1366 1589 1610 1401 1156 1454 1533 1384 1497 1393 923 649 866 949 45 24 64 551 807 776 598 447 494 602 660
462 429 573 757 847 872 825 1269 1435 1317 1307 1131 1432 1116 1492 1345 1103 681 1074 1323 1288 1192 1186 1141 1338 1696 1798 2060 1541 1292 1199 113 137 150 138 555 858 987 912 818 648 734 759
131 297 380 787 605 533 946 1262 1259 1290 1209 652 1209 865 1224 441 442 767 855 978 1200 1419 883 1542 1686 1717 1006 1683 1823 1322 294 171 15 30 137 505 616 875 713 546 528 642 833
180 257 216 150 528 284 671 879 1276 1265 705 746 694 1151 1211 1112 1104 868 777 1189 1680 1596 175 713 1157 863 1178 570 451 511 311 113 0 0 7 119 195 355 354 375 553 764 940
113 151 341 536 415 435 284 639 851 645 1017 942 942 1079 1558 595 742 1083 0 270 1449 1009 1410 1599 1431 1024 911 873 831 547 497 556 0 0 0 0 62 156 248 419 721 926 1030
38 206 382 328 522 686 539 971 427 637 823 1298 503 436 751 1351 1173 1023 694 1073 752 1966 1130 825 1255 1178 745 607 854 940 648 627 718 117 84 34 93 111 261 523 855 1075 1224
24 309 187 263 278 416 555 872 230 441 1024 1190 1289 503 541 1410 1539 1408 962 931 1319 489 974 1216 1138 1011 873 889 863 1069 745 811 860 869 666 367 342 475 604 883 1055 1046 1054
9 142 269 162 217 95 193 499 586 545 542 566 999 1171 1651 1529 1537 1234 1351 918 903 1914 1919 1198 1512 1402 727 1142 1164 1109 962 863 1158 1295 1387 1323 1066 855 909 952 1012 1026 1101
0 0 276 62 6 294 664 655 527 940 505 951 952 1399 1323 1432 1600 1323 1424 970 1520 1888 1030 1081 854 783 870 949 899 1005 1064 884 1147 1320 1456 1454 1520 1583 1356 1006 1392 1243 1342
45 7 9 181 181 148 501 888 893 515 790 1299 982 1279 1373 1312 1323 1854 1805 1478 1996 1535 1037 1548 841 698 1467 875 955 995 1203 1134 1259 1139 1390 1216 1200 1474 1774 2144 1881 1836 1571
67 25 19 242 329 397 379 213 747 166 819 636 901 1448 1579 1465 1349 1878 1742 1640 68 807 1575 1982 2082 1975 1115 1062 1660 816 702 1026 1217 1307 1097 1146 876 1486 1687 1748 2502 2487 1962
93 96 258 154 406 484 457 550 699 516 784 1195 1341 1156 1275 1229 1500 1730 1809 1477 1009 1838 1632 2091 1950 2215 1245 723 1252 2073 878 992 994 975 947 859 715 925 1352 1669 1905 1947 2341
58 210 130 522 59 662 859 396 848 362 738 695 741 1192 1150 1227 1287 1272 1789 1458 1365 1494 1763 2145 2074 2346 1816 817 898 2205 2074 1580 1023 594 448 821 305 1066 1297 1115 1640 1907 2098
113 99 512 673 74 587 773 562 224 779 703 772 851 789 1006 997 1202 1064 1338 1593 1661 872 1175 2086 1931 1979 2363 1937 1015 959 1744 745 433 391 472 543 612 1078 792 685 1204 1761 2007
107 175 479 866 602 602 79 924 852 573 335 260 351 814 1241 1083 1170 1185 1245 1301 1670 1609 1494 1975 1855 1800 2339 2251 2072 1725 808 1940 760 784 73 143 646 852 1001 927 848 1815 1698
64 175 687 739 632 637 622 467 509 441 45 371 342 514 938 1120 957 1237 1047 1590 1583 1596 1442 1268 1922 1608 1680 2005 1903 2397 1548 593 482 113 215 47 523 511 236 300 114 0 334

GFSSE_con_mlcape_111.txt.gz
CAPE
10 258 825 882 1086 1125 1247 1467 1504 1793 1759 1656 1534 1440 1052 1551 1351 1331 1349 1230 1416 1494 1407 1361 1386 1417 1290 1417 1409 1209 1118 1089 1312 1234 1099 1036 987 1008 1172 1157 1085 1084 1145
207 894 964 887 1492 1707 1822 1580 1488 1738 1642 1544 1726 1409 1185 1278 1218 1396 1421 1398 1409 1353 1486 1297 1475 1367 953 826 953 797 751 814 1248 1301 1174 1035 1211 1363 1275 1267 1428 1459 1326
545 704 778 1468 1532 1701 1658 1808 1812 1836 1638 1420 1728 1288 1450 1451 1597 1581 1462 1363 1294 1079 362 599 1297 1209 1166 1209 1140 742 643 731 756 1091 1008 1124 1110 1017 1190 1439 1466 1483 1582
693 1089 1337 1046 1453 1708 1586 1692 1697 1777 1745 1619 1680 1634 1506 1629 1688 1478 1270 897 863 1552 1573 1211 786 971 1085 1200 939 936 805 855 879 767 445 834 984 1477 1515 1258 1172 1384 1399
784 1031 1488 1393 1333 1671 1651 1556 1654 1742 1676 1770 1755 1658 1647 1291 1247 1215 1259 1517 1607 1561 1530 1359 893 934 1043 1028 742 814 1023 642 483 207 427 897 1180 1521 1507 1535 1378 1362 1207
879 1210 1436 1707 1431 1457 1521 1695 1712 1651 1614 1839 1820 1784 1615 1581 1629 1624 1624 1553 1513 1609 1631 1712 956 618 573 444 527 1022 1273 474 62 40 208 579 456 728 668 767 838 747 743
526 598 799 1321 1623 1652 1628 1747 1732 1710 1782 1840 1869 1756 1749 1575 1597 1687 1584 1783 1689 1565 1568 1681 835 451 232 318 628 821 1263 297 39 15 147 1027 991 1574 1476 901 672 453 528
520 1034 970 1275 1628 1608 1593 1687 1743 1780 1900 1859 1873 1964 1918 1763 1636 1748 1576 1467 1488 1540 1456 1154 661 150 163 336 314 357 809 518 134 142 394 721 909 949 883 660 611 395 504
817 988 1291 1234 1313 1635 1715 1541 1660 1691 1627 1628 1855 1908 1858 1760 1723 1727 1612 1647 1762 1797 1741 1488 869 249 54 175 184 327 862 483 113 22 5 169 410 377 287 247 272 383 458
791 889 836 1053 1321 1449 1658 1645 1619 1494 1805 1990 1973 1901 1980 1823 1717 1827 1795 1806 1757 1829 1744 1658 1388 1201 784 272 138 111 356 966 320 103 0 188 247 245 169 188 314 397 525
763 694 875 1090 1106 1074 1550 1586 1537 1557 1627 1584 1605 1429 1413 1348 1433 1664 1451 1695 1678 1776 1804 1676 1523 1144 1162 1087 685 556 852 763 20 0 0 286 510 512 361 361 441 525 516
340 704 739 967 862 857 946 1142 1171 1339 828 694 638 875 1165 1259 944 1226 1110 1557 1675 1424 1313 1485 1135 1227 1651 1404 1022 1261 1112 86 34 0 2 337 668 840 678 507 413 398 609
319 462 688 842 890 659 885 1206 1207 1228 1255 345 0 506 1055 865 736 493 920 1079 1411 1149 455 724 0 362 851 1542 1831 1354 956 15 11 0 0 191 425 531 390 307 298 537 772
152 300 607 566 285 808 915 1221 987 891 748 926 657 946 825 40 0 0 491 471 869 141 0 540 356 625 1010 926 1054 1440 735 0 0 0 0 0 27 115 192 229 417 684 917
82 121 241 316 304 192 551 994 945 780 757 558 681 727 594 301 152 0 8 273 0 806 789 799 873 1146 1015 861 397 276 146 0 0 0 0 0 0 15 154 325 595 934 1139
135 85 173 109 570 1050 639 881 698 702 396 21 370 601 611 654 718 261 13 394 302 465 853 844 816 953 876 575 645 291 331 0 0 0 0 0 0 35 191 477 807 1048 1133
139 94 10 6 312 715 405 323 395 648 837 553 0 51 314 1005 1169 806 848 768 731 1364 1388 1462 1491 1450 416 387 547 623 341 514 0 0 0 0 64 249 458 732 914 1032 1043
0 0 9 0 81 199 586 386 205 494 968 822 324 278 468 1275 1572 876 1129 963 1260 1370 1244 1146 1146 1344 558 610 688 504 510 582 696 419 290 113 183 404 730 971 1022 1075 1138
0 0 19 38 1 47 209 444 596 497 297 789 1036 1388 1104 1153 1695 801 1187 1621 1669 1451 732 866 980 785 643 811 929 798 600 568 818 1004 872 948 671 724 657 987 1316 1176 1298
13 46 52 14 0 287 497 814 635 807 670 1041 1067 993 1262 962 1460 1421 1905 799 625 654 1518 1935 1426 1444 1533 1113 902 805 692 642 776 1014 953 1298 1105 1152 1049 1233 1296 1672 1516
0 37 68 9 223 59 300 296 385 276 498 818 748 979 1098 1086 1204 1608 1589 0 229 701 1494 1890 1656 1794 1466 908 1135 1259 816 773 908 885 967 1048 748 1155 1411 1537 1920 1772 1971
0 0 66 23 51 10 262 285 492 410 631 757 1112 1212 964 1356 1103 1429 1384 952 782 1380 1705 1727 1869 2167 1748 791 1116 1847 544 424 628 927 867 982 869 862 1233 1415 1695 1756 2114
0 18 93 76 6 254 647 604 557 261 784 809 909 733 998 1124 869 1105 1557 1077 974 1042 1214 1911 2023 2022 1820 1871 1264 1568 1404 1310 962 423 468 368 291 514 390 325 392 1297 1380
0 166 45 48 24 443 467 440 354 236 281 436 533 810 739 927 1028 876 1260 1475 1134 1007 1070 1651 1727 1636 1896 1805 1683 1618 473 234 72 259 444 79 219 256 314 265 30 11 301
73 65 204 56 1 285 295 479 314 294 343 331 337 592 594 972 1080 939 885 998 1321 1216 1029 1521 1823 1384 1589 1720 1789 1560 681 311 371 0 3 1 0 185 209 34 2 0 0
29 86 211 160 60 68 235 394 450 343 270 86 197 210 387 523 768 888 1024 1198 1041 1020 1148 1025 1532 1141 1398 1310 1545 1475 832 287 222 45 0 0 8 105 1 0 0 0 0

GFSSE_con_mlcape_114.txt.gz
CAPE
32 166 742 880 1128 1710 1947 1935 1962 1911 1730 1543 1283 1472 1300 1109 1040 1375 1432 1527 1502 1439 1379 1365 1401 1259 1014 1264 1196 1288 1190 1180 1396 1231 1154 1087 1203 1236 1099 979 838 802 987
29 253 933 1344 1645 1738 1853 1828 1806 1751 1505 1527 1086 1505 1336 1327 1531 1529 1525 1515 1509 1711 1578 1363 1075 1090 1170 1085 929 1017 1507 1560 1355 1286 1374 1444 1311 1290 1251 1223 1354 1146 1120
200 589 1171 1607 1793 1923 1871 1802 1741 1641 1423 1469 1300 1288 1336 1573 1569 1455 1564 1562 984 805 1466 1397 1021 1346 1261 1074 960 985 1128 1279 1375 1126 967 786 1132 1481 1483 1399 1399 1368 1369
640 803 1261 1411 1691 1815 1853 1938 1842 1718 1592 1395 1349 1395 1508 1659 1495 1433 1343 849 1239 1291 957 1005 1235 1326 1313 1213 1126 1059 916 1024 1282 940 836 1081 1311 1329 1106 1235 1404 1322 1320
709 1045 1212 1591 1666 1670 1816 1840 1818 1611 1624 1804 1621 1448 1368 1427 1634 1710 1468 1625 1408 1125 872 935 1160 1229 1280 976 1073 1448 1048 1303 943 703 804 1051 1311 1399 1516 1609 1429 1150 1058
950 1291 1461 1592 1767 1600 1763 1705 1770 1710 1877 1692 1661 1515 1459 1323 1314 1350 1504 1565 1584 1553 1655 910 991 965 858 962 1476 1280 873 597 346 361 777 661 782 1152 1163 1017 764 758 997
966 1446 1784 1503 1694 1612 1761 1797 1751 1743 1904 1886 1866 1744 1664 1727 1881 1869 1682 1702 1725 1868 1787 829 746 503 553 861 1099 1283 521 257 2 12 120 390 1249 1299 900 619 445 534 467
404 829 1544 1680 1752 1769 1799 1804 1877 1888 1975 1931 1808 1758 1620 1664 1826 1716 1627 1667 1546 1578 1367 755 489 284 440 467 626 1310 488 225 0 421 913 1014 1260 1487 632 702 448 393 468
587 650 1192 1650 1599 1839 1796 1940 1865 1772 1922 1737 1922 1854 1877 1850 1783 1673 1744 1794 1734 1634 1434 858 395 268 340 359 411 934 1297 293 12 71 95 253 279 315 306 261 308 389 449
839 1117 1044 1286 1603 1512 1671 1816 1820 1779 1913 2020 1949 1977 1832 1959 1883 1828 1847 1894 1874 1836 1731 1464 1050 756 802 512 354 518 919 394 35 0 0 16 166 244 208 195 298 337 416
666 567 683 1184 1248 1286 1551 1712 1703 1942 1961 2028 1954 2007 1504 1103 1383 1313 1587 1864 1777 1900 1782 1420 1028 645 533 785 990 1149 1233 464 119 0 0 59 256 340 263 287 411 373 438
595 654 713 828 832 1104 1531 1544 1357 1183 956 1084 1145 1176 846 895 1159 1108 1313 1935 1894 1577 1374 1392 1211 1100 1242 1070 1010 1193 1881 951 6 0 11 282 564 728 532 480 458 480 608
533 697 728 791 709 884 1224 1153 1094 681 551 310 374 843 970 715 642 325 548 672 773 1165 370 937 732 301 873 1140 1271 1579 1357 140 5 0 35 280 534 671 418 367 396 556 875
418 635 715 712 618 590 853 953 1004 1007 593 63 153 627 550 100 14 27 263 224 219 432 133 20 37 222 581 816 975 998 788 9 1 0 4 89 209 412 474 475 572 799 1075
300 402 711 678 604 676 865 761 871 1036 699 826 712 497 199 0 0 0 150 27 235 63 673 469 620 741 1001 1195 988 682 928 25 0 0 0 14 19 95 345 518 705 1018 1423
210 240 398 295 425 665 713 778 682 657 578 548 559 524 428 463 259 59 0 0 8 268 665 957 954 845 859 576 340 159 111 0 0 0 0 14 25 118 380 651 878 1204 1488
87 135 102 408 657 557 538 671 709 465 25 113 136 297 476 601 854 535 266 285 719 694 1257 1276 1612 1399 1068 440 471 328 28 20 27 0 1 16 86 366 557 759 971 1156 1293
0 27 61 277 401 380 502 447 482 570 499 59 33 126 483 1182 1104 794 973 853 914 1031 1428 1061 1050 1130 665 423 515 569 381 314 187 258 147 109 213 412 541 847 1152 1203 1249
0 0 0 48 161 247 303 200 247 578 687 498 319 491 752 1190 1306 1371 1420 864 837 927 1225 1726 1355 1009 805 601 696 571 488 578 582 713 643 549 540 524 582 723 1030 1401 1500
3 0 0 0 0 31 238 719 303 496 468 672 834 1078 1234 1129 1675 1630 1619 755 268 1109 1626 1922 1788 1959 1402 939 847 861 593 503 683 786 859 785 883 652 683 660 961 1109 1404
0 0 0 0 14 80 346 473 365 454 597 793 1087 911 1277 931 1213 1393 942 0 698 1411 1714 1829 2027 1865 966 579 971 1046 508 439 529 575 481 495 611 535 548 641 1414 1730 1904
17 0 0 0 83 115 231 435 273 462 423 616 873 998 1177 1241 1239 1419 1109 867 822 1077 1326 1817 1758 1685 1802 1396 1160 1091 408 337 321 351 468 447 445 338 241 196 452 1168 714
6 0 0 11 5 0 248 380 362 518 522 583 721 790 951 1117 909 1104 1193 943 983 836 1094 1485 1538 1702 1465 1466 1103 1303 1177 976 461 129 133 224 251 360 251 178 159 96 105
0 35 53 0 0 227 422 421 305 302 465 377 429 599 759 1062 723 986 1255 931 1012 1076 1005 1586 1465 1512 1466 1497 881 377 303 251 199 353 110 4 82 154 169 228 68 59 15
0 0 0 29 29 202 339 353 289 237 196 289 317 374 550 702 1096 912 874 1216 1152 990 934 1206 1340 1374 1397 1344 662 393 130 44 8 0 0 0 0 42 69 52 7 0 0
3 0 0 0 75 127 191 363 254 212 247 253 192 315 305 295 495 757 906 966 812 822 1003 935 1123 1125 1303 1127 1231 639 354 157 118 6 0 0 1 75 93 67 7 5 0

GFSSE_con_mlcape_117.txt.gz
CAPE
19 88 659 857 1098 1312 1383 1582 1652 1541 1421 1581 1110 815 857 1357 1275 1328 1385 1497 1436 1461 1461 1305 1078 1088 1066 1365 1402 1197 1223 1336 1276 1214 1283 1300 1214 892 914 1062 1157 1238 916
62 221 1129 1556 1661 1771 1968 1528 1601 1481 1342 1511 1562 1254 1145 1473 1386 1495 1472 1413 1508 1551 1443 1293 1333 1215 1224 1136 1209 1097 1381 1210 1387 1273 1451 1428 1369 1194 1175 1410 1353 935 830
92 355 1361 1524 1503 1784 1830 1829 1711 1620 1024 1484 1404 1273 1479 1544 1589 1503 1600 1649 1555 1321 1098 1271 1293 1255 1237 1235 1280 1262 1522 1318 1267 1319 1336 1310 1414 1577 1678 1380 1485 1571 1281
234 784 1327 1708 1806 1764 1835 1946 1755 1767 1170 1508 1428 1333 1585 1605 1437 1455 921 583 793 1383 1149 1510 1536 1431 1418 1357 1214 1120 1415 1450 1309 1267 1027 1109 1116 1520 1379 1620 1510 1508 1576
504 898 1333 1603 1897 1852 2004 1912 1827 1582 1505 1528 1561 1508 1424 1320 1019 968 1925 1587 1198 970 1203 1435 1423 1452 1292 1498 1437 1220 1347 1332 1210 854 1055 1211 1323 1212 1372 1246 1248 1242 1482
690 1272 1617 1745 1714 1775 1951 1923 1806 1687 1858 1760 1568 1435 1478 1539 1749 1669 1767 1670 1725 1439 1110 1334 1485 1363 1299 1317 1463 1591 1484 1401 771 826 919 1200 1434 1655 1456 1192 1144 1267 1431
842 1252 1535 1780 1686 1917 1718 1880 1843 1803 1788 1618 1617 1695 1680 1674 1676 1610 1618 1766 1906 1996 1104 1085 1142 994 1208 1437 1653 1014 957 670 283 378 132 712 946 959 896 723 674 576 574
1147 1514 1586 1748 1704 1865 1905 1892 1869 1849 1988 1975 1916 1879 1933 1946 2045 2029 1844 1699 1740 1903 1171 1063 901 755 937 970 1584 804 619 140 70 634 743 1334 1803 1177 817 889 415 463 516
1135 1437 1619 1705 1869 1956 1924 1902 1965 1950 1849 1917 1981 1867 2005 1980 1748 1740 1777 1779 1714 1589 1351 1135 802 826 856 674 983 1374 993 215 106 630 792 778 777 651 408 348 387 445 493
519 1194 1462 1489 1719 1713 1757 1979 1935 1989 1991 2068 2020 1991 1935 1825 1805 1922 1996 1956 1879 1820 1544 1049 604 792 889 974 912 1177 1085 586 9 0 9 65 213 293 257 276 365 432 525
773 696 1211 1416 1458 1282 1634 1873 1885 1971 2052 2021 1921 1648 1822 1677 1706 1633 1930 2025 1979 1965 1933 1679 1095 700 803 892 908 1266 1650 625 151 11 5 95 178 277 296 364 465 598 686
521 660 978 1144 1077 1292 1597 1531 1397 1923 1874 1840 1782 1500 996 1010 1262 1222 1647 1738 1676 1636 1384 1619 1289 1348 1232 1153 990 1366 1351 1487 178 0 11 217 392 547 576 548 629 740 818
219 567 861 736 900 1076 968 981 1087 712 762 852 970 950 897 756 675 517 705 700 670 1007 714 151 347 105 285 664 967 1234 1473 293 247 0 44 318 456 675 618 475 594 811 1103
486 622 703 690 571 704 809 602 771 577 250 223 430 699 713 297 175 133 275 287 9 366 376 88 217 223 470 728 941 881 839 107 22 0 16 168 220 446 614 700 780 1018 1367
479 553 572 504 484 340 623 851 858 873 232 226 406 595 321 29 10 0 131 68 99 64 400 736 814 880 827 734 722 822 834 173 14 0 0 91 38 149 357 681 954 1278 1729
380 474 562 491 488 651 644 708 781 812 701 680 567 386 266 93 2 43 117 103 207 488 730 1006 1102 842 800 735 335 162 257 368 0 0 0 0 53 69 211 647 1055 1291 1571
235 450 609 515 512 524 513 599 645 525 505 478 532 459 507 595 730 624 477 618 771 872 1030 1065 880 1111 788 367 269 156 28 0 0 0 0 0 3 137 437 767 1160 1604 1743
160 278 307 289 441 451 492 512 556 281 110 141 161 194 467 917 986 803 637 692 740 1147 1093 1348 1006 813 504 311 441 448 96 3 10 13 9 5 2 78 213 512 761 919 1296
132 105 175 326 346 392 337 402 445 231 321 0 0 307 926 1292 1048 1020 1027 829 600 1178 1645 1687 1661 713 567 419 471 488 285 351 111 56 200 237 225 348 581 966 1149 1341 1471
67 7 91 122 132 249 239 185 204 443 545 471 526 657 970 1246 1328 1429 1117 387 542 1374 1548 1884 1671 1391 722 579 574 645 513 238 242 395 498 607 740 820 931 1352 1530 1771 1812
0 0 0 43 89 163 390 295 301 367 472 520 828 943 1163 1031 1263 1329 119 132 1068 1241 1459 1778 1822 1609 1032 469 676 548 319 238 261 382 472 522 534 447 457 998 1335 1132 1437
21 0 0 0 19 73 238 308 216 333 422 429 770 857 1024 1022 1276 1142 990 701 831 934 1313 1440 1562 1228 1006 757 1200 549 281 249 232 322 394 380 334 319 365 318 481 536 387
0 0 0 0 0 62 177 394 232 417 456 580 692 740 798 1008 1047 1076 951 847 806 736 1112 1252 1389 1265 920 525 642 949 747 496 214 88 126 171 295 254 220 159 120 42 22
0 0 0 0 0 84 189 313 198 192 347 354 441 596 680 798 753 1040 982 833 839 912 1188 1343 1206 1200 1066 836 457 311 160 146 203 316 123 14 65 114 98 108 102 0 0
2 0 0 0 27 82 222 193 216 241 175 210 294 427 504 685 886 1027 953 995 946 831 890 1145 1078 993 1091 588 480 282 93 8 0 11 35 1 0 0 84 136 59 11 9
10 5 0 0 14 121 228 261 208 172 196 237 237 274 302 374 561 885 764 925 896 716 925 880 879 1027 868 1071 572 321 201 131 110 0 0 3 7 13 112 202 187 74 12

GFSSE_con_mlcape_120.txt.gz
CAPE
4 57 613 660 432 684 787 1682 1393 1742 1373 983 1014 941 1395 1291 1428 1333 1422 1457 1361 1166 1285 919 797 1228 1284 1377 1261 1228 1245 1333 1421 1307 1317 1088 1006 1138 1277 1344 1081 679 938
12 121 628 586 606 1024 1877 1692 1595 1675 1504 1116 814 1371 1420 1444 1532 1486 1473 1390 1307 1306 1165 1118 1332 1350 1390 1182 984 992 1318 1230 1267 1400 1519 1340 1290 1335 1401 1310 773 836 958
60 500 1029 1183 1575 1484 1538 1754 1543 1416 1601 1478 1517 1565 1549 1567 1638 1743 1530 1176 1224 1124 1317 1423 1373 1364 1378 1449 1509 1485 1427 1537 1449 1669 1406 1275 1443 1393 1484 1580 1535 1344 1229
178 884 1027 1171 1694 1700 1807 1720 1534 1311 1460 1316 1552 1632 1686 1708 1672 1242 679 1156 1328 1227 1385 1270 1151 939 833 912 1095 1604 1579 1350 1350 1122 1007 1092 1361 1485 1527 1486 1568 1644 1407
421 919 1460 1412 1858 1834 1581 1582 1377 1597 1552 1707 1595 1715 1609 1624 1149 1676 1747 1283 1093 1392 1603 1531 1434 1021 996 1241 1213 1429 1553 1388 1290 1006 1053 1146 1050 1476 1182 1180 1308 1455 1630
588 983 1693 1613 1715 1851 1680 1823 1579 1712 1701 1688 1734 1688 1675 1510 1610 1689 1516 1635 1197 1161 1352 1313 1169 1229 1424 1643 1598 1639 1669 1177 808 757 971 1229 1363 1520 1267 1019 1044 1342 1312
777 1150 1607 1747 1629 1829 1880 1932 1846 1908 1802 1616 1564 1535 1511 1551 1549 1595 1678 1690 1780 1150 1156 1208 1165 1302 1303 1713 1248 1217 1044 663 383 77 396 741 894 873 686 530 495 461 408
437 1016 1510 1668 1770 1666 1902 1883 1950 1852 1847 1841 1761 1663 1506 1438 1599 1802 1622 1699 1740 1122 1059 1082 985 1075 1108 1543 1129 884 394 161 225 561 944 1359 1364 924 918 504 371 420 437
1017 1208 1270 1647 1539 1661 1815 1965 1970 1982 1957 1743 1806 1692 1459 1690 1604 1654 1668 1587 1427 1214 1027 929 988 1073 1005 1047 1394 1189 724 121 249 443 700 592 599 352 255 190 279 325 423
1249 1383 1104 1565 1604 1584 1260 1860 1741 1970 1971 2018 1833 1612 1804 1732 1909 1950 1818 1790 1606 1468 1239 751 852 1058 1273 1188 1252 1415 1022 431 31 0 0 0 98 167 129 147 270 415 602
749 1168 1071 1201 1160 1113 1237 1721 1848 1990 2133 2053 1687 1734 1679 1585 1557 1442 2023 1946 1967 2017 1569 748 874 869 1136 894 944 1209 1224 578 228 30 0 5 53 201 177 247 493 741 961
163 809 993 1068 1010 1189 1328 1637 1500 1832 1895 1624 1476 1006 986 1000 1264 1344 1679 1427 1292 1295 1031 629 914 575 395 539 972 1302 1348 1253 470 72 0 15 211 513 549 627 876 952 1102
294 497 836 946 1066 1066 940 1121 1173 1318 1341 1219 992 714 765 734 466 445 507 366 76 583 351 34 95 128 301 462 607 787 1101 473 379 15 0 21 345 741 844 718 890 1087 1420
211 363 771 697 754 862 818 750 551 267 199 378 466 655 593 342 138 91 222 97 67 47 416 555 548 571 688 672 655 799 758 91 13 0 0 20 355 554 929 990 1041 1236 1583
178 400 472 479 515 560 576 569 384 293 159 334 411 504 377 114 39 23 57 53 136 274 638 845 884 837 726 701 374 570 774 122 11 0 0 0 295 317 637 977 1394 1723 1977
296 248 369 285 259 339 527 592 627 750 311 371 397 477 251 10 0 70 237 307 423 683 784 860 876 1054 742 723 249 76 154 246 3 0 0 0 44 290 320 730 1181 1442 1796
172 237 244 350 348 342 484 634 719 620 525 595 476 351 376 527 537 576 573 595 741 964 1064 1175 937 759 634 339 196 140 34 17 0 0 0 0 0 15 338 790 917 1074 1237
152 226 307 384 361 372 418 389 513 348 476 411 352 401 320 774 851 733 667 719 964 1169 1570 1470 1119 642 268 288 353 367 19 0 0 0 4 2 14 108 222 526 938 1049 1400
79 229 330 343 303 360 340 406 393 263 123 151 22 80 579 1088 889 953 941 687 902 1374 1659 1726 1328 538 390 316 387 378 255 311 302 246 490 366 400 578 781 945 1246 1513 1788
88 116 218 148 236 274 287 252 257 182 315 0 10 303 642 1123 1143 1334 778 424 1106 1366 1627 1559 1122 776 594 565 509 436 379 265 272 394 497 632 738 841 884 1297 1569 1658 2031
66 85 75 119 185 207 250 238 213 376 409 398 467 763 898 1014 1207 591 22 596 1070 1218 1363 1453 1471 1045 749 453 661 361 297 299 365 402 436 464 512 477 427 886 1162 755 1052
0 22 41 48 95 167 161 149 162 289 381 366 598 823 950 776 1042 919 547 691 793 1007 1172 1275 1187 992 642 616 1021 289 383 284 314 325 399 386 298 249 262 247 168 137 51
0 0 0 0 49 95 195 200 194 315 394 422 622 733 775 952 986 910 659 583 598 790 1014 1072 1140 1093 601 429 437 804 627 408 283 169 183 175 242 265 235 174 143 75 17
0 0 0 0 0 0 168 251 171 157 269 323 416 497 571 801 763 953 816 693 729 688 1017 1036 1022 1017 899 532 342 226 203 209 363 376 215 98 85 109 102 68 38 44 5
0 0 0 0 0 15 155 225 165 180 170 262 308 401 513 505 689 832 859 810 752 650 822 949 843 887 661 524 385 228 63 12 6 25 35 1 1 3 31 61 87 67 3
0 0 0 0 0 24 106 139 161 155 137 186 177 187 309 414 585 756 764 804 782 622 783 740 735 816 734 777 382 254 153 107 116 0 3 49 59 65 106 134 117 67 119

GFSSE_con_mlcape_123.txt.gz
CAPE
19 111 283 349 197 276 1074 1094 1470 1475 971 1119 1298 1451 1330 1226 1290 1360 1419 1238 1374 1161 992 1176 1337 1320 1234 1301 959 1084 1140 1218 1317 1183 925 1056 1274 1372 1302 952 464 706 1289
9 224 223 497 541 473 485 1542 1487 922 1100 1246 1450 1395 1428 1437 1424 1360 1367 1419 1488 1271 1256 1427 1424 1363 1138 1060 958 1265 1285 1165 1229 1194 1279 1240 1213 1453 1097 952 799 948 947
131 613 401 430 648 633 950 1484 1566 1460 1172 1578 1513 1524 1540 1511 1446 1337 1196 1187 1282 1464 1403 1306 1316 1045 1486 1599 1321 1426 1470 1376 1477 1527 1296 1061 1304 1573 1531 1250 1309 1254 1409
424 773 846 819 1161 1232 1274 1238 1459 1475 1544 1638 1633 1710 1488 1481 956 1143 1388 1402 1484 1116 1106 989 830 899 903 1166 1600 1455 1372 1294 1163 1032 850 730 936 1494 1509 1573 1702 1588 1540
781 1080 1073 989 1364 1645 1471 1288 1598 1523 1684 1677 1757 1573 1521 1092 1743 1560 1096 1174 1632 1490 1319 877 962 1160 1340 1275 1542 1514 1375 1389 1193 1130 1199 1089 1412 1150 1278 1244 1443 1730 1360
848 1453 1141 1536 1682 1733 1589 1369 1722 1651 1686 1728 1718 1538 1056 1665 1477 1467 1364 1047 1309 1381 1350 1241 1387 1618 1628 1567 1537 1693 1154 944 1006 1140 1286 1076 960 1213 945 888 1207 1182 1058
881 1126 1392 1635 1841 1791 1486 1639 1640 1744 1627 1595 1516 1567 1615 1597 1555 1612 1586 1512 1067 1216 1284 1191 1379 1527 1588 1124 1093 1057 746 600 164 404 1031 1000 629 761 577 544 477 541 464
871 1069 1362 1609 1648 1823 1807 1816 1863 1696 1704 1630 1596 1583 1561 1595 1623 1594 1640 1452 1012 1128 1213 1041 1099 1230 1596 1199 1001 521 248 239 727 1065 1312 954 1023 920 536 390 436 496 481
559 910 1360 1072 1603 1592 1794 1931 1907 1729 1634 1575 1489 1500 1562 1523 1565 1587 1358 1158 1053 976 1093 1104 1161 1147 1184 1377 1472 1040 239 267 253 453 429 384 241 293 216 193 344 450 593
855 843 1245 1569 1450 1386 1674 1738 1939 1998 1838 1738 1615 1723 1787 1771 1743 1541 1487 1439 1240 1046 893 881 1059 1173 1285 1301 1461 1297 949 319 185 0 0 14 153 177 146 207 460 656 873
947 1053 1392 1532 1364 1018 1658 1744 1825 1916 1799 1720 1860 1663 1640 1500 1350 1382 1907 1878 1939 1729 1473 1288 1081 1208 887 834 1199 1662 1301 1035 505 6 0 0 62 308 342 453 661 956 1206
490 991 1315 1371 1170 1458 1556 1931 1979 2055 2046 2015 1693 1676 1550 1558 1801 1848 1408 951 1195 952 818 425 681 440 458 804 1291 1466 1677 1629 869 102 0 0 184 751 907 997 1058 1182 1404
180 763 1033 1278 1210 1458 1774 1847 1814 1851 1625 1670 1291 1205 1332 1173 747 922 1009 609 796 381 636 499 445 570 777 949 1168 1270 1297 740 437 18 0 0 287 935 1400 1300 1354 1431 1639
312 606 952 1096 1296 1371 1344 1493 1309 1087 1062 951 1138 1180 1009 698 375 396 641 264 517 871 1213 1235 1205 1275 1401 1407 1257 1419 1193 365 42 0 0 0 307 665 1095 1371 1394 1615 1890
331 560 812 934 1116 1214 1021 1116 741 565 636 859 939 1029 866 480 204 221 205 445 783 1102 1362 1623 1722 1733 1502 1387 743 1200 1093 523 146 3 3 0 178 517 659 928 1212 1499 1702
270 470 638 716 965 924 789 779 870 865 554 907 945 1119 692 265 57 452 791 897 1138 1456 1693 1709 1537 1597 1338 982 525 475 766 506 199 6 10 38 0 181 493 736 1042 1311 1484
290 454 537 515 625 738 913 1173 1239 1309 1173 1169 1119 965 964 1148 1102 1153 1093 1198 1539 1716 2141 2008 1530 1416 882 649 620 399 465 209 81 11 8 45 146 94 315 665 895 1080 1205
193 416 644 390 528 703 878 1086 1132 982 1117 1142 977 957 935 1329 1382 1194 1159 1514 1729 2311 2481 2203 1388 1047 758 962 991 780 344 281 353 291 434 527 686 788 828 793 861 1287 1646
276 354 534 749 714 696 796 868 1009 802 963 822 661 766 1154 1639 1405 1519 1473 1180 1710 2316 2494 2269 1436 1141 775 835 875 905 731 847 864 822 1144 1254 1218 1297 1628 1705 1637 1778 2066
308 453 592 706 743 825 776 789 804 710 549 371 331 660 1051 1659 1734 1806 1177 1027 1948 2233 2443 1966 1503 1270 1291 1237 862 941 926 826 854 1000 1028 1187 1407 1492 1490 1792 2267 1937 1965
248 268 500 586 559 558 605 656 758 642 787 409 534 1016 1227 1482 1910 1481 859 1278 1792 1861 2094 2214 2000 1456 1195 1163 956 878 808 833 958 967 1076 1085 1172 1078 1044 1261 1591 1265 880
197 238 326 353 469 633 668 675 739 850 937 1042 1008 1317 1590 1317 1676 1626 931 1380 1357 1795 1916 1942 1834 1421 1172 1303 1774 883 949 816 851 847 1037 1070 1080 909 849 802 780 639 536
142 136 177 192 366 513 616 532 537 719 825 894 931 827 1476 1472 1568 1495 1168 1238 1193 1524 1803 1849 1924 1691 1058 848 1037 1729 1034 737 860 662 727 635 590 677 720 733 613 633 399
80 131 130 115 194 331 506 369 424 446 514 468 560 893 1077 1479 1523 1571 1385 1295 1390 1426 1707 1700 1801 1683 1471 1009 759 566 603 709 752 762 701 534 520 331 309 282 433 588 414
49 73 82 69 93 228 339 458 285 350 296 432 824 682 660 929 1358 1368 1327 1343 1280 1305 1545 1581 1566 1639 1341 1190 884 594 365 226 201 302 267 175 363 167 250 498 734 725 765
0 20 63 8 0 76 173 451 502 501 281 484 653 670 796 859 1142 1429 1369 1535 1213 1274 1187 1370 1389 1464 1432 1446 873 634 570 491 474 218 220 415 387 547 591 720 839 1139 1269